[[{"header":{"parameterUnit":"m.s-1","parameterCategory":1,"la1":30.6,"la2":28.766,"lo1":-90.7593,"lo2":-88.6598,"dx":0.0162,"dy":0.0183,"nx":116,"ny":114,"refTime":"2022-12-05T18:00:00:Z","depth":0,"parameterNumber":2,"parameterNumberName":"U-component_of_WINDS"},"data":[0.0,0.0,0.0,0.0,0.0,0.0,0.0,0.0,0.0,0.0,0.0,0.0,0.0,0.0,0.0,0.0,0.0,0.0,0.0,0.0,0.0,0.0,0.0,0.0,0.0,0.0,0.0,0.0,0.0,0.0,0.0,0.0,0.0,0.0,0.0,0.0,0.0,0.0,0.0,0.0,0.0,0.0,0.0,0.0,0.0,0.0,0.0,0.0,0.0,0.0,0.0,0.0,0.0,0.0,0.0,0.0,0.0,0.0,0.0,0.0,0.0,0.0,0.0,0.0,0.0,0.0,0.0,0.0,0.0,0.0,0.0,0.0,0.0,0.0,0.0,0.0,0.0,0.0,0.0,0.0,0.0,0.0,0.0,0.0,0.0,0.0,0.0,0.0,0.0,0.0,0.0,0.0,0.0,0.0,0.0,0.0,0.0,0.0,0.0,0.0,0.0,0.0,0.0,0.0,0.0,0.0,0.0,0.0,0.0,0.0,0.0,0.0,0.0,0.0,0.0,0.0,0.0,0.0,0.0,0.0,0.0,0.0,0.0,0.0,0.0,0.0,0.0,0.0,0.0,0.0,0.0,0.0,0.0,0.0,0.0,0.0,0.0,0.0,0.0,0.0,0.0,0.0,0.0,0.0,0.0,0.0,0.0,0.0,0.0,0.0,0.0,0.0,0.0,0.0,0.0,0.0,0.0,0.0,0.0,0.0,0.0,0.0,0.0,0.0,0.0,0.0,0.0,0.0,0.0,0.0,0.0,0.0,0.0,0.0,0.0,0.0,0.0,0.0,0.0,0.0,0.0,0.0,0.0,0.0,0.0,0.0,0.0,0.0,0.0,0.0,0.0,0.0,0.0,0.0,0.0,0.0,0.0,0.0,0.0,0.0,0.0,0.0,0.0,0.0,0.0,0.0,0.0,0.0,0.0,0.0,0.0,0.0,0.0,0.0,0.0,0.0,0.0,0.0,0.0,0.0,0.0,0.0,0.0,0.0,0.0,0.0,0.0,0.0,0.0,0.0,0.0,0.0,0.0,0.0,0.0,0.0,0.0,0.0,0.0,0.0,0.0,0.0,0.0,0.0,0.0,0.0,0.0,0.0,0.0,0.0,0.0,0.0,0.0,0.0,0.0,0.0,0.0,0.0,0.0,0.0,0.0,0.0,0.0,0.0,0.0,0.0,0.0,0.0,0.0,0.0,0.0,0.0,0.0,0.0,0.0,0.0,0.0,0.0,0.0,0.0,0.0,0.0,0.0,0.0,0.0,0.0,0.0,0.0,0.0,0.0,0.0,0.0,0.0,0.0,0.0,0.0,0.0,0.0,0.0,0.0,0.0,0.0,0.0,0.0,0.0,0.0,0.0,0.0,0.0,0.0,0.0,0.0,0.0,0.0,0.0,0.0,0.0,0.0,0.0,0.0,0.0,0.0,0.0,0.0,0.0,0.0,0.0,0.0,0.0,0.0,0.0,0.0,0.0,0.0,0.0,0.0,0.0,0.0,0.0,0.0,0.0,0.0,0.0,0.0,0.0,0.0,0.0,0.0,0.0,0.0,0.0,0.0,0.0,0.0,0.0,0.0,0.0,0.0,0.0,0.0,0.0,0.0,0.0,0.0,0.0,0.0,0.0,0.0,0.0,0.0,0.0,0.0,0.0,0.0,0.0,0.0,0.0,0.0,0.0,0.0,0.0,0.0,0.0,0.0,0.0,0.0,0.0,0.0,0.0,0.0,0.0,0.0,0.0,0.0,0.0,0.0,0.0,0.0,0.0,0.0,0.0,0.0,0.0,0.0,0.0,0.0,0.0,0.0,0.0,0.0,0.0,0.0,0.0,0.0,0.0,0.0,0.0,0.0,0.0,0.0,0.0,0.0,0.0,0.0,0.0,0.0,0.0,0.0,0.0,0.0,0.0,0.0,0.0,0.0,0.0,0.0,0.0,0.0,0.0,0.0,0.0,0.0,0.0,0.0,0.0,0.0,0.0,0.0,0.0,0.0,0.0,0.0,0.0,0.0,0.0,0.0,0.0,0.0,0.0,0.0,0.0,0.0,0.0,0.0,0.0,0.0,0.0,0.0,0.0,0.0,0.0,0.0,0.0,0.0,0.0,0.0,0.0,0.0,0.0,0.0,0.0,0.0,0.0,0.0,0.0,0.0,0.0,0.0,0.0,0.0,0.0,0.0,0.0,0.0,0.0,0.0,0.0,0.0,0.0,0.0,0.0,0.0,0.0,0.0,0.0,0.0,0.0,0.0,0.0,0.0,0.0,0.0,0.0,0.0,0.0,0.0,0.0,0.0,0.0,0.0,0.0,0.0,0.0,0.0,0.0,0.0,0.0,0.0,0.0,0.0,0.0,0.0,0.0,0.0,0.0,0.0,0.0,0.0,0.0,0.0,0.0,0.0,0.0,0.0,0.0,0.0,0.0,0.0,0.0,0.0,0.0,0.0,0.0,0.0,0.0,0.0,0.0,0.0,0.0,0.0,0.0,0.0,0.0,0.0,0.0,0.0,0.0,0.0,0.0,0.0,0.0,0.0,0.0,0.0,0.0,0.0,0.0,0.0,0.0,0.0,0.0,0.0,0.0,0.0,0.0,0.0,0.0,0.0,0.0,0.0,0.0,0.0,0.0,0.0,0.0,0.0,0.0,0.0,0.0,0.0,0.0,0.0,0.0,0.0,0.0,0.0,0.0,0.0,0.0,0.0,0.0,0.0,0.0,0.0,0.0,0.0,0.0,0.0,0.0,0.0,0.0,0.0,0.0,0.0,0.0,0.0,0.0,0.0,0.0,0.0,0.0,0.0,0.0,0.0,0.0,0.0,0.0,0.0,0.0,0.0,0.0,0.0,0.0,0.0,0.0,0.0,0.0,0.0,0.0,0.0,0.0,0.0,0.0,0.0,0.0,0.0,0.0,0.0,0.0,0.0,0.0,0.0,0.0,0.0,0.0,0.0,0.0,0.0,0.0,0.0,0.0,0.0,0.0,0.0,0.0,0.0,0.0,0.0,0.0,0.0,0.0,0.0,0.0,0.0,0.0,0.0,0.0,0.0,0.0,0.0,0.0,0.0,0.0,0.0,0.0,0.0,0.0,0.0,0.0,0.0,0.0,0.0,0.0,0.0,0.0,0.0,0.0,0.0,0.0,0.0,0.0,0.0,0.0,0.0,0.0,0.0,0.0,0.0,0.0,0.0,0.0,0.0,0.0,0.0,0.0,0.0,0.0,0.0,0.0,0.0,0.0,0.0,0.0,0.0,0.0,0.0,0.0,0.0,0.0,0.0,0.0,0.0,0.0,0.0,0.0,0.0,0.0,0.0,0.0,0.0,0.0,0.0,0.0,0.0,0.0,0.0,0.0,0.0,0.0,0.0,0.0,0.0,0.0,0.0,0.0,0.0,0.0,0.0,0.0,0.0,0.0,0.0,0.0,0.0,0.0,0.0,0.0,0.0,0.0,0.0,0.0,0.0,0.0,0.0,0.0,0.0,0.0,0.0,0.0,0.0,0.0,0.0,0.0,0.0,0.0,0.0,0.0,0.0,0.0,0.0,0.0,0.0,0.0,0.0,0.0,0.0,0.0,0.0,0.0,0.0,0.0,0.0,0.0,0.0,0.0,0.0,0.0,0.0,0.0,0.0,0.0,0.0,0.0,0.0,0.0,0.0,0.0,0.0,0.0,0.0,0.0,0.0,0.0,0.0,0.0,0.0,0.0,0.0,0.0,0.0,0.0,0.0,0.0,0.0,0.0,0.0,0.0,0.0,0.0,0.0,0.0,0.0,0.0,0.0,0.0,0.0,0.0,0.0,0.0,0.0,0.0,0.0,0.0,0.0,0.0,0.0,0.0,0.0,0.0,0.0,0.0,0.0,0.0,0.0,0.0,0.0,0.0,0.0,0.0,0.0,0.0,0.0,0.0,0.0,0.0,0.0,0.0,0.0,0.0,0.0,0.0,0.0,0.0,0.0,0.0,0.0,0.0,0.0,0.0,0.0,0.0,0.0,0.0,0.0,0.0,0.0,0.0,0.0,0.0,0.0,0.0,0.0,0.0,0.0,0.0,0.0,0.0,0.0,0.0,0.0,0.0,0.0,0.0,0.0,0.0,0.0,0.0,0.0,0.0,0.0,0.0,0.0,0.0,0.0,0.0,0.0,0.0,0.0,0.0,0.0,0.0,0.0,0.0,0.0,0.0,0.0,0.0,0.0,0.0,0.0,0.0,0.0,0.0,0.0,0.0,0.0,0.0,0.0,0.0,0.0,0.0,0.0,0.0,0.0,0.0,0.0,0.0,0.0,0.0,0.0,0.0,0.0,0.0,0.0,0.0,0.0,0.0,0.0,0.0,0.0,0.0,0.0,0.0,0.0,0.0,0.0,0.0,0.0,0.0,0.0,0.0,0.0,0.0,0.0,0.0,0.0,0.0,0.0,0.0,0.0,0.0,0.0,0.0,0.0,0.0,0.0,0.0,0.0,0.0,0.0,0.0,0.0,0.0,0.0,0.0,0.0,0.0,0.0,0.0,0.0,0.0,0.0,0.0,0.0,0.0,0.0,0.0,0.0,0.0,0.0,0.0,0.0,0.0,0.0,0.0,0.0,0.0,0.0,0.0,0.0,0.0,0.0,0.0,0.0,0.0,0.0,0.0,0.0,0.0,0.0,0.0,0.0,0.0,0.0,0.0,0.0,0.0,0.0,0.0,0.0,0.0,0.0,0.0,0.0,0.0,0.0,0.0,0.0,0.0,0.0,0.0,0.0,0.0,0.0,0.0,0.0,0.0,0.0,0.0,0.0,0.0,0.0,0.0,0.0,0.0,0.0,0.0,0.0,0.0,0.0,0.0,0.0,0.0,0.0,0.0,0.0,0.0,0.0,0.0,0.0,0.0,0.0,0.0,0.0,0.0,0.0,0.0,0.0,0.0,0.0,0.0,0.0,0.0,0.0,0.0,0.0,0.0,0.0,0.0,0.0,0.0,0.0,0.0,0.0,0.0,0.0,0.0,0.0,0.0,0.0,0.0,0.0,0.0,0.0,0.0,0.0,0.0,0.0,0.0,0.0,0.0,0.0,0.0,0.0,0.0,0.0,0.0,0.0,0.0,0.0,0.0,0.0,0.0,0.0,0.0,0.0,0.0,0.0,0.0,0.0,0.0,0.0,0.0,0.0,0.0,0.0,0.0,0.0,0.0,0.0,0.0,0.0,0.0,0.0,0.0,0.0,0.0,0.0,0.0,0.0,0.0,0.0,0.0,0.0,0.0,0.0,0.0,0.0,0.0,0.0,0.0,0.0,0.0,0.0,0.0,0.0,0.0,0.0,0.0,0.0,0.0,0.0,0.0,0.0,0.0,0.0,0.0,0.0,0.0,0.0,0.0,0.0,0.0,0.0,0.0,0.0,0.0,0.0,0.0,0.0,0.0,0.0,0.0,0.0,0.0,0.0,0.0,0.0,0.0,0.0,0.0,0.0,0.0,0.0,0.0,0.0,0.0,0.0,0.0,0.0,0.0,0.0,0.0,0.0,0.0,0.0,0.0,0.0,0.0,0.0,0.0,0.0,0.0,0.0,0.0,0.0,0.0,0.0,0.0,0.0,0.0,0.0,0.0,0.0,0.0,0.0,0.0,0.0,0.0,0.0,0.0,0.0,0.0,0.0,0.0,0.0,0.0,0.0,0.0,0.0,0.0,0.0,0.0,0.0,0.0,0.0,0.0,0.0,0.0,0.0,0.0,0.0,0.0,0.0,0.0,0.0,0.0,0.0,0.0,0.0,0.0,0.0,0.0,0.0,0.0,0.0,0.0,0.0,0.0,0.0,0.0,0.0,0.0,0.0,0.0,0.0,0.0,0.0,0.0,0.0,0.0,0.0,0.0,0.0,0.0,0.0,0.0,0.0,0.0,0.0,0.0,0.0,0.0,0.0,0.0,0.0,0.0,0.0,0.0,0.0,0.0,0.0,0.0,0.0,0.0,0.0,0.0,0.0,0.0,0.0,0.0,0.0,0.0,0.0,0.0,0.0,0.0,0.0,0.0,0.0,0.0,0.0,0.0,0.0,0.0,0.0,0.0,0.0,0.0,0.0,0.0,0.0,0.0,0.0,0.0,0.0,0.0,0.0,0.0,0.0,-1.1594,0.0,0.0,0.0,0.0,0.0,0.0,0.0,0.0,0.0,0.0,0.0,0.0,0.0,0.0,0.0,0.0,0.0,0.0,0.0,0.0,0.0,0.0,0.0,0.0,-0.3381,-0.3366,-0.3408,-0.3323,0.0,0.0,0.0,0.0,0.0,0.0,0.0,0.0,0.0,-0.4148,-0.4356,-0.4328,-0.4146,-0.3818,-0.434,-0.4899,-0.5424,0.0,0.0,0.0,0.0,0.0,0.0,0.0,0.0,0.0,0.0,0.0,0.0,0.0,0.0,0.0,0.0,0.0,0.0,0.0,0.0,0.0,0.0,0.0,0.0,0.0,0.0,0.0,0.0,0.0,0.0,0.0,0.0,0.0,0.0,0.0,0.0,0.0,0.0,0.0,0.0,0.0,0.0,0.0,0.0,0.0,0.0,0.0,0.0,0.0,0.0,0.0,0.0,0.0,0.0,0.0,0.0,0.0,0.0,0.0,0.0,0.0,0.0,0.0,0.0,0.0,0.0,0.0,0.0,0.0,0.0,0.0,-1.1724,0.0,0.0,0.0,0.0,0.0,0.0,0.0,0.0,0.0,0.0,0.0,0.0,0.0,0.0,0.0,0.0,0.0,0.0,0.0,0.0,0.0,-0.3223,-0.3207,-0.3154,-0.3161,-0.3202,-0.3107,-0.3034,-0.3062,-0.3062,0.0,0.0,0.0,0.0,-0.3731,-0.3852,-0.3992,-0.4104,-0.376,-0.3465,-0.3226,-0.3313,-0.3788,-0.4582,-0.4974,0.0,0.0,0.0,0.0,0.0,0.0,0.0,0.0,0.0,0.0,0.0,0.0,0.0,0.0,0.0,0.0,0.0,0.0,0.0,0.0,0.0,0.0,0.0,0.0,0.0,0.0,0.0,0.0,0.0,0.0,0.0,0.0,0.0,0.0,0.0,0.0,0.0,0.0,0.0,0.0,0.0,0.0,0.0,0.0,0.0,0.0,0.0,0.0,0.0,0.0,0.0,0.0,0.0,0.0,0.0,0.0,0.0,0.0,0.0,0.0,0.0,0.0,0.0,-1.1096,-1.0529,-0.9849,-0.9987,-0.943,-0.8475,-0.9518,-0.9666,-0.9283,-1.1148,0.0,0.0,0.0,0.0,0.0,0.0,0.0,0.0,0.0,0.0,0.0,0.0,0.0,0.0,0.0,0.0,0.0,0.0,0.0,-0.2918,-0.2874,-0.2846,-0.2974,-0.3272,-0.3204,-0.323,-0.3346,-0.3346,0.0,0.0,0.0,-0.3293,-0.3441,-0.3297,-0.3142,-0.2932,-0.2313,-0.205,-0.2132,-0.254,-0.2864,-0.3187,-0.3628,-0.3991,-0.4282,0.0,0.0,0.0,0.0,0.0,0.0,0.0,0.0,0.0,0.0,0.0,0.0,0.0,0.0,0.0,0.0,0.0,0.0,0.0,0.0,0.0,0.0,0.0,0.0,0.0,0.0,0.0,0.0,0.0,0.0,0.0,0.0,0.0,0.0,0.0,0.0,0.0,0.0,0.0,0.0,0.0,-0.9903,-0.9504,0.0,0.0,0.0,0.0,0.0,0.0,0.0,0.0,0.0,0.0,0.0,0.0,0.0,-1.3181,-1.3014,-1.1335,-1.0218,-0.9643,-0.8351,-0.7374,-0.6784,-0.6681,-0.6902,-0.7289,-0.7385,0.0,-0.8678,-0.9511,0.0,0.0,0.0,0.0,0.0,0.0,0.0,0.0,0.0,0.0,0.0,0.0,0.0,0.0,0.0,0.0,0.0,0.0,0.0,0.0,0.0,-0.2651,-0.2522,-0.2679,-0.2355,-0.216,-0.2218,-0.2218,0.0,0.0,-0.2293,-0.2459,-0.2732,-0.2668,-0.2533,-0.2236,-0.1888,-0.1606,-0.1444,-0.1678,-0.179,-0.1894,-0.2294,-0.3286,-0.4634,-0.4622,0.0,0.0,0.0,0.0,0.0,0.0,0.0,0.0,0.0,0.0,0.0,0.0,0.0,0.0,0.0,0.0,0.0,0.0,0.0,0.0,0.0,0.0,0.0,0.0,0.0,0.0,0.0,0.0,0.0,0.0,0.0,0.0,0.0,0.0,0.0,0.0,0.0,0.0,0.0,-1.0242,-0.9921,-0.9717,-1.1286,-1.2762,0.0,0.0,0.0,0.0,0.0,0.0,0.0,0.0,0.0,-1.2003,-1.1381,-1.0864,-1.0412,-0.9224,-0.8633,-0.8692,-0.7931,-0.7192,-0.6583,-0.6534,-0.6485,-0.6372,-0.6642,-0.7009,-0.7534,-0.8711,-0.9724,-1.0672,0.0,0.0,0.0,0.0,-1.3246,-1.3209,0.0,0.0,0.0,0.0,0.0,0.0,0.0,0.0,0.0,0.0,0.0,0.0,-0.2828,-0.2364,-0.2065,-0.2131,-0.1727,-0.1444,-0.1465,-0.1467,-0.1447,-0.1472,-0.1622,-0.1849,-0.2144,-0.2041,-0.1846,-0.1581,-0.1405,-0.1141,-0.0826,-0.0961,-0.0966,-0.0924,-0.1303,-0.2515,-0.4276,-0.4083,-0.4543,-0.5384,0.0,0.0,0.0,0.0,0.0,0.0,0.0,0.0,0.0,0.0,0.0,0.0,0.0,0.0,0.0,0.0,0.0,0.0,0.0,0.0,0.0,0.0,0.0,0.0,0.0,0.0,0.0,0.0,0.0,0.0,0.0,0.0,0.0,0.0,0.0,0.0,0.0,-0.9658,-0.929,-0.9511,-1.0354,-1.1367,0.0,0.0,0.0,0.0,0.0,0.0,-1.1545,-1.1844,-1.1428,-1.0097,-0.9585,-0.9044,-0.8474,-0.7931,-0.7723,-0.7949,-0.7676,-0.7133,-0.647,-0.6367,-0.6041,-0.5719,-0.6209,-0.648,-0.6799,-0.8053,-0.8822,-0.9254,-1.0124,-1.0981,-1.1626,-1.1329,-1.1545,-1.1769,0.0,0.0,0.0,0.0,0.0,0.0,0.0,0.0,0.0,0.0,0.0,-0.2398,-0.2328,-0.1921,-0.1718,-0.1887,-0.1897,-0.1868,-0.1853,-0.1859,-0.1901,-0.1956,-0.185,-0.1854,-0.2012,-0.1433,-0.1033,-0.0751,-0.0349,-0.0137,-0.0047,-0.049,-0.0598,-0.0349,-0.0847,-0.1329,-0.1835,-0.2636,-0.346,-0.4267,-0.5286,0.0,0.0,0.0,0.0,0.0,0.0,0.0,0.0,0.0,0.0,0.0,0.0,0.0,0.0,0.0,0.0,0.0,0.0,0.0,0.0,0.0,0.0,0.0,0.0,0.0,0.0,0.0,0.0,0.0,0.0,0.0,0.0,0.0,0.0,0.0,0.0,0.0,0.0,-0.754,-0.7659,0.0,0.0,0.0,0.0,-1.1849,-1.233,-1.2087,-1.0797,-1.0806,-1.023,-0.8903,-0.885,-0.8745,-0.8573,-0.8573,-0.8143,-0.7343,-0.674,-0.6091,-0.5386,-0.4842,-0.4901,-0.5332,-0.5664,-0.6258,-0.6907,-0.7503,-0.8224,-0.8933,-0.9214,-0.9776,-1.0375,-0.9629,-0.9377,-0.9221,0.0,0.0,0.0,-0.3402,-0.3381,-0.3275,-0.2869,-0.2962,-0.3013,-0.2816,-0.2553,-0.2392,-0.2418,-0.1784,-0.1396,-0.1511,-0.1238,-0.105,-0.1065,-0.1068,-0.1077,-0.1096,-0.098,-0.0847,-0.0769,-0.0616,-0.041,-0.0238,-0.0096,0.0,0.0,-0.01,-0.005,0.0,-0.0302,-0.0489,-0.0693,-0.1482,-0.2377,-0.3345,-0.3736,-0.4525,0.0,0.0,0.0,0.0,0.0,0.0,0.0,0.0,0.0,0.0,0.0,0.0,0.0,0.0,0.0,0.0,0.0,0.0,0.0,0.0,0.0,0.0,0.0,0.0,0.0,0.0,0.0,0.0,0.0,0.0,0.0,0.0,0.0,0.0,0.0,0.0,0.0,-0.7788,-0.7606,0.0,-0.9123,-0.9291,-0.9394,-0.9526,-0.9607,-0.9423,-0.894,-0.9273,-0.9086,-0.8256,-0.8521,-0.8474,-0.8043,-0.8209,-0.8162,-0.7889,-0.7187,-0.6534,-0.5882,-0.5281,-0.4952,-0.4791,-0.5167,-0.5492,-0.576,-0.6258,-0.7015,-0.7871,-0.7931,-0.8025,-0.8047,-0.7741,-0.7735,-0.767,0.0,0.0,0.0,-0.3211,-0.3126,-0.3026,-0.2777,-0.2812,-0.2816,-0.2645,-0.2402,-0.2197,-0.212,-0.1446,-0.1021,-0.1077,-0.0747,-0.0573,-0.0642,-0.0571,-0.0581,-0.0548,-0.0256,0.0088,0.0514,0.048,0.0541,0.0757,0.0766,0.0719,0.0719,0.0831,0.0783,0.0679,0.0522,0.0363,0.0205,-0.0291,-0.1203,-0.2346,-0.2534,-0.335,-0.4484,0.0,0.0,0.0,0.0,0.0,0.0,0.0,0.0,0.0,0.0,0.0,0.0,0.0,0.0,0.0,0.0,0.0,0.0,0.0,0.0,0.0,0.0,0.0,0.0,0.0,0.0,0.0,0.0,0.0,0.0,0.0,0.0,0.0,0.0,0.0,-0.6362,-0.7063,-0.6747,-0.6849,-0.7834,-0.7712,-0.7557,-0.7697,-0.7943,-0.7985,-0.7688,-0.8312,-0.8367,-0.7638,-0.7915,-0.7819,-0.7356,-0.7526,-0.7595,-0.7515,-0.6804,-0.6263,-0.5878,-0.5281,-0.4846,-0.4515,-0.4893,-0.5054,-0.5105,-0.5546,-0.6095,-0.6701,-0.6701,-0.6534,-0.6303,-0.6249,-0.6293,-0.6392,0.0,0.0,-0.3287,-0.295,-0.2778,-0.2718,-0.2764,-0.279,-0.2677,-0.2338,-0.2069,-0.1746,-0.1335,-0.0873,-0.0559,-0.0549,-0.0433,-0.0442,-0.0633,-0.0528,-0.0458,-0.043,0.0198,0.0907,0.1763,0.1813,0.1915,0.2172,0.2193,0.2174,0.2176,0.2196,0.2009,0.1677,0.1621,0.1374,0.096,0.096,0.0156,-0.1155,-0.1776,-0.2523,-0.3327,0.0,0.0,0.0,0.0,0.0,0.0,0.0,0.0,0.0,0.0,0.0,0.0,0.0,0.0,0.0,0.0,0.0,0.0,0.0,0.0,0.0,0.0,0.0,0.0,0.0,0.0,0.0,0.0,0.0,0.0,0.0,0.0,0.0,-0.6275,-0.5658,-0.5082,-0.5229,-0.4827,-0.4684,-0.5222,-0.5732,-0.6156,-0.6468,-0.7661,-0.8046,-0.7333,-0.7999,-0.7946,-0.7121,-0.7061,-0.6905,-0.6582,-0.6578,-0.6477,-0.6228,-0.5622,-0.5293,-0.5289,-0.4743,-0.4467,-0.446,-0.4736,-0.4893,-0.505,-0.5324,-0.5433,-0.5433,-0.5483,-0.5382,-0.5281,-0.5109,-0.5164,-0.5222,-0.3429,-0.3202,-0.2945,-0.2654,-0.2585,-0.2467,-0.2195,-0.2304,-0.2342,-0.2051,-0.1779,-0.1437,-0.0937,-0.0436,0.0,0.0368,0.0453,0.0426,0.0413,0.0651,0.0857,0.1039,0.1201,0.1477,0.1779,0.1885,0.1962,0.2069,0.2138,0.2199,0.2201,0.2334,0.2563,0.2837,0.251,0.2554,0.28,0.1929,0.1317,0.0864,-0.0101,-0.103,-0.1836,0.0,0.0,0.0,0.0,0.0,0.0,0.0,0.0,0.0,0.0,0.0,0.0,0.0,0.0,0.0,0.0,0.0,0.0,0.0,0.0,0.0,0.0,0.0,0.0,0.0,0.0,0.0,0.0,0.0,0.0,0.0,0.0,-0.4061,-0.519,-0.4494,-0.3993,-0.4251,-0.427,-0.4487,-0.5122,-0.5604,-0.6158,-0.662,-0.739,-0.7651,-0.7344,-0.7467,-0.723,-0.646,-0.6768,-0.6685,-0.6155,-0.6502,-0.6651,-0.6536,-0.5952,-0.5595,-0.5478,-0.4794,-0.4163,-0.3622,-0.3514,-0.3458,-0.3511,-0.3453,-0.3732,-0.4239,-0.516,-0.5164,-0.4736,-0.468,-0.4349,-0.3907,-0.3105,-0.2832,-0.2551,-0.2328,-0.2282,-0.2179,-0.1827,-0.1897,-0.1856,-0.1363,-0.1138,-0.0848,-0.0336,0.0076,0.0439,0.0729,0.092,0.1038,0.0995,0.1272,0.1569,0.1942,0.231,0.2702,0.3084,0.3458,0.3707,0.3782,0.3834,0.3886,0.3886,0.3999,0.3941,0.3773,0.3506,0.3342,0.3174,0.2456,0.2179,0.2117,0.1445,0.0469,-0.0719,-0.1056,-0.167,-0.2392,-0.2897,-0.3278,-0.3588,-0.3738,0.0,0.0,0.0,0.0,0.0,0.0,0.0,0.0,0.0,0.0,0.0,0.0,0.0,0.0,0.0,0.0,0.0,0.0,0.0,0.0,0.0,0.0,0.0,0.0,-0.3357,-0.2923,-0.353,-0.322,-0.2949,-0.2922,-0.317,-0.349,-0.3795,-0.4345,-0.4857,-0.5348,-0.6214,-0.6616,-0.62,-0.6701,-0.6706,-0.5907,-0.6162,-0.6063,-0.5616,-0.592,-0.6002,-0.5932,-0.5264,-0.4913,-0.4831,-0.4065,-0.348,-0.2958,-0.2699,-0.2571,-0.2516,-0.2625,-0.2905,0.0,0.0,0.0,0.0,0.0,-0.3183,-0.2685,-0.2637,-0.2394,-0.2132,-0.1982,-0.1971,-0.187,-0.1547,-0.1512,-0.1263,-0.0564,-0.0386,-0.0148,0.0351,0.0654,0.0854,0.0891,0.1298,0.1571,0.1631,0.1747,0.2164,0.2783,0.3561,0.4281,0.5007,0.5655,0.6036,0.6154,0.6209,0.6209,0.6209,0.6209,0.5655,0.4714,0.4608,0.4058,0.3176,0.2956,0.2901,0.2901,0.2736,0.1756,0.0267,0.0155,-0.0457,-0.131,-0.1613,-0.1955,-0.2391,-0.2693,0.0,0.0,0.0,0.0,0.0,0.0,0.0,0.0,0.0,0.0,0.0,0.0,0.0,0.0,0.0,0.0,0.0,0.0,0.0,0.0,0.0,0.0,0.0,0.0,-0.2297,-0.1852,-0.1911,-0.2057,-0.2042,-0.1604,-0.1982,-0.2233,-0.2171,-0.2666,-0.3134,-0.3478,-0.4693,-0.5135,-0.4486,0.0,0.0,0.0,0.0,-0.516,-0.49,-0.4833,-0.4772,-0.4658,-0.3971,-0.3658,-0.364,-0.2943,-0.2545,-0.2354,-0.2112,-0.197,-0.1912,-0.235,-0.2514,-0.2625,-0.313,-0.3244,-0.3132,-0.235,-0.1958,-0.1677,-0.2289,-0.2154,-0.196,-0.1714,-0.1756,-0.1647,-0.1032,-0.0988,-0.0829,-0.0268,-0.007,0.026,0.0934,0.1143,0.1452,0.2093,0.2322,0.2781,0.3519,0.3458,0.3765,0.4725,0.4944,0.5222,0.5609,0.5873,0.6036,0.6036,0.615,0.6209,0.6209,0.6209,0.6317,0.6529,0.6095,0.5982,0.6145,0.4714,0.4058,0.4003,0.3065,0.2227,0.1495,0.1429,0.0917,0.0158,-0.0316,-0.0619,-0.0904,-0.1505,-0.1904,-0.2251,-0.2695,-0.3136,0.0,0.0,0.0,0.0,0.0,0.0,0.0,0.0,0.0,0.0,0.0,0.0,0.0,0.0,0.0,0.0,0.0,0.0,0.0,-0.2695,-0.2221,-0.1914,-0.1973,-0.178,-0.1713,-0.1852,-0.1981,-0.2256,-0.2696,-0.2832,-0.3101,-0.3647,-0.3911,-0.399,-0.3754,-0.4553,-0.4553,-0.3685,-0.422,-0.4209,-0.3588,-0.3387,-0.3311,-0.3294,0.0,0.0,-0.2741,-0.2407,-0.1934,-0.1339,-0.1239,-0.1164,-0.1103,-0.1189,-0.1455,-0.19,-0.2569,-0.2458,-0.19,-0.1566,-0.1398,-0.1229,-0.1909,-0.177,-0.1561,-0.1293,-0.1301,-0.1129,-0.0438,-0.0381,-0.0235,0.0269,0.0505,0.0764,0.1213,0.1706,0.2179,0.2583,0.3163,0.3833,0.4438,0.4525,0.4787,0.5277,0.5982,0.6465,0.6632,0.7063,0.7379,0.7593,0.7439,0.7391,0.7391,0.7599,0.7503,0.7085,0.7009,0.6853,0.6588,0.571,0.5105,0.4776,0.4226,0.3456,0.2681,0.2293,0.1717,0.1091,0.0982,0.0702,0.0319,0.0212,0.0053,-0.0159,-0.0633,-0.1,-0.1419,0.0,0.0,0.0,0.0,0.0,0.0,0.0,0.0,0.0,0.0,0.0,0.0,0.0,0.0,-0.3372,0.0,0.0,-0.2718,-0.2579,-0.212,-0.1783,-0.1771,-0.1515,-0.1448,-0.1778,-0.1646,-0.1655,-0.1942,-0.2012,-0.2079,-0.2412,-0.2679,-0.288,-0.2817,-0.3485,-0.3618,-0.3082,-0.3416,-0.3416,-0.2947,-0.288,-0.2811,-0.2811,-0.2344,-0.2128,-0.2035,-0.1555,-0.1086,-0.0693,-0.0611,-0.0478,-0.0352,-0.0568,-0.0616,-0.0614,-0.1004,-0.1228,-0.1285,-0.0839,-0.0391,-0.0056,-0.155,-0.1373,-0.1167,-0.0948,-0.0854,-0.06,0.0,0.013,0.0336,0.084,0.1097,0.1322,0.1609,0.2315,0.2799,0.2959,0.3918,0.47,0.5198,0.5496,0.5764,0.5982,0.7111,0.7759,0.7812,0.8408,0.889,0.9211,0.889,0.8732,0.8732,0.9054,0.8626,0.761,0.7865,0.754,0.674,0.6578,0.615,0.566,0.5496,0.4835,0.3846,0.3239,0.246,0.1734,0.1959,0.168,0.1289,0.168,0.179,0.1733,0.1227,0.0947,0.0557,-0.0947,-0.1447,0.0,0.0,0.0,0.0,0.0,0.0,0.0,0.0,0.0,-0.3602,-0.2983,-0.2832,-0.284,-0.2785,-0.2552,-0.2377,-0.2312,-0.1878,-0.1507,-0.1475,-0.1277,-0.121,-0.148,-0.1277,-0.1076,-0.1076,-0.1076,-0.1076,-0.1076,-0.1612,-0.1879,-0.1879,-0.2414,-0.2613,-0.2277,-0.2274,-0.214,-0.1873,-0.194,-0.2008,-0.2008,-0.1542,-0.1275,-0.1274,-0.0657,-0.0195,0.0,0.0251,0.0424,0.0645,0.0227,0.0335,0.0726,0.0781,0.039,-0.0167,0.028,0.0783,0.134,-0.1288,-0.1101,-0.0995,-0.0915,-0.0668,-0.0343,0.003,0.0194,0.0504,0.1173,0.1483,0.1939,0.2719,0.2858,0.3171,0.3973,0.4485,0.5204,0.6323,0.673,0.7326,0.8343,0.856,0.8778,0.8995,0.9099,0.9159,0.9211,0.9159,0.9159,0.9159,0.9159,0.9256,0.9295,0.9093,0.8883,0.8659,0.7853,0.7278,0.6864,0.6317,0.5714,0.5113,0.4889,0.3674,0.2127,0.2183,0.1959,0.1734,0.179,0.179,0.179,0.1733,0.1509,0.1005,-0.0167,0.0,-0.0896,-0.2514,0.0,0.0,-0.2676,-0.2899,-0.2954,0.0,0.0,-0.2279,-0.2104,-0.1797,-0.1715,-0.2022,-0.1823,-0.154,-0.1226,-0.1186,-0.1138,-0.1143,-0.1143,-0.1143,-0.1143,-0.1143,-0.1076,-0.1076,-0.1076,-0.1076,-0.1076,-0.1143,-0.121,-0.121,-0.114,-0.0737,-0.0067,0.0067,0.0468,0.1138,0.0671,0.0403,0.0403,0.0,-0.0202,-0.0202,0.0067,0.0536,0.1131,0.1891,0.2235,0.2222,0.198,0.1952,0.2007,0.2176,0.2506,0.2777,0.2341,0.2345,0.2512,-0.1275,-0.0572,0.0,0.0028,0.0145,0.0423,0.0962,0.1156,0.1341,0.1609,0.1861,0.212,0.2498,0.3231,0.4124,0.517,0.5642,0.6304,0.7178,0.7534,0.8022,0.8771,0.919,0.9451,0.9562,0.9562,0.9673,0.9947,0.9673,0.9562,0.9562,0.9836,0.9836,0.9614,0.9562,0.9406,0.9093,0.8455,0.7818,0.7187,0.6864,0.6372,0.5769,0.5386,0.467,0.384,0.3294,0.2794,0.0,0.274,0.2854,0.2854,0.2854,0.2627,0.2179,0.1285,0.0671,0.0,-0.1007,0.0,0.0,0.0,-0.1586,-0.1894,-0.1151,-0.1535,-0.1992,-0.1452,-0.124,-0.1266,-0.1707,-0.1684,-0.1586,0.0,-0.1536,-0.1277,-0.0941,-0.0739,-0.0538,-0.0202,0.0067,-0.0067,-0.0605,-0.0403,-0.0134,0.0134,0.0336,0.0469,0.0469,0.0536,0.0804,0.1208,0.1273,0.1473,0.1878,0.1678,0.1544,0.1544,0.1478,0.1412,0.1412,0.1611,0.1877,0.2204,0.3448,0.3638,0.3177,0.353,0.3837,0.3993,0.4106,0.4491,0.482,0.3613,0.3613,0.4216,-0.1195,-0.0212,0.0684,0.0934,0.1068,0.1278,0.1632,0.1845,0.1945,0.2045,0.2218,0.2472,0.2828,0.3961,0.5067,0.6067,0.656,0.7158,0.7948,0.8237,0.8717,0.9436,0.9969,1.0277,1.0372,1.0423,1.0592,1.0913,1.0592,1.0328,1.0226,1.0659,1.0506,0.9976,1.0079,0.9873,0.9458,0.8995,0.8355,0.7664,0.7402,0.6977,0.6426,0.5987,0.555,0.5113,0.4184,0.3461,0.2961,0.3413,0.3471,0.336,0.3416,0.3188,0.274,0.2071,0.1342,0.0615,0.0,0.0,0.0,0.0113,-0.0346,-0.0823,-0.0594,-0.1097,-0.1494,-0.1249,-0.1088,-0.1175,-0.15,-0.1525,-0.148,-0.1681,-0.1412,-0.1076,-0.0538,-0.0202,0.0067,0.047,0.0874,0.0873,0.0336,0.0537,0.0806,0.1209,0.1476,0.1609,0.1609,0.1877,0.2078,0.2211,0.2414,0.2616,0.2683,0.2482,0.2414,0.2414,0.2415,0.2417,0.2417,0.3078,0.3409,0.3467,0.496,0.5216,0.4623,0.5082,0.5442,0.5661,0.5555,0.5923,0.6317,0.5093,0.5039,0.5642,-0.0905,-0.0167,0.0665,0.1536,0.2001,0.2137,0.1742,0.1878,0.2081,0.2341,0.2547,0.317,0.4388,0.5191,0.5872,0.6417,0.6865,0.7517,0.8601,0.8933,0.9719,1.115,1.1217,1.1469,1.1909,1.195,1.1959,1.195,1.1959,1.171,1.1276,1.1528,1.1377,1.0871,1.0871,1.06,1.0115,0.9465,0.8949,0.8521,0.8055,0.7574,0.7085,0.7031,0.6431,0.5458,0.4353,0.3744,0.3413,0.3527,0.3193,0.2747,0.3021,0.2685,0.2127,0.1734,0.1064,0.0336,0.0,0.0,0.0395,0.0467,0.0471,0.0356,-0.0122,-0.0252,-0.0514,-0.1415,-0.1317,-0.1208,-0.1545,-0.1344,-0.0941,-0.047,-0.0336,-0.0134,0.0403,0.047,0.047,0.047,0.0874,0.1276,0.0,0.1676,0.1542,0.1609,0.1609,0.1609,0.1609,0.2479,0.2947,0.2947,0.3758,0.4233,0.4233,0.3553,0.3149,0.3149,0.2616,0.2417,0.2482,0.4209,0.5067,0.5315,0.6578,0.713,0.7092,0.6681,0.6563,0.6539,0.6284,0.6534,0.7085,0.7182,0.6848,0.6362,-0.0908,0.0234,0.1305,0.1575,0.2239,0.2636,0.2504,0.2805,0.2973,0.2768,0.3097,0.0,0.0,0.0,0.0,0.0,0.7096,0.7918,0.8837,0.9353,1.0111,1.1173,1.1576,1.1859,1.2008,1.2008,1.2008,1.2008,1.2008,1.1909,1.176,1.1719,1.1628,1.1427,1.1074,1.071,1.0285,0.9821,0.9249,0.8725,0.8474,0.8049,0.7574,0.6972,0.6534,0.61,0.0,0.4405,0.3849,0.3411,0.3132,0.2965,0.2856,0.2519,0.2073,0.1456,0.1065,0.0842,0.0729,0.0,0.0988,0.1349,0.1214,0.1003,0.0824,0.026,-0.0331,-0.0663,-0.0935,-0.1143,-0.1277,-0.0874,-0.0538,-0.0336,0.0,0.0403,0.0941,0.1008,0.1276,0.188,0.2284,0.0,0.0,0.0,0.0,0.3017,0.3286,0.3422,0.3422,0.3692,0.3892,0.3892,0.4164,0.4367,0.4495,0.4223,0.4156,0.4289,0.4683,0.468,0.4489,0.6453,0.6846,0.6125,0.795,0.8354,0.7814,0.8144,0.8066,0.7706,0.7789,0.8027,0.8402,0.8613,0.881,0.8842,-0.0875,0.0435,0.1573,0.1609,0.2308,0.0,0.0,0.0,0.0,0.0,0.0,0.0,0.0,0.0,0.0,0.0,0.0,0.8307,0.9212,0.9628,1.0299,1.1425,1.1844,1.2194,1.254,1.2589,1.2589,1.2589,1.2589,1.2491,1.2344,1.2246,1.2008,1.1569,1.1318,1.0913,1.0403,0.9976,0.9516,0.9031,0.8606,0.8205,0.781,0.7058,0.6701,0.0,0.5668,0.5066,0.4567,0.3627,0.3186,0.2963,0.2633,0.2298,0.1962,0.1515,0.1347,0.135,0.1366,0.1391,0.1539,0.1874,0.1754,0.1551,0.137,0.0796,0.0202,0.0,-0.047,-0.0807,-0.0807,-0.0538,-0.0269,-0.0269,0.0134,0.0739,0.1411,0.1545,0.188,0.2755,0.3224,0.0,0.0,0.0,0.0,0.3961,0.4164,0.43,0.43,0.43,0.43,0.4431,0.4431,0.4495,0.4694,0.4954,0.5286,0.5679,0.6203,0.6338,0.6148,0.7772,0.8032,0.7246,0.9011,0.9439,0.8953,0.9585,0.963,0.9284,0.9299,0.9418,0.9595,0.965,0.9917,1.0115,-0.0844,0.0403,0.1479,0.0,0.0,0.0,0.0,0.0,0.0,0.0,0.0,0.0,0.0,0.0,0.0,0.0,0.0,0.0,0.9657,0.97,1.0416,1.1897,1.2001,1.2493,1.3521,1.3579,1.3589,1.3621,1.3621,1.342,1.3016,1.3112,1.253,1.1451,1.1569,1.1226,1.047,0.9976,0.9684,0.9446,0.8451,0.7961,0.7767,0.7258,0.6902,0.6578,0.5977,0.5714,0.5399,0.0,0.0,0.0,0.0,0.2074,0.1853,0.1853,0.1855,0.1813,0.1867,0.1886,0.1918,0.2098,0.213,0.1952,0.147,0.1344,0.1143,0.0672,0.0067,-0.0269,0.0,0.0,-0.0269,-0.0269,0.0202,0.094,0.1811,0.1945,0.2281,0.0,0.0,0.0,0.0,0.0,0.0,0.43,0.0,0.43,0.43,0.4367,0.4431,0.4625,0.4691,0.4758,0.4894,0.5613,0.6396,0.7181,0.7246,0.7316,0.7451,0.8231,0.8554,0.8554,0.9722,1.0244,1.0281,1.0838,1.1055,1.1041,1.0751,1.064,1.0624,1.0358,1.0277,1.032,0.0,0.0,0.0,0.0,0.0,0.0,0.0,0.0,0.0,0.0,0.0,0.0,0.0,0.0,0.0,0.0,0.0,0.0,0.9573,1.0068,1.0629,1.1315,1.1804,1.2371,1.3011,1.3057,1.3269,1.3621,1.3621,1.3573,1.342,1.29,1.2363,1.181,1.1318,1.0871,1.047,0.9777,0.9292,0.8931,0.8115,0.7488,0.7018,0.6582,0.6348,0.6186,0.572,0.5663,0.0,0.0,0.0,0.0,0.0,0.2961,0.246,0.246,0.2164,0.1862,0.1877,0.1947,0.2086,0.212,0.2162,0.2135,0.2016,0.1614,0.1277,0.1143,0.0336,-0.0269,0.0,0.0,0.0,0.0269,0.1343,0.0,0.2484,0.2686,0.0,0.0,0.0,0.3892,0.4164,0.4233,0.0,0.0,0.43,0.43,0.43,0.4894,0.5286,0.5352,0.6009,0.64,0.6593,0.6859,0.712,0.7386,0.7902,0.7902,0.7451,0.8694,0.8952,0.8554,0.9344,0.9734,0.9792,1.0573,1.0772,1.0608,1.1259,1.1456,1.1358,1.1442,1.155,1.161,0.0,0.0,0.0,0.0,0.0,0.0,0.0,0.0,0.0,0.0,0.0,0.0,0.0,0.0,0.0,0.0,0.0,0.0,0.0,1.0049,1.0551,1.1073,1.1436,1.1905,1.2494,1.2549,1.281,1.331,1.3113,1.317,1.3367,1.2711,1.2129,1.1677,1.124,1.0659,0.9895,0.9569,0.8988,0.0,0.0,0.705,0.6519,0.6061,0.5821,0.5747,0.5228,0.5087,0.0,0.0,0.0,0.3572,0.3403,0.3014,0.2625,0.2406,0.0,0.1887,0.1914,0.1991,0.2134,0.2161,0.2195,0.2221,0.2221,0.1951,0.1614,0.1344,0.0605,0.0,0.0,0.0,0.0,0.0,0.0,0.0,0.2551,0.2753,0.3157,0.0,0.4028,0.0,0.4628,0.4628,0.4761,0.0,0.4764,0.4628,0.4628,0.5355,0.5815,0.6079,0.6535,0.7125,0.7767,0.7837,0.8037,0.8301,0.8759,0.8689,0.8366,0.9408,0.9664,0.9332,0.0,1.0611,1.08,1.1648,1.1966,1.2022,1.2522,1.2672,1.2597,1.2316,1.2319,1.2365,0.0,0.0,0.0,0.0,0.0,0.0,0.0,0.0,0.0,0.4428,0.4798,0.5131,0.0,0.0,0.0,0.0,0.0,0.0,0.0,0.0,1.0281,1.0851,1.0953,1.1326,1.2023,1.2034,1.2292,1.2879,1.2451,1.2461,1.2834,1.2236,1.1676,1.1109,1.1057,1.0311,0.9085,0.913,0.8547,0.7582,0.7002,0.6451,0.5959,0.0,0.5207,0.5147,0.4512,0.0,0.0,0.0,0.4791,0.3627,0.3123,0.2847,0.2569,0.2074,0.1894,0.1894,0.1955,0.2079,0.2143,0.2206,0.2221,0.2221,0.2221,0.2221,0.2018,0.1547,0.0,0.0,-0.0134,0.0,0.0336,-0.0134,0.0,0.1747,0.2417,0.2618,0.3088,0.4298,0.4431,0.4628,0.5156,0.5223,0.5422,0.5888,0.5554,0.5286,0.5286,0.5885,0.6478,0.7064,0.7068,0.7587,0.8624,0.8619,0.8952,0.9612,0.9612,0.9612,0.9734,1.0174,1.0364,1.0428,1.1358,0.0,1.2236,1.3147,1.3631,1.3914,1.3987,1.3928,1.38,1.3138,1.2844,1.2794,0.0,0.0,0.0,0.0,0.0,0.0,0.0,0.0,0.0,0.0,0.4272,0.4625,0.0,0.0,0.0,0.0,0.0,0.0,0.0,0.0,0.0,0.9778,1.0184,1.0865,1.1746,1.1562,1.183,1.2637,1.2263,1.1907,1.1597,1.1038,1.0542,1.0131,0.9658,0.9116,0.8482,0.7905,0.7364,0.6826,0.5809,0.5158,0.4693,0.4221,0.0,0.0,0.3737,0.0,0.0,0.4515,0.4574,0.4349,0.4343,0.3566,0.2681,0.2571,0.2232,0.1894,0.1955,0.2079,0.2143,0.2206,0.2221,0.2221,0.2221,0.2221,0.0,0.0,0.0,0.047,0.0403,0.047,0.0,0.0403,0.0,0.0,0.0,0.0,0.4228,0.0,0.0,0.0,0.0,0.0,0.0,0.0,0.0,0.6342,0.6203,0.7186,0.8172,0.8958,0.9022,0.9087,0.935,0.935,0.9606,1.018,1.018,1.0364,1.0737,1.0863,1.0863,1.0926,1.1344,0.0,1.171,1.2887,1.339,1.3502,1.4118,1.4194,1.3864,1.3727,1.3736,1.371,0.0,0.0,0.0,0.0,0.0,0.0,0.0,0.2544,0.2882,0.3126,0.3392,0.3923,0.4783,0.5427,0.5985,0.0,0.0,0.0,0.0,0.0,0.0,0.0,0.0,0.0,1.0587,1.0736,0.0,0.0,0.0,1.0839,1.0603,1.0048,0.9512,0.897,0.8714,0.8092,0.7176,0.6888,0.6384,0.5714,0.4953,0.4373,0.4009,0.0,0.0,0.0,0.0,0.0,0.0,0.3849,0.3849,0.3624,0.4012,0.3456,0.2625,0.235,0.2064,0.1894,0.1955,0.2079,0.2143,0.2206,0.2221,0.2221,0.2221,0.0,0.0,0.0,0.0,0.0807,0.0538,0.0,0.0,0.0,0.0,0.0,0.0,0.0,0.0,0.0,0.0,0.0,0.0,0.0,0.0,0.0,0.0,0.7195,0.6863,0.7972,0.8823,0.9221,0.9414,0.9484,0.9484,0.9484,0.9612,0.9862,0.9862,0.9989,1.0238,1.0737,1.0982,1.1045,1.1911,0.0,1.2573,1.3329,1.3761,1.395,1.4327,1.4387,1.4185,1.3965,1.4101,1.425,0.0,0.0,0.0,0.0,0.0,0.0,0.0,0.1809,0.2045,0.2338,0.252,0.3069,0.417,0.4995,0.5567,0.0,0.0,0.0,0.0,0.0,0.0,0.0,0.0,0.0,0.0,0.0,0.0,0.0,0.0,0.0,0.0,0.0,0.0,0.0,0.7582,0.6906,0.5786,0.5776,0.5307,0.0,0.0,0.3687,0.0,0.0,0.0,0.0,0.0,0.0,0.0,0.0,0.2905,0.2514,0.3125,0.2961,0.2404,0.1964,0.1828,0.1876,0.1936,0.1997,0.2123,0.2185,0.2211,0.2221,0.2221,0.2211,0.0,0.0,0.0,0.1124,0.0732,0.0,0.1268,0.0,0.0,0.0,0.0,0.0,0.0,0.0,0.0,0.0,0.0,0.0,0.0,0.0,0.0,0.0,0.7591,0.8565,0.9087,0.9087,0.935,0.9484,0.9484,0.9612,0.9734,0.9798,0.9926,1.0047,1.0174,1.0989,1.1365,1.1421,1.2605,0.0,0.0,1.3941,1.4258,1.4515,1.4515,1.4515,1.4469,1.4246,1.4459,1.4844,0.0,0.0,0.0,0.0,0.0,0.0,0.0,0.1464,0.1816,0.1883,0.1891,0.2135,0.2815,0.389,0.4696,0.0,0.0,0.0,0.0,0.0,0.0,0.0,0.0,0.0,0.0,0.0,0.0,0.0,0.0,0.0,0.0,0.0,0.0,0.0,0.0,0.0,0.4692,0.4288,0.0,0.0,0.0,0.0,0.0,0.0,0.0,0.0,0.0,0.0,0.0,0.0,0.0,0.1514,0.2127,0.213,0.1852,0.1797,0.0,0.0,0.1875,0.1935,0.1995,0.212,0.2179,0.2221,0.2221,0.0,0.0,0.0,0.1583,0.119,0.1222,0.0,0.0,0.0,0.0,0.3019,0.0,0.0,0.0,0.0,0.0,0.0,0.0,0.0,0.0,0.0,0.0,0.0,0.8823,0.9221,0.9484,0.9484,0.9484,0.9484,0.9484,0.9989,1.0428,1.0856,1.1365,1.1872,1.2313,1.2436,1.2436,1.2498,1.3147,0.0,0.0,1.4198,1.4446,1.4515,1.4515,1.4515,1.4565,1.4972,1.5409,1.5743,0.0,0.0,0.0,0.0,0.0,0.0,-0.0285,0.0194,0.0643,0.0954,0.1108,0.1408,0.1959,0.2536,0.3316,0.4529,0.0,0.0,0.0,0.0,0.0,0.0,0.0,0.0,0.0,0.0,0.0,0.0,0.0,0.0,0.0,0.0,0.0,0.0,0.0,0.0,0.0,0.0,0.0,0.0,0.0,0.0,0.0,0.0,0.0,0.0,0.0,0.0,0.0,0.0,0.0,0.0,0.157,0.157,0.0,0.0,0.1685,0.1696,0.1865,0.1899,0.1932,0.1993,0.2091,0.2109,0.2109,0.0,0.0,0.2071,0.1864,0.167,0.169,0.1783,0.1811,0.0,0.2326,0.0,0.3882,0.0,0.0,0.0,0.0,0.0,0.0,0.0,0.0,0.0,0.0,0.0,0.946,0.9792,0.9989,0.9989,1.0238,1.0421,1.0421,1.0611,1.08,1.0982,1.124,1.1428,1.1677,1.1996,1.212,1.2182,1.3086,0.0,0.0,1.4198,1.4675,1.4893,1.4893,1.5069,1.5362,1.5526,1.5931,1.6368,0.0,0.0,0.0,0.0,0.0,-0.1484,-0.1568,-0.1207,-0.0821,-0.0415,-0.0208,0.0104,0.0673,0.088,0.1476,0.2786,0.4095,0.0,0.0,0.0,0.0,0.0,0.0,0.0,0.0,0.0,0.7334,0.6772,0.6494,0.0,0.0,0.0,0.0,0.0,0.0,0.0,0.0,0.0,0.0,0.0,0.0,0.0,0.0,0.0,0.0,0.0,0.0,0.0,0.0,0.0,0.0,0.0,0.0,0.0672,0.0784,0.0,0.1572,0.1636,0.1787,0.1868,0.1891,0.1935,0.1959,0.1971,0.0,0.0,0.0,0.1947,0.1933,0.1925,0.1941,0.1995,0.2106,0.2124,0.2375,0.2887,0.3751,0.0,0.0,0.0,0.0,0.0,0.0,0.0,0.0,0.0,0.0,0.0,0.9907,1.0295,1.0491,1.0491,1.0863,1.0982,1.0982,1.1178,1.124,1.124,1.1428,1.149,1.149,1.1872,1.2058,1.2236,1.326,0.0,0.0,1.4606,1.5128,1.541,1.541,1.5584,1.5931,1.6046,1.6343,1.6627,0.0,0.0,0.0,0.0,0.0,0.0,-0.2672,-0.2542,-0.2468,-0.2498,-0.2286,-0.1949,-0.1335,-0.1165,-0.0874,-0.0369,0.1985,0.0,0.0,0.0,0.0,0.0,0.0,0.0,0.0,0.0,0.6208,0.6203,0.5348,0.4364,0.3323,0.2728,0.0,0.0,0.0,0.0,0.0,0.0,0.0,0.0,0.0,0.0,0.0,0.0,0.0,0.0,0.0,0.0,0.0,0.0,0.0,0.0,0.0,-0.0894,-0.0615,0.0897,0.1459,0.1572,0.1629,0.1723,0.1882,0.1882,0.1928,0.1971,0.0,0.0,0.0,0.171,0.1783,0.1816,0.1872,0.1932,0.1993,0.2117,0.218,0.2488,0.3353,0.0,0.0,0.0,0.0,0.0,0.0,0.0,0.0,0.0,0.0,0.0,1.0238,1.0737,1.0982,1.0982,1.0982,1.0982,1.0982,1.1553,1.1802,1.1802,1.2313,1.256,1.256,1.256,1.2744,0.0,0.0,0.0,0.0,1.5526,1.5874,1.5874,1.5874,1.5874,1.5931,1.64,1.657,1.6694,0.0,0.0,0.0,0.0,0.0,0.0,0.0,-0.3452,-0.3135,-0.2837,-0.2728,-0.2561,-0.228,-0.2223,-0.2103,-0.1864,-0.0053,0.0,0.0,0.0,0.0,0.0,0.0,0.0,0.0,0.0,0.3399,0.3067,0.236,0.1685,0.1046,0.0498,-0.01,-0.0897,0.0,0.0,0.0,0.0,0.0,0.0,0.0,0.0,0.0,0.0,0.0,0.0,0.0,0.0,0.0,0.0,0.0,0.0,0.0,0.0,0.0,-0.0503,-0.0168,0.0112,0.0617,0.0847,0.0968,0.1367,0.1493,0.1504,0.1446,0.0,0.0,0.1597,0.164,0.1701,0.1871,0.1931,0.1992,0.2117,0.218,0.2554,0.0,0.0,0.0,0.0,0.0,0.0,0.0,0.0,0.0,0.0,0.0,0.0,1.0737,1.0919,1.1178,1.1553,1.1926,1.212,1.212,1.2243,1.2367,1.2367,1.2498,1.2683,1.2867,1.2867,1.3042,0.0,0.0,0.0,0.0,1.4902,1.5536,1.6343,1.6046,1.6285,1.6864,1.7043,1.7099,1.7099,0.0,0.0,0.0,0.0,0.0,0.0,0.0,-0.4869,-0.4546,-0.4484,-0.4216,-0.4051,-0.4158,-0.4155,-0.4158,-0.4051,-0.3032,0.0,0.0,0.0,0.0,0.0,0.0,0.0,0.1987,0.1609,0.1267,0.1017,0.0154,-0.0517,-0.1038,-0.1764,-0.2437,-0.3007,-0.3585,0.0,0.0,0.0,0.0,0.0,0.0,0.0,-0.4103,0.0,0.0,0.0,0.0,0.0,0.0,0.0,0.0,0.0,0.0,0.0,0.0,0.0,-0.1732,-0.1397,-0.028,0.0168,0.0505,0.0842,0.1122,0.0,0.0,0.0,0.1403,0.1459,0.1587,0.1724,0.1875,0.195,0.2145,0.2441,0.2573,0.3019,0.0,0.0,0.0,0.0,0.0,0.0,0.0,0.0,0.0,0.0,0.0,0.0,1.1233,1.1303,1.1553,1.2058,1.2436,1.2621,1.2621,1.2621,1.2621,1.2621,1.2621,1.2683,1.2867,1.292,1.3277,0.0,0.0,0.0,0.0,1.5546,1.6066,1.6807,1.6513,1.6807,1.7278,1.7278,1.7278,1.7278,0.0,0.0,0.0,0.0,0.0,0.0,0.0,-0.6583,-0.6529,-0.7058,-0.6416,-0.61,-0.6588,-0.6642,-0.6642,-0.6642,0.0,0.0,0.0,0.0,0.0,0.0,0.0,0.0,-0.0302,-0.0311,-0.0369,-0.0369,-0.152,-0.2369,-0.2925,-0.3978,-0.4867,-0.5475,-0.5475,-0.5529,0.0,0.0,0.0,0.0,0.0,-0.6471,0.0,0.0,0.0,0.0,0.0,0.0,0.0,0.0,0.0,0.0,0.0,0.0,0.0,0.0,0.0,0.0,0.0,-0.0336,0.0224,0.0336,0.0785,0.1178,0.1122,0.1347,0.0,0.1351,0.1614,0.1884,0.1892,0.2048,0.2386,0.3035,0.3364,0.0,0.0,0.554,0.0,0.0,0.0,0.0,0.0,0.0,0.0,0.0,0.0,0.0,1.174,1.1802,1.2058,1.256,1.2621,1.2621,1.2621,1.2621,1.2621,1.2621,1.2621,1.2621,1.2683,1.2989,1.3511,0.0,0.0,0.0,0.0,1.7043,1.7222,1.7278,1.7278,1.7278,1.7278,1.7278,1.7278,1.7278,0.0,0.0,0.0,0.0,0.0,0.0,0.0,0.0,0.0,0.0,-0.7224,-0.7171,-0.7278,-0.7278,-0.7224,0.0,0.0,0.0,0.0,0.0,0.0,0.0,0.0,0.0,-0.3072,-0.3528,-0.3761,-0.3761,-0.4515,-0.4925,-0.5097,-0.532,-0.6023,-0.6977,-0.6977,-0.7511,0.0,0.0,0.0,0.0,-0.8513,-0.8127,0.0,0.0,0.0,0.0,-0.5714,-0.5441,0.0,0.0,0.0,0.0,0.0,0.0,0.0,0.0,-0.3244,-0.3019,-0.2519,0.0,-0.1175,-0.0168,0.0224,0.0393,0.0,0.101,0.1131,0.1334,0.1465,0.1614,0.2003,0.2488,0.2918,0.3177,0.3799,0.4544,0.5474,0.0,0.0,0.0,0.0,0.0,0.0,0.0,0.0,0.0,0.0,1.1233,1.174,1.1802,1.2058,1.256,1.2621,1.2621,1.2621,1.2621,1.2621,1.2621,1.2621,1.2858,1.3268,1.3743,1.4273,0.0,0.0,0.0,1.657,1.6332,1.6627,1.7278,1.692,1.6987,1.7278,1.7278,1.7278,1.7278,0.0,0.0,0.0,0.0,0.0,0.0,0.0,0.0,0.0,0.0,0.0,-0.8587,-0.8646,-0.8797,0.0,0.0,0.0,0.0,0.0,0.0,0.0,0.0,0.0,-0.5337,-0.5175,-0.5354,-0.5416,-0.5475,-0.6401,-0.6886,-0.6945,-0.7475,-0.8053,-0.8633,-0.8633,-0.9058,0.0,0.0,0.0,0.0,-0.9404,0.0,0.0,0.0,0.0,0.0,-0.6681,-0.6308,0.0,-0.5764,-0.5328,-0.4893,0.0,0.0,0.0,0.0,-0.3413,-0.3302,-0.3193,-0.2575,-0.1734,-0.0672,-0.0224,0.0168,0.0785,0.0965,0.1096,0.1351,0.1508,0.1676,0.205,0.2668,0.3294,0.0,0.4544,0.0,0.0,0.0,0.0,0.0,0.0,0.0,0.0,0.0,0.0,0.0,0.0,1.2029,1.2127,1.2182,1.2305,1.256,1.2621,1.2621,1.2621,1.2621,1.2621,1.2621,1.2621,1.2858,1.3277,1.3683,1.4401,0.0,0.0,0.0,1.692,1.6627,1.6864,1.7278,1.7043,1.7099,1.7278,1.7278,1.7278,1.7278,0.0,0.0,0.0,0.0,0.0,0.0,0.0,0.0,0.0,0.0,0.0,0.0,0.0,0.0,0.0,0.0,0.0,0.0,0.0,0.0,0.0,0.0,0.0,-0.734,-0.7026,-0.672,-0.6622,-0.6637,-0.7841,-0.8423,-0.8593,-0.9488,-0.9961,-1.0064,-1.0174,-1.0226,0.0,0.0,0.0,-1.03,-1.0021,0.0,0.0,0.0,0.0,0.0,0.0,0.0,0.0,-0.6312,-0.5928,-0.5597,-0.5105,0.0,0.0,0.0,0.0,0.0,-0.3413,-0.2685,-0.1846,-0.1118,-0.0448,0.0168,0.0785,0.1036,0.1239,0.1364,0.1737,0.2,0.2203,0.2969,0.0,0.0,0.0,0.0,0.7613,0.0,0.0,0.0,0.0,0.0,0.0,0.0,0.0,0.0,0.0,1.2957,1.2663,1.2653,1.2621,1.2621,1.2621,1.2621,1.2621,1.2621,1.2621,1.2621,1.2621,1.2744,1.3103,1.345,1.4282,1.541,0.0,0.0,1.7222,1.7278,1.7278,1.7278,1.7278,1.7278,1.7278,1.7278,1.7278,1.7278,0.0,0.0,0.0,0.0,0.0,0.0,0.0,0.0,0.0,0.0,0.0,0.0,0.0,0.0,0.0,0.0,0.0,0.0,0.0,0.0,0.0,-1.1783,-1.045,-0.9429,-0.8823,-0.9176,-0.9176,-0.8725,-0.9392,-0.9695,-0.9747,-0.9555,-0.971,-1.0218,-1.0795,-1.1318,-1.1569,-1.1277,-1.142,-1.1719,-1.1378,0.0,0.0,0.0,0.0,0.0,0.0,0.0,0.0,-0.7664,-0.6966,-0.6421,-0.6195,0.0,0.0,0.0,0.0,0.0,-0.3244,-0.2685,-0.2015,-0.1229,-0.0504,0.0168,0.0785,0.1036,0.1247,0.1461,0.2138,0.2786,0.2985,0.4135,0.5147,0.0,0.0,0.0,0.0,0.0,0.0,0.0,0.0,0.0,0.0,0.0,0.0,0.0,0.0,1.3068,1.3012,1.2726,1.2621,1.2621,1.2621,1.2621,1.2621,1.2621,1.2621,1.2621,1.2621,1.292,1.345,1.3914,1.451,1.5294,0.0,1.657,1.6751,1.7155,1.7278,1.7278,1.7278,1.7278,1.7278,1.7278,1.7278,1.7278,0.0,0.0,0.0,0.0,0.0,0.0,0.0,0.0,0.0,0.0,0.0,0.0,0.0,0.0,0.0,0.0,0.0,0.0,0.0,0.0,0.0,-1.2764,-1.2058,-1.1233,-1.0312,-1.0441,-1.0491,-1.034,-1.1104,-1.1469,-1.1469,-1.1322,-1.1336,-1.1351,-1.1769,-1.2076,-1.2224,-1.2026,-1.2076,-1.2274,0.0,0.0,0.0,0.0,0.0,0.0,0.0,0.0,0.0,0.0,-0.7616,-0.7074,-0.6416,0.0,0.0,0.0,0.0,0.0,-0.3413,-0.2573,-0.1621,-0.1285,-0.051,0.0345,0.0922,0.1257,0.1491,0.1637,0.2325,0.2975,0.3143,0.0,0.5745,0.6342,0.0,0.0,0.0,0.0,0.0,0.0,0.0,0.0,0.0,0.0,0.0,0.0,0.0,0.0,1.3108,1.2933,1.2758,1.2629,1.2621,1.2621,1.2621,1.2621,1.2621,1.2621,1.2744,1.3216,1.3914,1.4282,1.4991,1.5989,0.0,1.6751,1.6976,1.7211,1.7278,1.7278,1.7278,1.7278,1.7278,1.7278,1.7278,1.7278,0.0,0.0,0.0,0.0,0.0,0.0,0.0,0.0,0.0,0.0,0.0,0.0,0.0,0.0,0.0,0.0,0.0,0.0,0.0,0.0,-1.3447,-1.3334,-1.3104,-1.2491,-1.1366,-1.1429,-1.1517,-1.1534,-1.251,-1.2922,-1.2804,-1.2952,-1.2763,-1.2364,-1.2469,-1.2529,-1.248,-1.248,-1.248,-1.248,0.0,0.0,0.0,0.0,0.0,0.0,0.0,0.0,0.0,0.0,0.0,0.0,0.0,0.0,0.0,-0.4346,-0.3855,-0.3638,-0.3583,-0.246,-0.1288,-0.1242,-0.0404,0.0588,0.106,0.1421,0.1675,0.1997,0.2699,0.3422,0.3682,0.4973,0.0,0.7136,0.0,0.0,0.0,0.0,0.0,0.0,0.0,0.0,0.0,0.0,0.0,0.0,0.0,0.0,1.3354,1.3179,1.2965,1.2757,1.2669,1.2621,1.2621,1.2621,1.2621,1.2621,1.292,1.3459,1.4163,1.4588,1.541,1.6343,1.6513,1.6807,1.7155,1.7278,1.7278,1.7278,1.7278,1.7278,1.7278,1.7278,1.7278,1.7278,0.0,0.0,0.0,0.0,0.0,0.0,0.0,0.0,0.0,0.0,0.0,0.0,0.0,0.0,0.0,0.0,0.0,0.0,0.0,0.0,-1.4376,-1.4212,-1.3647,-1.2871,-1.1765,-1.2545,-1.2715,-1.2245,-1.3236,-1.3485,-1.3077,-1.3223,-1.2964,-1.2504,-1.265,-1.2627,-1.248,-1.248,-1.248,-1.2529,-1.2578,0.0,0.0,0.0,0.0,0.0,0.0,0.0,0.0,0.0,0.0,0.0,0.0,0.0,-0.5764,-0.4904,-0.4242,-0.3741,-0.3469,-0.2404,-0.1295,-0.1161,-0.0117,0.0943,0.112,0.1421,0.1803,0.2638,0.3551,0.4417,0.0,0.6273,0.7267,0.0,0.0,0.0,0.0,0.0,0.0,0.0,0.0,0.0,0.0,0.0,0.0,0.0,0.0,0.0,1.4037,1.3441,1.3076,1.3052,1.2734,1.2621,1.2621,1.2621,1.2621,1.2629,1.3216,1.364,1.407,1.4824,1.5352,1.571,1.6343,1.6637,1.6684,1.7099,1.7278,1.7278,1.7278,1.7278,1.7278,1.7278,1.7278,1.7278,0.0,0.0,0.0,0.0,0.0,0.0,0.0,0.0,0.0,0.0,0.0,0.0,0.0,0.0,0.0,0.0,0.0,0.0,0.0,-1.4937,-1.4846,-1.4362,-1.4258,-1.3963,-1.3472,-1.3817,-1.4076,-1.4179,-1.4605,-1.4514,-1.4025,-1.3771,-1.3437,-1.3016,-1.2868,-1.2783,-1.2735,-1.2735,-1.2735,-1.2725,-1.2783,-1.2774,0.0,0.0,0.0,0.0,0.0,0.0,0.0,0.0,-0.7996,-0.7509,-0.6691,-0.5932,-0.5167,-0.4463,-0.3968,-0.358,-0.3016,-0.2068,-0.1183,-0.064,0.0239,0.1037,0.1366,0.1993,0.2578,0.2971,0.4119,0.0,0.0,0.0,0.7569,0.0,0.0,0.0,0.0,0.0,0.0,0.0,0.0,0.0,0.0,0.0,0.0,0.0,0.0,0.0,1.4125,1.387,1.3529,1.3108,1.2957,1.279,1.2621,1.2621,1.2621,1.2621,1.2981,1.339,1.3855,1.4874,1.5517,1.5968,1.6684,1.7043,1.7043,1.7222,1.7278,1.7278,1.7278,1.7278,1.7278,1.7278,1.7278,1.7278,0.0,0.0,0.0,0.0,0.0,0.0,0.0,0.0,0.0,0.0,0.0,0.0,0.0,0.0,0.0,0.0,0.0,0.0,-1.5299,-1.5522,-1.5478,-1.504,-1.4937,-1.4898,-1.4925,-1.4944,-1.5045,-1.523,-1.532,-1.5138,-1.4654,-1.4173,-1.3748,-1.3333,-1.3017,-1.2881,-1.2881,-1.2881,-1.2881,-1.2881,-1.2881,-1.2881,0.0,0.0,0.0,0.0,0.0,0.0,0.0,0.0,-0.7937,-0.723,-0.6421,-0.5605,-0.4842,-0.4187,-0.3691,-0.3188,-0.2625,-0.1744,-0.0801,-0.0236,0.0672,0.1576,0.1945,0.2518,0.3088,0.3749,0.4979,0.621,0.7147,0.0,0.0,0.0,0.0,0.0,0.0,0.0,0.0,0.0,0.0,0.0,0.0,0.0,0.0,0.0,0.0,0.0,0.0,1.4172,1.3902,1.3425,1.3306,1.3084,1.2734,1.2734,1.2795,1.292,1.3042,1.3329,1.3657,1.4982,1.5748,1.6083,1.692,1.7278,1.7278,1.7278,1.7278,1.7278,1.7278,1.7278,1.7278,1.7278,1.7278,1.7278,0.0,0.0,0.0,0.0,0.0,0.0,0.0,0.0,0.0,0.0,0.0,0.0,0.0,0.0,0.0,0.0,0.0,0.0,-1.7157,-1.6625,-1.6312,-1.6312,-1.5656,-1.5498,-1.5903,-1.5792,-1.5469,-1.5018,-1.5272,-1.5195,-1.4775,-1.4336,-1.3916,-1.3486,-1.3066,-1.2881,-1.2881,-1.2881,-1.2881,-1.2881,-1.2881,-1.2881,-1.2881,0.0,0.0,0.0,0.0,0.0,0.0,0.0,-0.7984,-0.7331,-0.6475,-0.571,-0.4944,-0.4239,-0.3405,-0.2681,-0.2512,-0.1372,-0.0177,0.0061,0.1257,0.2526,0.2937,0.2889,0.322,0.5017,0.6285,0.7086,0.727,0.0,0.0,0.0,0.0,0.0,0.0,0.0,0.0,0.0,0.0,0.0,0.0,0.0,0.0,0.0,0.0,0.0,0.0,1.4307,1.4117,1.4109,1.3775,1.3433,1.31,1.3092,1.3216,1.3511,1.3511,1.3511,1.3571,1.5167,1.5874,1.5931,1.6864,1.7278,1.7278,1.7278,1.7278,1.7278,1.7278,1.7278,1.7278,1.7278,1.7278,1.7334,0.0,0.0,0.0,0.0,0.0,0.0,0.0,0.0,0.0,0.0,0.0,0.0,0.0,0.0,0.0,0.0,0.0,0.0,-1.6491,-1.6778,-1.6723,-1.6262,-1.625,-1.6308,-1.6338,-1.5892,-1.5733,-1.5749,-1.5776,-1.5444,-1.4943,-1.4336,-1.3916,-1.3486,-1.3066,-1.2881,-1.2881,-1.2881,-1.2881,-1.2881,-1.2881,-1.2676,-1.2323,0.0,0.0,0.0,0.0,0.0,0.0,0.0,0.0,0.0,-0.6317,-0.5332,-0.4294,-0.4076,-0.3294,-0.24,-0.1843,-0.0956,0.0115,0.1333,0.198,0.2713,0.4175,0.4484,0.4912,0.6271,0.6802,0.7333,0.8289,0.0,0.0,0.0,0.0,0.0,0.0,0.0,0.0,0.0,0.0,0.0,0.0,0.0,0.0,0.0,0.0,0.0,0.0,1.4538,1.4574,1.4848,1.4271,1.4053,1.4227,1.3902,1.3773,1.3842,1.4065,1.4231,1.4231,1.5216,1.5796,1.5931,1.6729,1.7145,1.7278,1.7278,1.7278,1.7278,1.7278,1.7278,1.7278,1.7278,1.7534,1.7843,0.0,0.0,0.0,0.0,0.0,0.0,0.0,0.0,0.0,0.0,-1.7611,-1.757,0.0,0.0,0.0,0.0,0.0,0.0,-1.6735,-1.7102,-1.7115,-1.662,-1.6693,-1.6585,-1.6244,-1.6081,-1.588,-1.5639,-1.5371,-1.4984,-1.4385,-1.4004,-1.3662,-1.3242,-1.2998,-1.2881,-1.2881,-1.2881,-1.2881,-1.2861,-1.2695,-1.233,-1.1868,0.0,0.0,0.0,0.0,0.0,0.0,0.0,0.0,0.0,-0.6139,-0.5116,-0.3968,-0.363,-0.2847,-0.1786,-0.0782,0.0056,0.0923,0.2426,0.2973,0.3678,0.5439,0.0,0.0,0.0,0.7227,0.7819,0.8912,0.0,0.0,0.0,0.0,0.0,0.0,0.0,0.0,0.0,0.0,0.0,0.0,0.0,0.0,0.0,0.0,0.0,0.0,1.4569,1.468,1.4935,1.4525,1.4356,1.4472,1.4181,1.4258,1.4681,1.4716,1.4948,1.5486,1.5585,1.5671,1.5853,1.6662,1.7134,1.7278,1.7278,1.7278,1.7278,1.7278,1.7278,1.7278,1.7278,1.7634,1.8093,0.0,0.0,0.0,0.0,0.0,0.0,0.0,0.0,0.0,-1.8439,-1.8361,-1.8282,0.0,0.0,0.0,-1.8189,-1.8043,-1.7828,-1.7625,-1.7585,-1.7516,-1.7282,-1.7044,-1.656,-1.5834,-1.6232,-1.5932,-1.4925,-1.4578,-1.4083,-1.3557,-1.3506,-1.3281,-1.2881,-1.2881,-1.2881,-1.2881,-1.2881,-1.2881,-1.2842,-1.2451,-1.1977,-1.1472,-1.0922,0.0,0.0,0.0,0.0,0.0,0.0,0.0,0.0,-0.5892,-0.4969,-0.384,-0.3125,-0.2124,-0.1006,0.0335,0.1258,0.2124,0.329,0.421,0.0,0.6515,0.6962,0.7061,0.7078,0.0,0.0,0.0,0.0,0.0,0.0,0.0,0.0,0.0,0.0,0.0,0.0,0.0,0.0,0.0,0.0,0.0,0.0,0.0,0.0,0.0,1.4569,1.4641,1.4713,1.4641,1.4482,1.4226,1.4194,1.4689,1.5735,1.5331,1.5808,1.7028,1.6085,1.5671,1.5728,1.6595,1.7078,1.7278,1.7278,1.7278,1.7278,1.7278,1.7278,1.7278,1.7278,1.7634,1.8093,0.0,0.0,0.0,0.0,0.0,0.0,0.0,0.0,-1.8149,-1.8478,-1.8478,-1.84,-1.8282,-1.8242,0.0,-1.8279,-1.824,-1.8266,-1.8433,-1.8369,-1.8187,-1.7828,-1.7393,-1.6803,-1.6066,-1.611,-1.5588,-1.4393,-1.4868,-1.4625,-1.3791,-1.3608,-1.3281,-1.2881,-1.2881,-1.2881,-1.2881,-1.2881,-1.2881,-1.2871,-1.2783,-1.2043,-1.098,-1.0845,-0.9995,0.0,0.0,0.0,0.0,0.0,0.0,0.0,-0.585,-0.4887,-0.372,-0.3104,-0.2124,-0.1006,0.0335,0.1293,0.235,0.3876,0.5171,0.6113,0.6457,0.6898,0.7287,0.7577,0.0,0.0,0.0,0.0,0.0,0.0,0.0,0.0,0.0,0.0,0.0,0.0,0.0,0.0,0.0,0.0,0.0,0.0,0.0,0.0,1.4569,1.4569,1.4919,1.5551,1.4919,1.4887,1.5432,1.5068,1.5281,0.0,1.623,1.674,1.7492,1.6619,1.6296,1.6389,1.6842,1.7011,1.7078,1.7211,1.7278,1.7278,1.7278,1.7278,1.7278,1.7278,1.7634,1.8093,0.0,0.0,0.0,0.0,0.0,0.0,0.0,0.0,-1.9111,-1.8729,-1.8503,-1.84,-1.8528,-1.8347,0.0,0.0,-1.8293,-1.8358,-1.8602,-1.8266,-1.7908,-1.7557,-1.724,-1.6765,-1.6051,-1.6281,-1.57,-1.4326,-1.4854,-1.4573,-1.357,-1.3402,-1.3195,-1.2978,-1.2929,-1.2881,-1.2881,-1.2881,-1.2881,-1.2861,-1.2656,-1.1854,-1.0781,-1.0552,-0.9715,-0.8697,-0.8398,0.0,0.0,0.0,0.0,0.0,0.0,0.0,-0.3629,-0.2707,-0.1899,-0.0894,0.106,0.2011,0.2839,0.465,0.0,0.6436,0.6911,0.7432,0.7985,0.0,0.0,0.0,0.0,0.0,0.0,0.0,0.0,0.0,0.0,0.0,0.0,0.0,0.0,0.0,0.0,0.0,0.0,0.0,0.0,1.4569,1.4569,1.4569,1.4776,1.5196,1.4848,1.4991,1.5762,1.5566,1.6005,1.7082,1.6992,1.7203,1.7709,1.7015,1.6686,1.6627,1.674,1.6899,1.7011,1.7134,1.7211,1.7278,1.7278,1.7278,1.7278,1.7278,1.7634,1.8147,0.0,0.0,0.0,0.0,0.0,0.0,0.0,0.0,0.0,-1.8941,-1.8503,-1.8425,-1.886,-1.8528,-1.8425,0.0,0.0,0.0,-1.8745,-1.8094,-1.7557,-1.7282,-1.7115,-1.6778,-1.6175,-1.6436,-1.5901,-1.4512,-1.4686,-1.4247,-1.3218,-1.3113,-1.3085,-1.3085,-1.2929,-1.2881,-1.2881,-1.2881,-1.2881,-1.2852,-1.249,-1.1724,-1.0716,-1.0305,-0.9493,-0.85,-0.8308,-0.8075,-0.7706,-0.672,0.0,0.0,0.0,0.0,-0.3545,-0.23,-0.1667,-0.0782,0.1673,0.2747,0.354,0.5318,0.6076,0.0,0.7464,0.8077,0.8774,0.0,0.0,0.0,0.0,0.0,0.0,0.0,0.0,0.0,0.0,0.0,0.0,0.0,0.0,0.0,0.0,0.0,0.0,0.0,0.0,1.4569,1.4569,1.4569,1.4641,1.4776,1.4784,1.5196,1.5965,1.5974,1.6664,1.8027,1.774,1.767,1.7833,1.745,1.7033,1.6696,1.6612,1.674,1.6955,1.7011,1.7078,1.7267,1.7278,1.7278,1.7334,1.7379,1.7744,1.8201,0.0,0.0,0.0,0.0,0.0,0.0,0.0,0.0,0.0,0.0,-1.8517,-1.8581,-1.8874,-1.8822,-1.9011,-1.9493,-1.9508,-1.9581,-1.9777,0.0,0.0,-1.8305,-1.7598,-1.7031,-1.6791,-1.6398,-1.5732,-1.4812,-1.4455,-1.3931,0.0,0.0,-1.3036,-1.2929,-1.2929,-1.2881,-1.2881,-1.2881,-1.2881,-1.2871,-1.2812,-1.1927,-1.0607,-1.0556,-0.9754,-0.8651,-0.8249,-0.8256,-0.8261,-0.6886,-0.6088,0.0,0.0,0.0,0.0,-0.2169,-0.1584,-0.0838,0.1174,0.2906,0.44,0.0,0.6502,0.7129,0.0,0.0,0.0,0.0,0.0,0.0,0.0,0.0,0.0,0.0,0.0,0.0,0.0,0.0,0.0,0.0,0.0,0.0,0.0,0.0,0.0,0.0,1.4569,1.4569,1.4569,1.4569,1.4919,1.5621,1.5621,1.5965,1.6724,1.6724,1.7139,1.8037,1.8593,1.8668,1.8288,1.8226,1.774,1.6922,1.6691,1.6627,1.6684,1.6899,1.7011,1.7078,1.7211,1.7278,1.739,1.7843,1.8038,1.8201,0.0,0.0,0.0,0.0,0.0,0.0,0.0,0.0,0.0,0.0,0.0,-1.8347,-1.8874,-1.8707,-1.8745,-1.9199,-1.9325,-1.931,-1.9236,-1.9058,-1.8703,-1.8108,-1.776,-1.7365,-1.6918,-1.668,-1.6182,-1.5389,-1.4858,-1.4258,0.0,-1.3258,-1.3085,0.0,0.0,-1.2881,-1.2881,-1.2881,-1.2735,-1.2421,-1.2353,-1.1536,-1.035,-1.03,-0.9706,-0.8936,-0.871,-0.8591,-0.8346,-0.6794,-0.6012,-0.5494,-0.4443,0.0,0.0,0.0,-0.1397,-0.0327,0.1831,0.3492,0.4819,0.0,0.64,0.7206,0.7918,0.0,0.0,0.0,0.0,0.0,0.0,0.0,0.0,0.0,0.0,0.0,0.0,0.0,0.0,0.0,0.0,0.0,0.0,0.0,0.0,0.0,1.4991,1.5267,1.5267,1.5683,1.6035,1.6385,1.6455,1.6793,1.7482,1.755,1.7901,1.8654,1.8931,1.8961,1.8754,1.8495,1.803,1.7337,1.6992,1.6911,1.7006,1.6914,1.6909,1.7011,1.7211,1.7278,1.7334,1.759,1.7843,1.8201,0.0,0.0,0.0,0.0,0.0,0.0,0.0,0.0,0.0,0.0,0.0,-1.8149,-1.8822,0.0,0.0,0.0,-1.925,-1.9213,-1.8921,-1.9072,-1.8831,-1.8028,-1.7828,-1.7516,-1.6918,-1.6748,-1.6337,-1.57,-1.5028,0.0,-1.3715,-1.3135,-1.2809,0.0,-1.2714,-1.2667,0.0,0.0,0.0,-1.181,-1.1674,-1.1015,-1.0064,-0.9969,0.0,-0.9061,-0.9008,-0.8709,-0.8215,-0.6723,-0.5952,-0.5386,-0.4174,0.0,0.0,0.0,0.0,0.0267,0.2404,0.3707,0.4657,0.5563,0.6411,0.7354,0.0,0.0,0.0,0.0,0.0,0.0,0.0,0.0,0.0,0.0,0.0,0.0,0.0,0.0,0.0,0.0,0.0,0.0,0.0,0.0,0.0,0.0,1.5133,1.548,1.548,1.6245,1.6733,1.6862,1.707,1.755,1.824,1.8307,1.8586,1.9075,1.9075,1.9075,1.9054,1.8713,1.8382,1.804,1.7399,1.7272,1.7361,1.7074,1.7045,1.7127,1.7255,1.7278,1.7334,1.7656,1.7963,1.8429,0.0,0.0,0.0,0.0,0.0,0.0,0.0,0.0,0.0,0.0,0.0,-1.8175,-1.8817,-1.8893,-1.9095,-1.969,-1.9884,-1.9884,-1.9762,-1.9362,-1.8898,-1.8461,-1.7988,0.0,-1.6918,-1.6349,-1.5844,-1.5433,0.0,0.0,-1.3035,-1.2487,-1.2041,-1.1694,-1.208,-1.193,-1.1498,0.0,0.0,-1.1065,-1.1065,-1.0559,-0.9814,0.0,0.0,0.0,0.0,0.0,-0.7759,-0.6721,-0.5891,-0.5149,0.0,0.0,0.0,0.0,0.0,0.0,0.0,0.2936,0.0,0.5722,0.6867,0.0,0.0,0.0,0.0,0.0,0.0,0.0,0.0,0.0,0.0,0.0,0.0,0.0,0.0,0.0,0.0,0.0,0.0,0.0,0.0,0.0,0.0,0.0,0.0,1.4641,1.4641,1.5409,1.6175,1.6862,1.755,1.8307,1.9075,1.9065,1.9065,1.9075,1.9075,1.9075,1.9075,1.9044,1.9023,1.8951,1.8081,1.7698,1.7657,1.7501,1.7488,1.7435,1.734,1.7278,1.7434,1.8506,1.8934,1.9093,0.0,0.0,0.0,0.0,0.0,0.0,0.0,0.0,0.0,0.0,0.0,0.0,0.0,-1.8305,-1.8563,-1.9169,-1.969,-1.9919,-1.9797,-1.942,-1.8959,-1.85,-1.7988,-1.7434,-1.6918,-1.662,-1.6318,0.0,0.0,-1.3894,-1.3542,-1.2361,-1.1562,-1.1162,-1.1602,-1.1681,-1.1368,-1.1302,0.0,0.0,0.0,0.0,0.0,0.0,0.0,0.0,0.0,0.0,0.0,0.0,0.0,0.0,0.0,0.0,0.0,0.0,0.0,0.1237,0.0,0.0,0.0,0.5223,0.6534,0.7643,0.0,0.0,0.0,0.0,0.0,0.0,0.0,0.0,0.0,0.0,0.0,0.0,0.0,0.0,0.0,0.0,0.0,0.0,0.0,0.0,0.0,0.0,0.0,0.0,1.5338,1.6105,1.6862,1.755,1.7833,1.8375,1.9065,1.9075,1.9075,1.9075,1.9075,1.9075,1.9075,1.9075,1.9075,1.9054,1.8733,1.8423,1.8112,1.7842,1.7666,1.7509,1.7561,1.7473,1.7334,1.7767,1.8344,1.904,0.0,0.0,0.0,0.0,0.0,0.0,0.0,0.0,0.0,-1.7625,0.0,0.0,0.0,0.0,-1.8187,-1.8755,-1.9221,-1.9472,-1.9384,-1.9147,-1.8769,-1.8266,-1.7678,-1.7102,-1.6565,-1.6397,-1.6086,0.0,0.0,0.0,0.0,-1.1938,-1.1113,-1.0632,-1.0964,-1.101,0.0,0.0,0.0,-0.9762,0.0,0.0,-0.885,0.0,0.0,0.0,0.0,0.0,0.0,0.0,0.0,0.0,0.0,0.0,0.0,0.0,0.0,0.0,0.2271,0.0,0.0,0.0,0.0,0.7221,0.0,0.0,0.0,0.0,0.0,0.0,0.0,0.0,0.0,0.0,0.0,0.0,0.0,0.0,0.0,0.0,0.0,0.0,0.0,0.0,0.0,0.0,0.0,0.0,1.5409,1.6105,1.7001,1.7969,1.824,1.8586,1.9075,1.9075,1.9075,1.9075,1.9075,1.9075,1.9075,1.9075,1.9075,1.9075,1.9075,1.8889,1.8643,1.8249,1.807,1.7967,1.7916,1.7748,1.7575,1.7947,1.8495,1.904,0.0,0.0,0.0,0.0,0.0,0.0,0.0,0.0,-1.7199,-1.7199,0.0,0.0,0.0,0.0,0.0,-1.85,-1.85,-1.85,-1.8592,-1.85,-1.8226,-1.772,-1.7036,-1.6415,-1.5894,-1.5611,-1.4972,0.0,-1.3871,-1.3095,0.0,0.0,-1.0593,-1.0079,-1.0079,-1.0003,-0.9802,0.0,-0.9458,-0.9008,0.0,-0.8844,-0.8626,0.0,0.0,0.0,-0.7711,-0.7069,0.0,0.0,0.0,0.0,0.0,0.0,0.0,0.0,0.0,0.0,0.0,0.0,0.0,0.0,0.0,0.0,0.0,0.0,0.0,0.0,0.0,0.0,0.0,0.0,0.0,0.0,0.0,0.0,0.0,0.0,0.0,0.0,0.0,0.0,0.0,0.0,0.0,0.0,0.0,1.5409,1.4641,1.5409,1.6524,1.7969,1.8721,1.9075,1.9075,1.9075,1.9075,1.9075,1.9075,1.9075,1.9075,1.9075,1.9075,1.9075,1.9075,1.9075,1.91,1.8729,1.8722,1.885,1.8526,1.8246,1.8195,1.9268,1.9456,1.9247,0.0,0.0,0.0,0.0,0.0,-1.7086,-1.7086,-1.7086,-1.7044,0.0,0.0,0.0,-1.7199,-1.7516,-1.776,-1.7787,-1.804,-1.8238,-1.8238,-1.7935,-1.772,-1.7557,-1.665,-1.599,-1.5746,-1.4906,-1.4265,-1.3853,-1.2884,-1.2157,-1.1671,-1.0746,-1.0233,0.0,-1.0049,-0.9846,-0.9528,-0.9528,0.0,0.0,-0.891,-0.8745,0.0,0.0,0.0,0.0,0.0,-0.6253,0.0,0.0,-0.4652,-0.4412,0.0,0.0,0.0,0.0,0.0,0.0,0.1769,0.0,0.0,0.0,0.0,0.0,0.0,0.0,0.0,0.0,0.0,0.0,0.0,0.0,0.0,0.0,0.0,0.0,0.0,0.0,0.0,0.0,0.0,0.0,0.0,0.0,0.0,0.0,1.5275,1.4848,1.4641,1.5895,1.7001,1.7969,1.8721,1.9075,1.9075,1.9075,1.9075,1.9075,1.9075,1.9075,1.9075,1.9075,1.9075,1.9075,1.9075,1.9075,1.9054,1.8996,1.8877,1.8691,1.8754,1.8833,1.905,1.9506,2.0157,2.0777,0.0,0.0,-1.6723,-1.6808,-1.6539,-1.6324,-1.6324,-1.6324,-1.6324,0.0,0.0,0.0,-1.6582,-1.706,-1.7323,-1.7282,-1.7462,-1.7612,-1.7612,-1.7393,-1.724,-1.7157,-1.6066,-1.5354,-1.5036,-1.4141,-1.333,-1.2614,-1.2063,-1.1487,-1.1034,-1.0391,-1.0049,-0.9971,-0.9774,-0.9553,-0.9306,0.0,0.0,0.0,-0.8798,0.0,0.0,-0.8474,-0.7937,0.0,0.0,0.0,-0.5226,-0.468,-0.4423,0.0,0.0,0.0,0.0,0.0,0.0,0.0,0.0,0.0,0.0,0.0,0.0,0.0,0.0,0.0,0.0,0.0,0.0,0.0,0.0,0.0,0.0,0.0,0.0,0.0,0.0,0.0,0.0,0.0,0.0,0.0,0.0,0.0,0.0,1.5869,1.5396,1.4919,1.4641,1.5754,1.6802,1.755,1.824,1.8798,1.9075,1.9075,1.9075,1.9075,1.9075,1.9075,1.9075,1.9075,1.9075,1.9075,1.9075,1.9075,1.9075,1.9075,1.9052,1.8931,1.9426,1.9625,1.9787,2.05,2.1052,2.1504,0.0,0.0,-1.6182,-1.6182,-1.5744,-1.5389,-1.5389,-1.5389,-1.5389,0.0,-1.5389,-1.5555,-1.594,-1.6411,-1.6705,-1.6693,-1.6748,-1.6791,-1.6791,-1.6833,-1.6748,-1.6577,-1.5489,-1.459,-1.4018,-1.3248,-1.2256,-1.0981,-1.136,-1.1034,-1.0079,-1.0088,-0.9932,-0.9704,-0.9337,-0.9173,-0.9128,-0.8756,0.0,-0.8752,-0.8633,-0.8521,0.0,0.0,-0.7622,0.0,-0.6317,-0.5719,-0.5117,-0.4625,-0.4267,0.0,0.0,0.0,0.0,0.0,-0.0651,0.0638,0.1686,0.0,0.0,0.0,0.0,0.0,0.6977,0.7422,0.0,0.0,0.0,0.0,0.0,0.0,0.0,0.0,0.0,0.0,0.0,0.0,0.0,0.0,0.0,0.0,0.0,1.7426,1.6873,1.5999,1.5757,1.5409,1.4705,1.5409,1.6175,1.7001,1.7696,1.8375,1.9065,1.9075,1.9075,1.9075,1.9075,1.9075,1.9075,1.9075,1.9075,1.9075,1.9075,1.9075,1.9075,1.9075,1.9208,1.9407,2.0161,2.0385,2.0435,2.1701,2.2046,2.1843,-1.5744,-1.5611,-1.5522,-1.5567,-1.5433,-1.5311,-1.5311,-1.5311,-1.5266,-1.5187,-1.5266,-1.5311,-1.5322,-1.549,-1.5579,-1.5457,-1.58,-1.6008,-1.6008,-1.638,-1.6337,-1.582,-1.5199,-1.4328,-1.3324,-1.2429,-1.1609,-1.0916,-1.0585,-1.0312,-1.0079,-0.9932,0.0,0.0,-0.9136,-0.8926,-0.8717,0.0,0.0,-0.8633,-0.8626,0.0,-0.8162,-0.767,-0.702,-0.6317,-0.5714,-0.5117,-0.4625,0.0,-0.4119,-0.3963,0.0,0.0,0.0,0.0,0.0,0.0,0.0,0.0,0.0,0.0,0.0,0.0,0.0,0.7087,0.0,0.0,0.0,0.0,0.0,0.0,0.0,0.0,0.0,0.0,0.0,0.0,0.0,0.0,0.0,0.0,0.0,1.7146,1.6548,1.6163,1.5331,1.4991,1.533,1.5613,1.6385,1.7755,1.7901,1.8375,1.9065,1.9075,1.9075,1.9075,1.9075,1.9075,1.9075,1.9075,1.9075,1.9075,1.9075,1.9075,1.9075,1.9075,1.9208,1.9351,1.9671,2.0493,2.1599,2.1957,2.2755,2.3521,-1.5389,-1.5107,-1.4926,-1.4971,-1.4652,-1.4433,-1.434,-1.434,-1.4294,-1.4165,-1.4433,-1.4617,-1.4536,-1.4801,-1.4983,-1.4903,-1.5119,-1.5242,-1.5242,-1.5466,-1.5466,-1.5141,-1.458,-1.3777,-1.2826,-1.2024,-1.1254,-1.0495,-1.0235,-1.004,-0.9932,-0.9655,0.0,0.0,-0.8688,-0.8513,0.0,0.0,-0.8226,-0.8421,-0.8421,0.0,-0.8115,-0.7461,-0.6804,-0.61,-0.5496,-0.4901,-0.4356,-0.4249,-0.4079,0.0,0.0,-0.2799,-0.1793,0.0,-0.0737,0.0523,0.0,0.0,0.0,0.3681,0.0,0.0,0.0,0.0,0.0,0.0,0.0,0.0,0.0,0.0,0.0,0.0,0.0,0.0,0.0,0.0,0.0,0.0,0.0,0.0,0.0,1.6566,1.6031,1.5468,1.464,1.4363,1.4784,1.5449,1.6315,1.7413,1.7823,1.8375,1.9065,1.9075,1.9075,1.9075,1.9075,1.9075,1.9075,1.9075,1.9075,1.9075,1.9075,1.9075,1.9075,1.9075,1.9208,1.9473,1.9911,2.0805,2.1803,2.2408,2.3233,2.4073,-1.5062,-1.4652,-1.4318,-1.4318,-1.3873,-1.3515,-1.342,-1.3443,-1.3486,-1.3469,-1.3738,-1.3973,-1.3973,-1.4255,-1.4422,-1.4422,-1.4514,-1.4571,-1.4571,-1.4663,-1.4652,-1.4514,-1.4003,-1.3302,-1.2465,-1.188,-1.1145,-1.0243,-1.0164,-1.0007,-0.9664,-0.9337,0.0,0.0,0.0,0.0,0.0,0.0,0.0,-0.8002,0.0,-0.8055,-0.8062,-0.7246,-0.6618,-0.6165,-0.5425,-0.4752,-0.4238,-0.4207,0.0,-0.3799,-0.3825,-0.2865,0.0,0.0,0.0,0.0,0.0,0.0,0.0,0.0,0.0,0.465,0.0,0.0,0.0,0.0,0.0,0.0,0.0,0.0,0.0,0.0,0.0,0.0,0.0,0.0,0.0,0.0,0.0,0.0,0.0,1.5881,1.5452,1.481,1.4262,1.4029,1.4239,1.5141,1.5957,1.6655,1.7413,1.8172,1.8865,1.8998,1.9075,1.9075,1.9075,1.9075,1.9075,1.9075,1.9075,1.9075,1.9075,1.9075,1.9075,1.9075,1.9274,1.9605,2.0344,2.1037,2.1803,2.2774,2.3531,2.4112,-1.3789,-1.3752,-1.3705,-1.3705,-1.3563,-1.342,-1.342,-1.3629,-1.3993,-1.4313,-1.4083,-1.3902,-1.3902,0.0,0.0,0.0,0.0,0.0,-1.4061,0.0,-1.4468,-1.392,-1.382,-1.33,-1.225,-1.2054,-1.1537,-1.0736,-1.0479,-1.0004,-0.9257,-0.9096,0.0,0.0,-0.7937,0.0,0.0,0.0,-0.7598,0.0,-0.7295,-0.7515,0.0,-0.6701,-0.6327,-0.6226,-0.5103,-0.4595,-0.4449,0.0,-0.4045,-0.3816,0.0,-0.2853,0.0,0.0,0.0,0.0,0.0,0.0,0.0,0.0,0.385,0.0,0.0,0.0,0.0,0.0,0.0,0.0,0.0,0.0,0.0,0.0,0.0,0.0,0.0,0.0,0.0,0.0,0.0,0.0,0.0,0.0,1.5013,1.542,1.4711,1.4355,1.4687,1.5027,1.5411,1.5886,1.6655,1.7345,1.8104,1.8787,1.9075,1.9075,1.9075,1.9075,1.9075,1.9075,1.9075,1.9075,1.9075,1.9075,1.9075,1.9075,1.9208,1.9407,2.0279,2.1164,2.2113,2.2847,2.3531,2.4112,-1.3467,-1.342,-1.3372,-1.3372,-1.3314,-1.3357,-1.3541,-1.386,-1.4103,-1.4228,-1.4143,-1.4034,0.0,0.0,0.0,0.0,0.0,-1.3549,0.0,0.0,-1.342,-1.318,-1.3084,-1.2694,-1.2004,-1.1892,-1.1562,-1.0922,-1.0792,-1.0344,-0.9528,-0.9267,0.0,0.0,-0.7928,0.0,-0.7884,0.0,0.0,0.0,0.0,0.0,0.0,-0.6225,-0.5661,-0.5296,-0.4702,-0.4387,-0.4291,0.0,-0.4051,0.0,0.0,0.0,0.0,0.0,0.0,0.0,0.0,0.0,0.0,0.0,0.0,0.0,0.5224,0.0,0.6961,0.0,0.0,0.0,0.0,0.0,0.0,0.0,0.0,0.0,0.0,0.0,0.0,0.0,0.0,0.0,0.0,0.0,0.0,0.0,0.0,1.4101,1.4586,1.5149,1.5538,1.5773,1.6665,1.7413,1.7842,1.8529,1.9008,1.9075,1.9075,1.9075,1.9075,1.9075,1.9075,1.9075,1.9075,1.9075,1.9075,1.9075,1.9274,1.9605,2.073,2.1491,2.2051,2.2847,2.3531,2.4112,-1.3286,-1.3266,-1.3218,-1.3218,-1.317,-1.3332,-1.3748,-1.4096,0.0,0.0,0.0,0.0,-1.4262,-1.3994,0.0,0.0,0.0,-1.3167,0.0,0.0,-1.2578,-1.2421,-1.2471,0.0,0.0,-1.1874,-1.1621,-1.094,-1.0895,-1.0369,-0.9428,-0.9067,0.0,0.0,0.0,-0.7753,-0.7901,0.0,0.0,-0.7408,-0.681,-0.642,-0.6254,-0.573,-0.5175,-0.4606,-0.4519,-0.4385,-0.4244,-0.4216,-0.3931,0.0,-0.3056,0.0,0.0,0.0,0.0,0.0,0.081,0.0,0.0,0.0,0.0,0.0,0.0,0.0,0.0,0.0,0.0,0.0,0.0,0.0,0.0,0.0,0.0,0.0,0.0,0.0,0.0,0.0,0.0,0.0,0.0,0.0,0.0,0.0,0.0,0.0,1.4799,1.5467,1.5682,1.546,1.672,1.7413,1.7423,1.8327,1.8875,1.9075,1.9075,1.9075,1.9075,1.9075,1.9075,1.9075,1.9075,1.9075,1.9075,1.9075,1.9396,1.9977,2.1175,2.1865,2.2298,2.31,2.3662,2.4112,-1.3133,-1.3152,-1.3218,-1.3218,-1.3152,-1.3313,-1.3994,0.0,0.0,0.0,0.0,0.0,0.0,0.0,0.0,0.0,0.0,-1.3086,-1.3067,0.0,-1.2274,0.0,0.0,-1.2215,0.0,0.0,-1.1798,-1.0794,-1.0556,-0.9755,-0.8461,-0.8219,0.0,0.0,0.0,-0.7753,-0.7848,-0.7354,-0.681,-0.6209,-0.5437,-0.4912,-0.4546,0.0,-0.5118,-0.4571,-0.4566,0.0,0.0,-0.4315,-0.368,0.0,0.0,0.0,0.0,0.0,0.0,0.0,0.0,0.0,0.0,0.2728,0.0,0.0,0.0,0.0,0.5814,0.0,0.0,0.0,0.0,0.0,0.0,0.0,0.0,0.0,0.0,0.0,0.0,0.0,0.0,0.0,0.0,0.0,0.0,0.0,0.0,0.0,1.56,1.5955,1.5714,1.4891,1.6524,1.7148,1.6636,1.8104,1.8875,1.9075,1.9075,1.9075,1.9075,1.9075,1.9075,1.9075,1.9075,1.9075,1.9075,1.9075,1.9704,2.0655,2.1365,2.2224,2.3148,2.3793,2.4054,2.4112,-1.2529,-1.2461,-1.2452,-1.2452,-1.2471,-1.2494,0.0,-1.3705,0.0,0.0,0.0,0.0,0.0,0.0,-1.3438,0.0,0.0,-1.2829,-1.2229,-1.193,0.0,0.0,0.0,-1.1232,0.0,0.0,0.0,0.0,0.0,0.0,-0.8774,-0.8724,0.0,0.0,0.0,-0.7329,0.0,0.0,0.0,0.0,0.0,-0.4753,-0.4376,0.0,0.0,-0.4498,-0.3872,-0.3934,0.0,-0.3744,-0.3377,-0.2986,-0.2548,-0.1761,-0.0928,-0.0353,0.0116,0.0,0.0,0.0,0.2681,0.2681,0.0,0.0,0.0,0.0,0.0,0.0,0.0,0.0,0.0,0.0,0.0,0.0,0.0,0.0,0.0,0.0,0.0,0.0,0.0,0.0,0.0,0.0,0.0,0.0,0.0,0.0,0.0,1.4551,1.4684,1.4671,1.6066,1.6945,1.712,1.825,1.8875,1.9075,1.9075,1.9075,1.9075,1.9075,1.9075,1.9075,1.9075,1.9075,1.9075,1.9075,1.9462,2.0042,2.1175,2.1928,2.2604,2.3675,2.4112,2.4112,-1.181,-1.1701,-1.1701,-1.1769,-1.195,0.0,0.0,0.0,0.0,0.0,-1.3304,0.0,-1.3009,0.0,-1.3039,0.0,-1.2597,-1.2414,-1.1833,-1.1535,0.0,-1.0748,-1.084,0.0,0.0,0.0,0.0,0.0,0.0,-0.9392,-0.8725,-0.8455,0.0,0.0,0.0,0.0,-0.6756,0.0,-0.5804,0.0,0.0,-0.4549,0.0,0.0,-0.4227,-0.402,0.0,-0.3353,-0.3424,-0.295,-0.2681,-0.2403,-0.1882,-0.1287,-0.0574,0.0061,0.0359,0.0477,0.0701,0.1723,0.0,0.2728,0.3602,0.0,0.4519,0.0,0.0,0.0,0.0,0.0,0.0,0.0,0.0,0.0,0.0,0.0,0.0,0.0,0.0,0.0,0.0,0.0,0.0,0.0,0.0,0.0,0.0,0.0,0.0,0.0,1.4493,1.4672,1.6121,1.7073,1.7404,1.8317,1.8875,1.9075,1.9075,1.9075,1.9075,1.9075,1.9075,1.9075,1.9075,1.9075,1.9075,1.9075,1.9584,2.0431,2.1239,2.2113,2.2919,2.3806,2.4112,2.4112,-1.1124,0.0,0.0,0.0,-1.1617,0.0,0.0,0.0,-1.2948,0.0,-1.2826,-1.2704,-1.2704,-1.2573,-1.2451,-1.2389,-1.209,0.0,-1.185,-1.1495,0.0,0.0,-1.057,-1.0455,-0.9591,0.0,0.0,0.0,0.0,0.0,-0.8115,0.0,0.0,0.0,-0.6426,0.0,-0.61,-0.5391,-0.5113,-0.5191,-0.4525,-0.4188,-0.414,-0.4188,-0.3761,-0.3155,-0.3151,-0.2681,-0.2079,-0.2079,-0.1612,-0.1071,-0.1107,-0.0581,0.0064,0.025,0.0433,0.0557,0.0741,0.1749,0.2704,0.2704,0.0,0.0,0.0,0.0,0.468,0.0,0.0,0.0,0.0,0.0,0.0,0.0,0.0,0.0,0.0,0.0,0.0,0.0,0.0,0.0,0.0,0.0,0.0,0.0,0.0,0.0,0.0,0.0,0.0,1.4889,1.6617,1.751,1.7444,1.8307,1.8875,1.9075,1.9075,1.9075,1.9075,1.9075,1.9075,1.9075,1.9075,1.9075,1.9075,1.9131,2.0096,2.1553,2.1616,2.2677,2.4112,2.4112,2.4112,2.4112,-1.0517,-1.0219,-1.0026,0.0,-1.0372,-1.066,0.0,0.0,0.0,0.0,-1.1608,-1.167,-1.124,-1.1545,-1.16,-1.1108,-1.1403,0.0,0.0,0.0,0.0,-1.0137,-1.0234,-0.9928,-0.9193,-0.9228,0.0,-0.8533,0.0,0.0,-0.7354,0.0,0.0,0.0,0.0,0.0,-0.5504,-0.4854,-0.4598,-0.4531,-0.4284,-0.4172,0.0,0.0,-0.3055,-0.2414,-0.2364,-0.2281,-0.2013,-0.1545,-0.121,-0.1074,-0.0933,-0.0399,0.0265,0.058,0.0703,0.0762,0.0932,0.1899,0.2919,0.2919,0.3795,0.4633,0.0,0.0,0.0,0.0,0.0,0.0,0.0,0.0,0.0,0.0,0.0,0.0,0.0,0.0,0.0,0.0,0.0,0.0,0.0,0.0,0.0,0.0,0.0,0.0,0.0,0.0,0.0,1.4251,1.567,1.6802,1.7566,1.8368,1.8808,1.8875,1.9008,1.9075,1.9075,1.9075,1.9075,1.9075,1.9075,1.9075,1.9142,1.977,2.0333,2.0974,2.2089,2.316,2.4112,2.4112,2.4112,2.4112,-1.0193,0.0,0.0,-0.9829,0.0,0.0,-1.0261,0.0,0.0,-1.0688,-1.087,0.0,-1.067,-1.0934,-1.1047,-1.0863,-1.1009,0.0,0.0,0.0,0.0,-1.0012,-0.9938,-0.9609,-0.9112,-0.892,0.0,-0.8003,0.0,0.0,-0.6701,0.0,0.0,0.0,0.0,-0.4846,0.0,-0.4458,-0.425,-0.4188,-0.4175,0.0,0.0,-0.333,-0.2551,-0.1678,-0.1533,-0.1392,-0.1114,-0.0627,-0.0484,-0.0479,-0.0274,0.0068,0.047,0.0727,0.079,0.0852,0.1031,0.1778,0.2573,0.2888,0.3676,0.437,0.473,0.467,0.4562,0.0,0.0,0.0,0.0,0.0,0.0,0.0,0.0,0.0,0.0,0.0,0.0,0.0,0.0,0.0,0.0,0.0,0.0,0.0,0.0,0.0,0.0,0.0,0.0,1.4042,1.5323,1.651,1.7605,1.8108,1.8462,1.8808,1.8998,1.9075,1.9075,1.9075,1.9075,1.9075,1.9075,1.9264,1.9584,2.0074,2.0771,2.1592,2.2895,2.3662,2.4112,2.4112,2.4112,2.4112,0.0,0.0,0.0,0.0,0.0,0.0,0.0,-1.0539,0.0,-1.0672,0.0,-1.0664,-1.0751,-1.0717,-1.0814,-1.106,0.0,-1.0784,-1.0983,-1.0581,-1.0186,-1.0001,-0.9771,-0.9503,-0.9225,-0.8858,0.0,0.0,0.0,0.0,-0.6046,0.0,0.0,0.0,0.0,0.0,0.0,-0.4228,-0.4156,0.0,-0.4125,-0.3766,-0.3175,-0.2977,-0.2177,-0.1065,-0.0799,-0.0365,0.0073,0.0291,0.0359,0.0352,0.0563,0.0623,0.061,0.0813,0.0811,0.0876,0.1076,0.1584,0.2202,0.2847,0.3477,0.4142,0.4761,0.483,0.4721,0.4721,0.5099,0.5254,0.0,0.0,0.0,0.0,0.0,0.0,0.0,0.0,0.0,0.0,0.0,0.0,0.0,0.0,0.0,0.0,0.0,0.0,0.0,0.0,0.0,0.0,1.516,0.0,1.7461,0.0,1.8124,1.8741,1.8942,1.9075,1.9075,1.9075,1.9075,1.9075,1.9198,1.9584,2.0096,2.0462,2.1467,2.2907,2.3734,2.4112,2.4112,2.4112,2.4112,2.4112,0.0,0.0,0.0,0.0,0.0,-1.0561,-1.0866,-1.0745,-1.0712,-1.0882,-1.0784,-1.0757,-1.0976,-1.0872,-1.0823,-1.0867,-1.0829,0.0,0.0,0.0,0.0,-1.032,-1.0098,-0.9781,-0.9375,-0.9319,-0.8711,0.0,0.0,0.0,-0.5445,-0.5332,0.0,0.0,0.0,0.0,-0.4189,-0.4278,0.0,-0.4204,-0.3616,-0.333,-0.3053,-0.1885,-0.1294,-0.1044,-0.0375,0.0,0.0291,0.051,0.0581,0.0579,0.0796,0.0853,0.0835,0.0975,0.1028,0.1076,0.1076,0.2007,0.2994,0.3127,0.4035,0.4902,0.5028,0.4982,0.4877,0.4877,0.4873,0.4819,0.4711,0.0,0.0,0.0,0.0,0.0,0.0,0.0,0.0,0.0,0.0,0.0,0.0,0.0,0.0,0.0,0.0,0.0,0.0,0.0,0.0,0.0,0.0,0.0,0.0,0.0,1.8337,1.8549,1.8741,1.8942,1.9075,1.9075,1.9075,1.9131,1.9649,1.9977,2.0226,2.1592,2.2847,2.3865,2.4054,2.4112,2.4112,2.4112,2.4112,2.4112,0.0,0.0,0.0,0.0,0.0,0.0,0.0,-1.1029,0.0,-1.1061,-1.0946,-1.0921,-1.1058,-1.0949,-1.0935,-1.1078,-1.096,-1.0949,-1.1019,-1.0692,-1.0411,-1.0274,-1.0077,0.0,-0.9474,-0.8951,-0.8265,-0.7315,0.0,0.0,-0.4854,-0.4801,-0.4482,-0.4082,0.0,-0.4101,0.0,0.0,0.0,-0.3694,-0.3336,-0.2763,-0.2034,-0.1372,-0.0889,-0.0455,0.0077,0.0383,0.0455,0.0531,0.0676,0.0818,0.0966,0.1023,0.1073,0.1144,0.1134,0.1119,0.1104,0.1852,0.2799,0.3094,0.3977,0.4789,0.5185,0.5135,0.503,0.503,0.4911,0.49,0.5107,0.5596,0.0,0.0,0.0,0.0,0.0,0.0,0.0,0.0,0.0,0.0,0.0,0.0,0.0,0.0,0.0,0.0,0.0,0.0,0.0,0.0,0.0,0.0,0.0,0.0,0.0,1.8482,1.8674,1.8942,1.9075,1.9075,1.9075,1.9131,1.9846,2.0355,2.0933,2.2555,2.3616,2.4112,2.4112,2.4112,2.4112,2.4112,2.4112,2.4112,0.0,-1.0929,0.0,0.0,-1.1276,0.0,-1.1441,-1.1309,-1.124,-1.124,-1.1101,-1.1071,-1.1062,-1.1021,-1.1107,-1.1316,-1.1138,-1.1093,-1.1238,-1.0839,-1.0528,-1.0319,-1.0117,-0.9765,-0.9368,-0.8642,-0.786,0.0,0.0,0.0,-0.4513,-0.4312,-0.4155,0.0,0.0,0.0,0.0,0.0,-0.3626,-0.3183,-0.2908,-0.2113,-0.1074,-0.0895,-0.0532,0.0077,0.039,0.055,0.0628,0.0628,0.0775,0.0993,0.1145,0.12,0.1176,0.1176,0.1172,0.1161,0.1137,0.1623,0.2381,0.3063,0.3785,0.452,0.5233,0.5267,0.5179,0.5179,0.5064,0.5039,0.5412,0.5665,0.0,0.0,0.0,0.0,0.0,0.0,0.0,0.0,0.0,0.0,0.0,0.0,0.0,0.0,0.0,0.0,0.0,0.0,0.0,0.0,0.0,1.489,1.6665,0.0,1.7302,0.0,1.8684,1.8808,1.9075,1.9065,1.9208,1.933,2.0042,2.0933,2.1951,2.333,2.4008,2.4112,2.4112,2.4112,2.4112,2.4112,2.4112,2.4112,0.0,0.0,0.0,0.0,0.0,0.0,-1.1571,-1.154,-1.154,-1.154,-1.1255,-1.1075,-1.1341,-1.1224,-1.1087,-1.1105,-1.1087,-1.1075,-1.1149,-1.0828,-1.0671,-1.0647,-1.0417,-0.9822,-0.8947,-0.8853,-0.7977,0.0,0.0,0.0,0.0,-0.4405,-0.4336,0.0,0.0,0.0,0.0,-0.3502,-0.3256,-0.3063,-0.1817,-0.1226,-0.1053,-0.0378,-0.0077,0.0,0.0235,0.0471,0.0628,0.0786,0.102,0.1253,0.1253,0.1232,0.1208,0.1208,0.1188,0.1166,0.1163,0.1669,0.2376,0.3083,0.3825,0.4491,0.5256,0.5418,0.5342,0.5342,0.5216,0.5067,0.4985,0.5072,0.5246,0.0,0.0,0.0,0.0,0.0,0.0,0.0,0.0,0.0,0.0,0.0,0.0,0.0,0.0,0.0,0.0,0.0,0.0,0.0,0.0,1.4944,1.6665,1.7103,0.0,1.8337,1.8482,1.8607,1.8808,1.9008,1.9462,2.0031,2.0741,2.1939,2.3437,2.376,2.4008,2.4112,2.4112,2.4112,2.4112,2.4112,2.4112,2.4112,0.0,0.0,0.0,0.0,0.0,0.0,0.0,-1.0948,-1.058,-1.0131,-1.0353,-1.0313,-0.982,-0.9679,-0.9679,-0.9679,-1.0137,-1.0137,-0.9679,-0.9974,-0.9928,-0.9259,-0.9165,-0.8867,-0.8295,-0.7878,-0.7258,0.0,0.0,0.0,0.0,-0.4332,-0.417,0.0,0.0,-0.3868,-0.3518,-0.3283,-0.2724,-0.1866,-0.1311,-0.0817,-0.0379,-0.0077,0.0,0.0079,0.0393,0.055,0.0629,0.1021,0.1178,0.1335,0.1335,0.1249,0.1239,0.1239,0.123,0.1217,0.1198,0.1714,0.2294,0.2594,0.3576,0.4545,0.47,0.5154,0.5471,0.5449,0.5311,0.5223,0.5074,0.5171,0.5268,0.0,0.0,0.0,0.0,0.0,0.0,0.0,0.0,0.0,0.0,0.0,0.0,0.0,0.0,0.0,0.0,0.0,0.0,1.3425,0.0,1.4944,1.6665,1.7168,1.7721,1.8269,1.8414,1.8617,1.8808,1.9008,1.9715,2.0741,2.1135,2.2125,2.3628,2.3832,2.4008,2.4112,2.4112,2.4112,2.4112,2.4112,2.4112,2.4112,-1.1683,0.0,-1.1919,0.0,-1.164,-1.1323,-1.0415,-1.0056,-0.9533,-0.8699,-0.9069,-0.9216,-0.8775,-0.8703,-0.8703,-0.8703,-0.9236,-0.9311,-0.8703,-0.9236,-0.9236,-0.8477,-0.8393,0.0,-0.7735,-0.7237,-0.6789,-0.6333,-0.557,0.0,0.0,-0.4415,-0.4221,0.0,-0.3992,-0.3685,-0.325,-0.2757,-0.2011,-0.1106,-0.09,-0.0456,0.0,0.0,0.0,0.0079,0.0393,0.055,0.0629,0.1021,0.1257,0.1335,0.1335,0.1335,0.1335,0.1335,0.1335,0.1253,0.1231,0.1607,0.2127,0.2517,0.3455,0.438,0.4689,0.5227,0.561,0.546,0.5459,0.5328,0.522,0.5331,0.536,0.5126,0.0,0.0,0.0,0.0,0.0,0.0,0.0,0.0,0.0,0.0,0.0,0.0,0.0,0.0,0.0,0.0,0.0,0.0,0.0,0.0,0.0,1.7168,1.7654,1.8202,1.8414,1.8549,1.8741,1.9386,2.0226,2.1123,2.1702,2.258,2.3569,2.3819,2.3949,2.4067,2.4054,2.4112,2.4112,2.4112,2.4112,2.4112,-1.2291,-1.2291,-1.199,-1.1007,-1.0783,-1.0415,-0.9226,-0.8998,-0.8618,-0.7633,-0.7557,-0.7863,-0.8627,-0.8703,-0.8703,-0.8703,-0.8703,-0.8703,-0.8703,-0.8703,-0.8699,0.0,0.0,-0.8218,-0.7208,-0.72,-0.6753,-0.58,0.0,0.0,-0.5086,-0.4674,-0.4466,-0.4471,-0.373,-0.3413,-0.327,-0.1747,-0.1108,-0.1057,-0.0303,0.0,0.0,0.0,0.0,0.0,0.0236,0.0393,0.0628,0.0864,0.11,0.1335,0.1335,0.1335,0.1335,0.1335,0.1335,0.1335,0.1335,0.1335,0.1639,0.3116,0.3471,0.3896,0.5469,0.58,0.5759,0.5616,0.5467,0.5428,0.5425,0.5425,0.5422,0.5543,0.0,0.0,0.0,0.0,0.0,0.0,0.8128,0.8903,0.9621,0.0,0.0,0.0,0.0,0.0,0.0,0.0,0.0,1.345,1.387,0.0,1.6665,1.7168,1.7598,1.8008,1.8347,1.8482,1.8549,2.0291,2.106,2.1198,2.2702,2.3403,2.3403,2.3772,2.3891,2.3891,2.4067,2.4112,2.4112,2.4112,2.4112,2.4112,-1.1391,-1.1168,-1.0795,-0.9895,-0.9669,-0.9296,-0.8313,-0.8117,-0.7807,-0.6953,-0.6893,-0.7042,-0.7281,-0.716,-0.7103,0.0,-0.7557,-0.7633,0.0,-0.7561,-0.7638,-0.7099,-0.7103,-0.6923,-0.6569,-0.6565,-0.6335,-0.5959,0.0,0.0,0.0,-0.4739,-0.4665,-0.4597,-0.3765,-0.3158,-0.2613,-0.157,-0.0835,-0.031,-0.0078,0.0,0.0,0.0,0.0,0.0,0.0236,0.0393,0.0628,0.0864,0.11,0.1335,0.1335,0.1335,0.1335,0.1335,0.1335,0.1335,0.1335,0.1335,0.1568,0.2564,0.3253,0.3917,0.4867,0.5507,0.5789,0.5742,0.562,0.5518,0.5518,0.5433,0.5425,0.555,0.5508,0.0,0.0,0.0,0.0,0.0,0.0,0.863,0.0,0.98,0.0,0.0,0.0,0.0,0.0,0.0,0.0,0.0,1.4182,0.0,1.6665,1.7451,1.7881,1.8008,1.8347,1.8607,1.8942,1.9452,2.0237,2.1123,2.1639,2.2457,2.3403,2.3522,2.37,2.3891,2.3949,2.4008,2.4112,2.4112,2.4112,2.4112,-1.1236,-1.0923,-1.0467,-0.9155,-0.8765,-0.8378,-0.7521,-0.7373,-0.7119,-0.6637,-0.6641,-0.6702,-0.6702,-0.6536,0.0,-0.6427,-0.6838,-0.6883,-0.6417,-0.6828,-0.6795,-0.6338,-0.6338,-0.6338,-0.6338,-0.6338,0.0,-0.6115,-0.5885,-0.5513,-0.5167,-0.4916,-0.4765,-0.4722,-0.3573,-0.2791,-0.2298,-0.1151,-0.0387,0.0,0.0,0.0,0.0,0.0,0.0,0.0,0.0157,0.0393,0.0628,0.0707,0.1021,0.1335,0.1335,0.1335,0.1335,0.1335,0.1335,0.1335,0.1335,0.1492,0.1962,0.2743,0.3599,0.4438,0.5214,0.5622,0.5888,0.5888,0.5772,0.5671,0.5671,0.5662,0.5648,0.5649,0.5776,0.5825,0.5899,0.0,0.0,0.0,0.0,0.0,0.0,1.012,0.0,0.0,0.0,0.0,0.0,0.0,0.0,1.3638,1.4435,0.0,1.6973,1.7666,1.8008,1.8008,1.8347,1.8674,1.9131,1.933,2.0096,2.1123,2.1376,2.2125,2.3271,2.339,2.3582,2.3819,2.3949,2.4008,2.4112,2.4112,2.4112,2.4112,-1.165,-1.1404,-1.0675,0.0,-0.8082,0.0,-0.6864,-0.6709,-0.6715,-0.6715,-0.6725,-0.6729,-0.6729,-0.6729,-0.6729,-0.6729,0.0,0.0,0.0,-0.6356,-0.6352,-0.6352,-0.6345,-0.6338,-0.6338,-0.6338,-0.6338,-0.6338,-0.5792,-0.5573,-0.5526,-0.5195,-0.4955,-0.4777,-0.3175,-0.2503,-0.2426,-0.0706,0.0,0.0,0.0,0.0,0.0,0.0,0.0,0.0,0.0,0.0236,0.055,0.0628,0.0864,0.1257,0.1257,0.1335,0.1335,0.1335,0.1335,0.1335,0.1335,0.1962,0.2744,0.3677,0.4455,0.5318,0.6103,0.6149,0.6047,0.6047,0.5925,0.5817,0.5817,0.5957,0.6047,0.5898,0.6084,0.6173,0.6015,0.0,0.0,0.0,0.0,0.0,0.0,1.0624,1.0631,0.0,0.0,0.0,0.0,0.0,1.2052,1.4042,1.4582,1.5638,1.7383,1.7803,1.8008,1.8008,1.8347,1.8674,1.9131,1.9781,2.0484,2.1123,2.1803,2.2494,2.3138,2.3437,2.3569,2.3628,2.3936,2.4112,2.4112,2.4112,2.4112,2.4112,0.0,0.0,-0.9543,-0.7679,-0.7191,-0.6947,-0.6698,-0.68,-0.6875,-0.6875,-0.697,-0.7037,-0.7037,-0.7037,-0.7037,-0.7037,-0.6797,-0.6647,-0.6647,-0.6505,-0.6424,-0.6424,-0.6318,-0.6338,-0.6338,-0.6338,-0.6338,-0.6338,-0.5792,-0.5622,-0.5591,-0.5157,-0.5002,-0.4897,-0.32,-0.2503,-0.2426,-0.0706,0.0,0.0,0.0,0.0,0.0,0.0,0.0,0.0,0.0,0.0157,0.0393,0.055,0.0786,0.1021,0.1257,0.1335,0.1335,0.1335,0.1335,0.1414,0.2041,0.2354,0.2823,0.438,0.5395,0.6025,0.6261,0.6234,0.6207,0.6207,0.6084,0.5976,0.5976,0.603,0.6154,0.6253,0.6466,0.66,0.6694,0.7254,0.0,0.0,0.9125,0.9779,1.0561,1.0624,1.0648,0.0,0.0,0.0,0.0,1.1759,1.2525,1.4067,1.4775,1.5918,1.7383,1.7803,1.8144,1.8414,1.8482,1.8674,1.9131,1.9781,2.0484,2.1123,2.1803,2.2494,2.3138,2.333,2.3509,2.3628,2.3891,2.4008,2.4112,2.4112,2.4112,2.4112,-1.0845,-0.9922,-0.8919,-0.7499,-0.7073,-0.6902,-0.6902,-0.697,-0.7024,-0.7024,-0.7092,-0.7139,-0.7139,-0.7139,-0.7139,-0.7139,-0.6936,-0.6803,-0.6803,-0.6661,-0.6576,-0.6576,-0.6505,-0.643,-0.6359,-0.6359,-0.6325,-0.6338,-0.5948,-0.5712,-0.5559,-0.5249,-0.4854,-0.4384,-0.3051,-0.227,-0.1879,-0.0549,0.0,0.0,0.0,0.0,0.0,0.0,0.0,0.0,0.0,0.0157,0.0314,0.0393,0.0629,0.0943,0.11,0.1178,0.1335,0.1335,0.1571,0.1962,0.2354,0.3056,0.3992,0.524,0.5944,0.6338,0.6338,0.6338,0.6338,0.6338,0.6193,0.6135,0.6135,0.6293,0.6504,0.6503,0.6714,0.6981,0.6964,0.7776,0.8531,0.8943,0.977,1.0554,1.0955,1.0955,1.1022,1.1182,0.0,0.0,1.1969,1.2116,1.2991,1.4581,1.5042,1.6031,1.7666,1.79,1.8144,1.8414,1.8482,1.8674,1.9008,1.9781,2.0484,2.1123,2.1803,2.2494,2.3138,2.3343,2.3463,2.3509,2.3772,2.3949,2.4008,2.4054,2.4112,2.4112,-1.0869,-0.9753,-0.8632,-0.768,-0.7323,-0.7139,-0.7139,-0.7139,-0.7139,-0.7139,-0.7139,-0.7139,-0.7139,-0.7139,-0.7139,-0.7139,-0.7031,-0.6959,-0.6959,-0.6817,-0.6736,-0.6736,-0.6712,-0.6637,-0.6508,-0.6485,-0.6413,-0.6291,-0.6032,-0.5786,-0.5559,-0.5401,-0.4771,-0.3752,-0.2893,-0.2035,-0.1254,-0.0392,0.0,0.0,0.0,0.0,0.0,0.0,0.0,0.0,0.0,0.0079,0.0236,0.0314,0.055,0.0864,0.0864,0.11,0.1335,0.1335,0.1884,0.2511,0.2666,0.3912,0.5395,0.6103,0.6338,0.6338,0.6338,0.6338,0.6338,0.6338,0.6338,0.6338,0.6338,0.6641,0.682,0.6686,0.6962,0.7212,0.7271,0.0,0.9254,0.94,1.0616,1.1423,1.1423,1.1423,1.1443,1.149,1.149,1.1654,0.0,1.2438,1.3412,1.5274,1.5343,1.6192,1.8008,1.8008,1.8076,1.8269,1.8414,1.8617,1.8808,1.9715,2.0484,2.1123,2.1803,2.2494,2.3138,2.3343,2.3403,2.3403,2.3713,2.3891,2.3891,2.4008,2.4054,2.4112,-0.9662,-0.9148,-0.8632,-0.768,-0.7323,-0.7139,-0.7139,-0.7139,-0.7139,-0.7139,-0.7139,-0.7139,-0.7139,-0.7139,-0.7139,-0.7139,-0.7122,-0.7105,-0.7105,-0.6973,-0.6895,-0.6895,-0.677,-0.6688,-0.6664,-0.6539,-0.6461,-0.6437,-0.6077,-0.5786,-0.5559,-0.5401,-0.4771,-0.3752,-0.2893,-0.2035,-0.1254,-0.0392,0.0,0.0,0.0,0.0,0.0,0.0,0.0,0.0,0.0,0.0,0.0079,0.0236,0.0471,0.0707,0.0864,0.11,0.1335,0.1335,0.1884,0.2666,0.3365,0.4849,0.6103,0.6261,0.6338,0.6338,0.6338,0.6338,0.6338,0.6338,0.6338,0.6338,0.6338,0.649,0.6707,0.6831,0.7061,0.7512,0.8312,0.0,0.9713,1.0372,1.102,1.1423,1.1423,1.1423,1.153,1.1784,1.1797,1.2124,1.2746,1.2802,1.3678,1.559,1.566,1.6392,1.8008,1.8008,1.8076,1.8269,1.8414,1.8617,1.8808,1.9715,2.0484,2.1123,2.1803,2.2494,2.3138,2.3343,2.3403,2.3403,2.3569,2.376,2.3891,2.3891,2.4008,2.4112,-0.9318,-0.8632,-0.8025,-0.7595,-0.7323,-0.7139,-0.7139,-0.7139,-0.7139,-0.7139,-0.7139,-0.7139,-0.7139,-0.7139,-0.7139,-0.7139,-0.7139,-0.7139,-0.7139,-0.7078,-0.7044,-0.7044,-0.6973,-0.6902,-0.6824,-0.6675,-0.6597,-0.6597,-0.6445,-0.6214,-0.5902,-0.526,-0.4353,-0.3207,-0.227,-0.141,-0.0549,-0.0157,0.0,0.0,0.0,0.0,0.0,0.0,0.0,0.0,0.0,0.0,0.0,0.0079,0.0236,0.0471,0.0707,0.0864,0.11,0.1257,0.1884,0.2823,0.4066,0.5004,0.5712,0.618,0.6338,0.6338,0.6338,0.6338,0.6338,0.6338,0.6338,0.6338,0.6338,0.649,0.6637,0.6714,0.7026,0.7484,0.8389,0.9205,1.0029,1.0857,1.1473,1.1897,1.1897,1.1897,1.1957,1.2091,1.2249,1.2456,1.2893,1.2973,1.3897,1.5675,1.6524,1.7295,1.8008,1.8008,1.8076,1.8144,1.8414,1.8549,1.8674,1.9649,2.0484,2.1123,2.1803,2.2494,2.3138,2.3198,2.3271,2.3271,2.345,2.3582,2.3641,2.3832,2.3949,2.4008,-0.8978,-0.8113,-0.7507,-0.7507,-0.7323,-0.7139,-0.7139,-0.7139,-0.7139,-0.7139,-0.7139,-0.7139,-0.7139,-0.7139,-0.7139,-0.7139,-0.7139,-0.7139,-0.7139,-0.7139,-0.7139,-0.7139,-0.7139,-0.7088,-0.698,-0.6831,-0.6753,-0.6753,-0.6719,-0.6558,-0.6205,-0.5141,-0.3951,-0.2762,-0.1737,-0.0788,0.0,0.0,0.0,0.0,0.0,0.0,0.0,0.0,0.0,0.0,0.0,0.0,0.0,0.0,0.0157,0.0314,0.055,0.0707,0.0943,0.1257,0.1727,0.251,0.399,0.4693,0.516,0.5867,0.618,0.6338,0.6338,0.6338,0.6338,0.6338,0.6338,0.6338,0.6338,0.6412,0.6563,0.6563,0.6872,0.7403,0.8304,0.921,1.0121,1.1037,1.1781,1.2305,1.2305,1.2305,1.2305,1.2305,1.2526,1.2673,1.29,1.3119,1.3977,1.5675,1.7226,1.8008,1.8008,1.8008,1.8008,1.8008,1.8347,1.8482,1.8549,1.9452,2.0226,2.0869,2.1428,2.2113,2.2884,2.2884,2.2944,2.3138,2.3271,2.3343,2.3463,2.37,2.3832,2.3891,-0.8028,-0.7768,-0.7507,-0.7507,-0.7323,-0.7139,-0.7139,-0.7139,-0.7139,-0.7139,-0.7139,-0.7139,-0.7139,-0.7139,-0.7139,-0.7139,-0.7139,-0.7139,-0.7139,-0.7139,-0.7139,-0.7139,-0.7139,-0.7136,-0.7126,-0.6987,-0.6912,-0.6912,-0.677,-0.6609,-0.6344,-0.5175,-0.4047,-0.2913,-0.178,-0.0801,0.0,0.0,0.0,0.0,0.0,0.0,0.0,0.0,0.0,0.0,0.0,0.0,0.0,0.0,0.0157,0.0314,0.055,0.0707,0.0943,0.1257,0.1335,0.1571,0.2431,0.3834,0.5004,0.5082,0.5709,0.6338,0.6338,0.6338,0.6338,0.6338,0.6338,0.6338,0.6338,0.6338,0.6412,0.6563,0.6641,0.7019,0.8228,0.914,0.997,1.0962,1.1781,1.2305,1.2305,1.2305,1.2305,1.2305,1.2526,1.2673,1.29,1.3119,1.3977,1.5675,1.7226,1.8008,1.8008,1.8008,1.8008,1.8008,1.8347,1.8482,1.8549,1.8942,1.9518,2.0172,2.0226,2.0974,2.2175,2.2175,2.2555,2.3078,2.3138,2.3271,2.3403,2.3569,2.376,2.3891,-0.7944,-0.794,-0.7852,-0.7595,-0.7415,-0.7323,-0.7139,-0.7139,-0.7139,-0.7139,-0.7139,-0.7139,-0.7139,-0.7139,-0.7139,-0.7139,-0.7139,-0.7139,-0.7139,-0.7139,-0.7139,-0.7139,-0.7139,-0.7139,-0.7139,-0.7088,-0.7058,-0.7058,-0.7,-0.6843,-0.6668,-0.5472,-0.4279,-0.3159,-0.1947,-0.0882,0.0,0.0,0.0,0.0,0.0,0.0,0.0,0.0,0.0,0.0,0.0,0.0,0.0,0.0,0.0079,0.0157,0.0314,0.055,0.0786,0.1178,0.1335,0.1335,0.1649,0.2976,0.4377,0.4846,0.5631,0.6338,0.6338,0.6338,0.6338,0.6338,0.6338,0.6338,0.6338,0.6338,0.6338,0.6412,0.6486,0.6942,0.808,0.8609,0.9442,1.0887,1.1335,1.1781,1.2231,1.2305,1.2305,1.2305,1.2599,1.2826,1.29,1.3615,1.4537,1.5675,1.6733,1.751,1.8008,1.8008,1.8008,1.8008,1.8279,1.8414,1.8482,1.8808,1.933,2.0096,2.0096,2.0602,2.1491,2.1928,2.2237,2.2494,2.2944,2.3138,2.3271,2.3509,2.3628,2.376,-0.8986,-0.8548,-0.8201,-0.8201,-0.7852,-0.7591,-0.7408,-0.7319,-0.7231,-0.7231,-0.7143,-0.7139,-0.7139,-0.7139,-0.7139,-0.7139,-0.7139,-0.7139,-0.7139,-0.7139,-0.7139,-0.7139,-0.7139,-0.7139,-0.7139,-0.7139,-0.7139,-0.7139,-0.7139,-0.7092,-0.6907,-0.5594,-0.4545,-0.3804,-0.2138,-0.1054,-0.0397,-0.0158,0.0,0.0,0.0,0.0,0.0,0.0,0.0,0.0,0.0,0.0,0.0,0.0,0.0,0.0,0.0236,0.0471,0.0786,0.1178,0.1335,0.1335,0.1335,0.2352,0.3521,0.4068,0.5085,0.5867,0.5867,0.6103,0.6338,0.6338,0.6338,0.6338,0.6338,0.6338,0.6338,0.6338,0.6412,0.6791,0.7625,0.8309,0.9216,1.0576,1.118,1.1706,1.2231,1.2305,1.2305,1.2305,1.2673,1.2973,1.3046,1.3833,1.4609,1.5313,1.6088,1.6872,1.7647,1.7862,1.8008,1.8008,1.8202,1.8337,1.8482,1.8674,1.9131,1.9781,1.9781,2.0161,2.0805,2.129,2.1729,2.2175,2.2628,2.2944,2.3138,2.345,2.3509,2.3569,-1.1149,-0.9676,-0.8544,-0.941,-0.8632,-0.7944,-0.7944,-0.768,-0.7507,-0.7507,-0.7323,-0.7139,-0.7139,-0.7139,-0.7139,-0.7139,-0.7139,-0.7139,-0.7139,-0.7139,-0.7139,-0.7139,-0.7139,-0.7139,-0.7139,-0.7139,-0.7139,-0.7139,-0.7139,-0.7139,-0.7051,-0.5711,-0.5034,-0.4932,-0.2459,-0.141,-0.1378,-0.0396,0.0,0.0,0.0,0.0,0.0,0.0,0.0,0.0,0.0,0.0,0.0,0.0,0.0,0.0,0.0236,0.055,0.0943,0.1257,0.1335,0.1335,0.1335,0.1884,0.2511,0.2511,0.3756,0.5004,0.5004,0.5709,0.6338,0.6338,0.6338,0.6338,0.6338,0.6338,0.6338,0.6338,0.6338,0.6412,0.6865,0.8309,0.9448,0.982,1.1323,1.2298,1.2305,1.2305,1.2305,1.2305,1.2673,1.3046,1.3499,1.3492,1.3848,1.4601,1.5313,1.6097,1.6862,1.7647,1.8008,1.8008,1.8212,1.8347,1.8482,1.8674,1.8942,1.9075,1.9075,1.9462,2.0107,2.0096,2.0921,2.2113,2.2101,2.2494,2.3138,2.333,2.3403,2.3463,-1.1241,-1.0289,-0.9419,-0.9579,-0.8807,-0.8028,-0.794,-0.7856,-0.794,-0.846,-0.8456,-0.854,-0.9052,-0.8452,-0.8105,-0.8105,-0.7492,-0.7139,-0.7139,-0.7139,-0.7139,-0.7139,-0.7139,-0.7139,-0.7139,-0.7139,-0.7139,-0.7139,-0.7139,-0.7139,-0.7051,-0.6337,-0.5654,-0.4935,-0.3812,-0.257,-0.1378,-0.103,-0.0549,0.0,0.0,0.0,0.0,0.0,0.0,0.0,0.0,0.0,0.0,0.0,0.0,0.0,0.0236,0.0471,0.0707,0.0943,0.1178,0.1335,0.1335,0.1492,0.1805,0.2354,0.3756,0.5004,0.5004,0.5709,0.6338,0.6338,0.6338,0.6338,0.6338,0.6338,0.6338,0.6338,0.6338,0.6412,0.6865,0.7778,0.8841,0.982,1.0801,1.1706,1.2231,1.2305,1.2305,1.2305,1.2673,1.3046,1.3273,1.3419,1.3848,1.4601,1.5313,1.6097,1.6862,1.7647,1.8008,1.8008,1.8076,1.8212,1.8482,1.8549,1.8808,1.9075,1.9075,1.9198,1.9462,1.9911,2.0613,2.1428,2.1928,2.2494,2.3138,2.333,2.3403,2.3403,-1.2357,-1.1322,-1.0544,-1.0794,-0.9758,-0.8811,-0.8727,-0.8288,-0.8288,-0.9065,-0.8978,-0.9235,-1.0009,-0.9492,-0.9061,-0.9061,-0.8189,-0.7492,-0.7139,-0.7139,-0.7139,-0.7139,-0.7139,-0.7139,-0.7139,-0.7139,-0.7139,-0.7139,-0.7139,-0.7139,-0.7051,-0.6609,-0.6122,-0.5518,-0.4507,-0.3496,-0.2462,-0.1986,-0.1254,-0.0549,-0.0549,-0.0314,0.0,0.0,0.0,0.0,0.0,0.0,0.0,0.0,0.0,0.0,0.0236,0.0393,0.055,0.0786,0.1021,0.1178,0.1257,0.1335,0.1414,0.1884,0.3056,0.4068,0.4455,0.516,0.5867,0.6261,0.6338,0.6338,0.6338,0.6338,0.6338,0.6338,0.6338,0.6563,0.6865,0.7621,0.8609,0.9744,1.0576,1.1409,1.2231,1.2305,1.2305,1.2378,1.2746,1.2973,1.3193,1.3419,1.3702,1.4122,1.518,1.5948,1.6446,1.7442,1.8008,1.8008,1.8008,1.8144,1.8414,1.8414,1.8607,1.9008,1.9008,1.9008,1.9131,1.9518,2.0096,2.0741,2.1175,2.1865,2.2689,2.2823,2.3078,2.333,-1.3913,-1.2619,-1.1671,-1.2528,-1.1235,-1.0028,-1.0028,-0.9074,-0.8719,-0.9584,-0.9235,-0.9323,-1.0356,-1.0096,-0.9923,-1.0009,-0.9148,-0.8189,-0.7316,-0.7228,-0.7228,-0.7139,-0.7139,-0.7139,-0.7139,-0.7139,-0.7139,-0.7139,-0.7139,-0.7139,-0.7051,-0.6609,-0.6432,-0.6328,-0.4872,-0.4193,-0.4014,-0.3033,-0.2113,-0.1332,-0.1332,-0.0784,0.0,0.0,0.0,0.0,0.0,0.0,0.0,0.0,0.0,0.0,0.0236,0.0314,0.0393,0.0786,0.0864,0.0943,0.1257,0.1335,0.1335,0.1335,0.1884,0.2666,0.3599,0.4455,0.5237,0.6103,0.6338,0.6338,0.6338,0.6338,0.6338,0.6338,0.649,0.6637,0.6865,0.7851,0.8836,0.982,1.0651,1.1484,1.2224,1.2305,1.2378,1.2526,1.2746,1.2973,1.3193,1.3346,1.3492,1.3492,1.4903,1.5596,1.5596,1.7157,1.794,1.8008,1.8008,1.8144,1.8269,1.8269,1.8472,1.8741,1.8808,1.8875,1.9075,1.9065,1.9518,2.0107,2.0161,2.0985,2.2101,2.2175,2.2555,2.3138,-1.4088,-1.3222,-1.2448,-1.2619,-1.1757,-1.0982,-1.0982,-1.0202,-0.9767,-1.0631,-0.9758,-0.9671,-1.1235,-1.0534,-1.0188,-1.0885,-1.0101,-0.9231,-0.8281,-0.8193,-0.7841,-0.7139,-0.7139,-0.7139,-0.7139,-0.7139,-0.7139,-0.7139,-0.7139,-0.7139,-0.7051,-0.6877,-0.6612,-0.6331,-0.5644,-0.4866,-0.4097,-0.3671,-0.266,-0.1332,-0.1332,-0.0784,0.0,0.0,0.0,0.0,0.0,0.0,0.0,0.0,0.0,0.0,0.0079,0.0157,0.0314,0.0628,0.0786,0.0943,0.1257,0.1335,0.1335,0.1335,0.1414,0.1961,0.3441,0.4455,0.5237,0.6103,0.6338,0.6338,0.6338,0.6338,0.6338,0.6338,0.649,0.6637,0.6865,0.8304,0.9442,0.9895,1.1174,1.2077,1.2305,1.2305,1.2298,1.2378,1.2673,1.29,1.2973,1.3346,1.3492,1.3492,1.4402,1.4816,1.4816,1.6376,1.7432,1.8008,1.8008,1.8144,1.8269,1.8269,1.8414,1.8549,1.8741,1.8808,1.8875,1.9075,1.9518,2.0161,2.0677,2.1365,2.2175,2.2689,2.3005,2.3138,-1.4088,-1.3737,-1.3398,-1.3398,-1.2619,-1.1929,-1.1929,-1.1154,-1.0809,-1.1585,-1.0631,-1.0539,-1.2192,-1.1316,-1.0799,-1.1235,-1.0448,-0.9492,-0.854,-0.8105,-0.7577,-0.7139,-0.7139,-0.7139,-0.7139,-0.7139,-0.7139,-0.7139,-0.7139,-0.7139,-0.7051,-0.6789,-0.652,-0.6419,-0.5817,-0.5285,-0.4684,-0.4472,-0.3677,-0.2503,-0.2503,-0.1722,-0.0628,-0.0628,-0.0392,0.0,0.0,0.0,0.0,0.0,0.0,0.0,0.0,0.0157,0.0314,0.055,0.0707,0.0943,0.1257,0.1335,0.1335,0.1335,0.1335,0.1649,0.2898,0.3832,0.4691,0.5473,0.6022,0.6338,0.6338,0.6338,0.6338,0.6338,0.6563,0.6788,0.6861,0.7855,0.8917,0.982,1.0645,1.1471,1.2224,1.2305,1.2305,1.2305,1.2673,1.29,1.29,1.3273,1.3492,1.3492,1.4186,1.4601,1.4601,1.5737,1.6724,1.751,1.7794,1.8076,1.8144,1.8144,1.8279,1.8405,1.8607,1.8674,1.8808,1.9008,1.933,1.9715,2.0355,2.106,2.1678,2.2372,2.2811,2.3138,-1.4088,-1.4088,-1.4088,-1.4088,-1.3483,-1.296,-1.296,-1.21,-1.1757,-1.2363,-1.1235,-1.0977,-1.2534,-1.1843,-1.1322,-1.1499,-1.0794,-0.9927,-0.8803,-0.8013,-0.7401,-0.7139,-0.7139,-0.7139,-0.7139,-0.7139,-0.7139,-0.7139,-0.7139,-0.7139,-0.7051,-0.6697,-0.6432,-0.6331,-0.5729,-0.5455,-0.5355,-0.5116,-0.4543,-0.383,-0.383,-0.2817,-0.1332,-0.1332,-0.0784,0.0,0.0,0.0,0.0,0.0,0.0,0.0,0.0,0.0079,0.0314,0.055,0.0707,0.0943,0.1257,0.1335,0.1335,0.1335,0.1335,0.1492,0.2119,0.3054,0.4064,0.4846,0.5709,0.6338,0.6338,0.6338,0.6338,0.6338,0.6641,0.6865,0.6865,0.7403,0.8241,0.9744,1.0121,1.0795,1.215,1.2305,1.2305,1.2305,1.2673,1.29,1.29,1.3273,1.3492,1.3492,1.4122,1.4394,1.4394,1.5171,1.5877,1.6507,1.7364,1.7872,1.8008,1.8008,1.8076,1.8269,1.8414,1.8549,1.8741,1.8942,1.9075,1.9208,1.9966,2.0613,2.1187,2.199,2.2616,2.3078,-1.4088,-1.4088,-1.4088,-1.4088,-1.4004,-1.3913,-1.3913,-1.3137,-1.2528,-1.2619,-1.0707,-0.9758,-1.0804,-1.1149,-1.1671,-1.2443,-1.2357,-1.1574,-0.9836,-0.9575,-0.8794,-0.7139,-0.7139,-0.7139,-0.7139,-0.7139,-0.7139,-0.7139,-0.7139,-0.7139,-0.7051,-0.6881,-0.6612,-0.6419,-0.5902,-0.5538,-0.5355,-0.5116,-0.4543,-0.383,-0.383,-0.2817,-0.1332,-0.1332,-0.0784,0.0,0.0,0.0,0.0,0.0,0.0,0.0,0.0,0.0,0.0079,0.0471,0.0628,0.0707,0.1178,0.1335,0.1335,0.1335,0.1335,0.1335,0.1414,0.2663,0.4064,0.4846,0.5709,0.6338,0.6338,0.6338,0.6338,0.6338,0.6641,0.6865,0.6865,0.7859,0.8846,0.982,1.1099,1.2077,1.2305,1.2305,1.2305,1.2305,1.2673,1.29,1.29,1.3273,1.3492,1.3492,1.3564,1.3637,1.3637,1.4402,1.4816,1.4958,1.6367,1.7364,1.8008,1.8008,1.8008,1.8076,1.8269,1.8405,1.8549,1.8741,1.8942,1.9198,2.0484,2.0996,2.125,2.2506,2.3005,2.3078,-1.4088,-1.4088,-1.4088,-1.4088,-1.4088,-1.4088,-1.4088,-1.3743,-1.3398,-1.3307,-1.1832,-1.0885,-1.1154,-1.1241,-1.1671,-1.2619,-1.2186,-1.1316,-1.0009,-0.9405,-0.8536,-0.7139,-0.7139,-0.7139,-0.7139,-0.7139,-0.7139,-0.7139,-0.7139,-0.7139,-0.7051,-0.67,-0.652,-0.6419,-0.5817,-0.5455,-0.5355,-0.5116,-0.4779,-0.4462,-0.4462,-0.3756,-0.2659,-0.2192,-0.1488,-0.0628,-0.0157,0.0,0.0,0.0,0.0,0.0,0.0,0.0079,0.0236,0.055,0.0707,0.0864,0.1178,0.1335,0.1335,0.1335,0.1335,0.1335,0.1335,0.2196,0.3288,0.4144,0.5395,0.6338,0.6338,0.6338,0.6338,0.6338,0.6641,0.6865,0.6865,0.7557,0.847,0.9744,1.095,1.1781,1.2224,1.2305,1.2305,1.2305,1.2673,1.29,1.29,1.3273,1.3492,1.3492,1.3492,1.3492,1.3492,1.384,1.4186,1.4601,1.5737,1.6655,1.7432,1.7794,1.8008,1.8008,1.8279,1.8482,1.8549,1.8808,1.9008,1.9198,2.0161,2.0985,2.1803,2.275,2.3078,2.3078]},{"header":{"parameterUnit":"m.s-1","parameterCategory":1,"la1":30.6,"la2":28.766,"lo1":-90.7593,"lo2":-88.6598,"dx":0.0162,"dy":0.0183,"nx":116,"ny":114,"refTime":"2022-12-05T18:00:00:Z","depth":0,"parameterNumber":3,"parameterNumberName":"V-component_of_WINDS"},"data":[0.0,0.0,0.0,0.0,0.0,0.0,0.0,0.0,0.0,0.0,0.0,0.0,0.0,0.0,0.0,0.0,0.0,0.0,0.0,0.0,0.0,0.0,0.0,0.0,0.0,0.0,0.0,0.0,0.0,0.0,0.0,0.0,0.0,0.0,0.0,0.0,0.0,0.0,0.0,0.0,0.0,0.0,0.0,0.0,0.0,0.0,0.0,0.0,0.0,0.0,0.0,0.0,0.0,0.0,0.0,0.0,0.0,0.0,0.0,0.0,0.0,0.0,0.0,0.0,0.0,0.0,0.0,0.0,0.0,0.0,0.0,0.0,0.0,0.0,0.0,0.0,0.0,0.0,0.0,0.0,0.0,0.0,0.0,0.0,0.0,0.0,0.0,0.0,0.0,0.0,0.0,0.0,0.0,0.0,0.0,0.0,0.0,0.0,0.0,0.0,0.0,0.0,0.0,0.0,0.0,0.0,0.0,0.0,0.0,0.0,0.0,0.0,0.0,0.0,0.0,0.0,0.0,0.0,0.0,0.0,0.0,0.0,0.0,0.0,0.0,0.0,0.0,0.0,0.0,0.0,0.0,0.0,0.0,0.0,0.0,0.0,0.0,0.0,0.0,0.0,0.0,0.0,0.0,0.0,0.0,0.0,0.0,0.0,0.0,0.0,0.0,0.0,0.0,0.0,0.0,0.0,0.0,0.0,0.0,0.0,0.0,0.0,0.0,0.0,0.0,0.0,0.0,0.0,0.0,0.0,0.0,0.0,0.0,0.0,0.0,0.0,0.0,0.0,0.0,0.0,0.0,0.0,0.0,0.0,0.0,0.0,0.0,0.0,0.0,0.0,0.0,0.0,0.0,0.0,0.0,0.0,0.0,0.0,0.0,0.0,0.0,0.0,0.0,0.0,0.0,0.0,0.0,0.0,0.0,0.0,0.0,0.0,0.0,0.0,0.0,0.0,0.0,0.0,0.0,0.0,0.0,0.0,0.0,0.0,0.0,0.0,0.0,0.0,0.0,0.0,0.0,0.0,0.0,0.0,0.0,0.0,0.0,0.0,0.0,0.0,0.0,0.0,0.0,0.0,0.0,0.0,0.0,0.0,0.0,0.0,0.0,0.0,0.0,0.0,0.0,0.0,0.0,0.0,0.0,0.0,0.0,0.0,0.0,0.0,0.0,0.0,0.0,0.0,0.0,0.0,0.0,0.0,0.0,0.0,0.0,0.0,0.0,0.0,0.0,0.0,0.0,0.0,0.0,0.0,0.0,0.0,0.0,0.0,0.0,0.0,0.0,0.0,0.0,0.0,0.0,0.0,0.0,0.0,0.0,0.0,0.0,0.0,0.0,0.0,0.0,0.0,0.0,0.0,0.0,0.0,0.0,0.0,0.0,0.0,0.0,0.0,0.0,0.0,0.0,0.0,0.0,0.0,0.0,0.0,0.0,0.0,0.0,0.0,0.0,0.0,0.0,0.0,0.0,0.0,0.0,0.0,0.0,0.0,0.0,0.0,0.0,0.0,0.0,0.0,0.0,0.0,0.0,0.0,0.0,0.0,0.0,0.0,0.0,0.0,0.0,0.0,0.0,0.0,0.0,0.0,0.0,0.0,0.0,0.0,0.0,0.0,0.0,0.0,0.0,0.0,0.0,0.0,0.0,0.0,0.0,0.0,0.0,0.0,0.0,0.0,0.0,0.0,0.0,0.0,0.0,0.0,0.0,0.0,0.0,0.0,0.0,0.0,0.0,0.0,0.0,0.0,0.0,0.0,0.0,0.0,0.0,0.0,0.0,0.0,0.0,0.0,0.0,0.0,0.0,0.0,0.0,0.0,0.0,0.0,0.0,0.0,0.0,0.0,0.0,0.0,0.0,0.0,0.0,0.0,0.0,0.0,0.0,0.0,0.0,0.0,0.0,0.0,0.0,0.0,0.0,0.0,0.0,0.0,0.0,0.0,0.0,0.0,0.0,0.0,0.0,0.0,0.0,0.0,0.0,0.0,0.0,0.0,0.0,0.0,0.0,0.0,0.0,0.0,0.0,0.0,0.0,0.0,0.0,0.0,0.0,0.0,0.0,0.0,0.0,0.0,0.0,0.0,0.0,0.0,0.0,0.0,0.0,0.0,0.0,0.0,0.0,0.0,0.0,0.0,0.0,0.0,0.0,0.0,0.0,0.0,0.0,0.0,0.0,0.0,0.0,0.0,0.0,0.0,0.0,0.0,0.0,0.0,0.0,0.0,0.0,0.0,0.0,0.0,0.0,0.0,0.0,0.0,0.0,0.0,0.0,0.0,0.0,0.0,0.0,0.0,0.0,0.0,0.0,0.0,0.0,0.0,0.0,0.0,0.0,0.0,0.0,0.0,0.0,0.0,0.0,0.0,0.0,0.0,0.0,0.0,0.0,0.0,0.0,0.0,0.0,0.0,0.0,0.0,0.0,0.0,0.0,0.0,0.0,0.0,0.0,0.0,0.0,0.0,0.0,0.0,0.0,0.0,0.0,0.0,0.0,0.0,0.0,0.0,0.0,0.0,0.0,0.0,0.0,0.0,0.0,0.0,0.0,0.0,0.0,0.0,0.0,0.0,0.0,0.0,0.0,0.0,0.0,0.0,0.0,0.0,0.0,0.0,0.0,0.0,0.0,0.0,0.0,0.0,0.0,0.0,0.0,0.0,0.0,0.0,0.0,0.0,0.0,0.0,0.0,0.0,0.0,0.0,0.0,0.0,0.0,0.0,0.0,0.0,0.0,0.0,0.0,0.0,0.0,0.0,0.0,0.0,0.0,0.0,0.0,0.0,0.0,0.0,0.0,0.0,0.0,0.0,0.0,0.0,0.0,0.0,0.0,0.0,0.0,0.0,0.0,0.0,0.0,0.0,0.0,0.0,0.0,0.0,0.0,0.0,0.0,0.0,0.0,0.0,0.0,0.0,0.0,0.0,0.0,0.0,0.0,0.0,0.0,0.0,0.0,0.0,0.0,0.0,0.0,0.0,0.0,0.0,0.0,0.0,0.0,0.0,0.0,0.0,0.0,0.0,0.0,0.0,0.0,0.0,0.0,0.0,0.0,0.0,0.0,0.0,0.0,0.0,0.0,0.0,0.0,0.0,0.0,0.0,0.0,0.0,0.0,0.0,0.0,0.0,0.0,0.0,0.0,0.0,0.0,0.0,0.0,0.0,0.0,0.0,0.0,0.0,0.0,0.0,0.0,0.0,0.0,0.0,0.0,0.0,0.0,0.0,0.0,0.0,0.0,0.0,0.0,0.0,0.0,0.0,0.0,0.0,0.0,0.0,0.0,0.0,0.0,0.0,0.0,0.0,0.0,0.0,0.0,0.0,0.0,0.0,0.0,0.0,0.0,0.0,0.0,0.0,0.0,0.0,0.0,0.0,0.0,0.0,0.0,0.0,0.0,0.0,0.0,0.0,0.0,0.0,0.0,0.0,0.0,0.0,0.0,0.0,0.0,0.0,0.0,0.0,0.0,0.0,0.0,0.0,0.0,0.0,0.0,0.0,0.0,0.0,0.0,0.0,0.0,0.0,0.0,0.0,0.0,0.0,0.0,0.0,0.0,0.0,0.0,0.0,0.0,0.0,0.0,0.0,0.0,0.0,0.0,0.0,0.0,0.0,0.0,0.0,0.0,0.0,0.0,0.0,0.0,0.0,0.0,0.0,0.0,0.0,0.0,0.0,0.0,0.0,0.0,0.0,0.0,0.0,0.0,0.0,0.0,0.0,0.0,0.0,0.0,0.0,0.0,0.0,0.0,0.0,0.0,0.0,0.0,0.0,0.0,0.0,0.0,0.0,0.0,0.0,0.0,0.0,0.0,0.0,0.0,0.0,0.0,0.0,0.0,0.0,0.0,0.0,0.0,0.0,0.0,0.0,0.0,0.0,0.0,0.0,0.0,0.0,0.0,0.0,0.0,0.0,0.0,0.0,0.0,0.0,0.0,0.0,0.0,0.0,0.0,0.0,0.0,0.0,0.0,0.0,0.0,0.0,0.0,0.0,0.0,0.0,0.0,0.0,0.0,0.0,0.0,0.0,0.0,0.0,0.0,0.0,0.0,0.0,0.0,0.0,0.0,0.0,0.0,0.0,0.0,0.0,0.0,0.0,0.0,0.0,0.0,0.0,0.0,0.0,0.0,0.0,0.0,0.0,0.0,0.0,0.0,0.0,0.0,0.0,0.0,0.0,0.0,0.0,0.0,0.0,0.0,0.0,0.0,0.0,0.0,0.0,0.0,0.0,0.0,0.0,0.0,0.0,0.0,0.0,0.0,0.0,0.0,0.0,0.0,0.0,0.0,0.0,0.0,0.0,0.0,0.0,0.0,0.0,0.0,0.0,0.0,0.0,0.0,0.0,0.0,0.0,0.0,0.0,0.0,0.0,0.0,0.0,0.0,0.0,0.0,0.0,0.0,0.0,0.0,0.0,0.0,0.0,0.0,0.0,0.0,0.0,0.0,0.0,0.0,0.0,0.0,0.0,0.0,0.0,0.0,0.0,0.0,0.0,0.0,0.0,0.0,0.0,0.0,0.0,0.0,0.0,0.0,0.0,0.0,0.0,0.0,0.0,0.0,0.0,0.0,0.0,0.0,0.0,0.0,0.0,0.0,0.0,0.0,0.0,0.0,0.0,0.0,0.0,0.0,0.0,0.0,0.0,0.0,0.0,0.0,0.0,0.0,0.0,0.0,0.0,0.0,0.0,0.0,0.0,0.0,0.0,0.0,0.0,0.0,0.0,0.0,0.0,0.0,0.0,0.0,0.0,0.0,0.0,0.0,0.0,0.0,0.0,0.0,0.0,0.0,0.0,0.0,0.0,0.0,0.0,0.0,0.0,0.0,0.0,0.0,0.0,0.0,0.0,0.0,0.0,0.0,0.0,0.0,0.0,0.0,0.0,0.0,0.0,0.0,0.0,0.0,0.0,0.0,0.0,0.0,0.0,0.0,0.0,0.0,0.0,0.0,0.0,0.0,0.0,0.0,0.0,0.0,0.0,0.0,0.0,0.0,0.0,0.0,0.0,0.0,0.0,0.0,0.0,0.0,0.0,0.0,0.0,0.0,0.0,0.0,0.0,0.0,0.0,0.0,0.0,0.0,0.0,0.0,0.0,0.0,0.0,0.0,0.0,0.0,0.0,0.0,0.0,0.0,0.0,0.0,0.0,0.0,0.0,0.0,0.0,0.0,0.0,0.0,0.0,0.0,0.0,0.0,0.0,0.0,0.0,0.0,0.0,0.0,0.0,0.0,0.0,0.0,0.0,0.0,0.0,0.0,0.0,0.0,0.0,0.0,0.0,0.0,0.0,0.0,0.0,0.0,0.0,0.0,0.0,0.0,0.0,0.0,0.0,0.0,0.0,0.0,0.0,0.0,0.0,0.0,0.0,0.0,0.0,0.0,0.0,0.0,0.0,0.0,0.0,0.0,0.0,0.0,0.0,0.0,0.0,0.0,0.0,0.0,0.0,0.0,0.0,0.0,0.0,0.0,0.0,0.0,0.0,0.0,0.0,0.0,0.0,0.0,0.0,0.0,0.0,0.0,0.0,0.0,0.0,0.0,0.0,0.0,0.0,0.0,0.0,0.0,0.0,0.0,0.0,0.0,0.0,0.0,0.0,0.0,0.0,0.0,0.0,0.0,0.0,0.0,0.0,0.0,0.0,0.0,0.0,0.0,0.0,0.0,0.0,0.0,0.0,0.0,0.0,0.0,0.0,0.0,0.0,0.0,0.0,0.0,0.0,0.0,0.0,0.0,0.0,0.0,0.0,0.0,0.0,0.0,0.0,0.0,0.0,0.0,0.0,0.0,0.0,0.0,0.0,0.0,0.0,0.0,0.0,0.0,0.0,0.0,0.0,0.0,0.0,0.0,0.0,0.0,0.0,0.0,0.0,0.0,0.0,0.0,0.0,0.0,0.0,0.0,0.0,0.0,0.0,0.0,0.0,0.0,0.0,0.0,0.0,0.0,0.0,0.0,0.0,0.0,0.0,0.0,0.0,0.0,0.0,0.0,0.0,0.0,0.0,0.0,0.0,0.0,0.0,0.0,0.0,0.0,0.0,0.0,0.0,0.0,0.0,0.0,0.0,0.0,0.0,0.0,0.0,0.0,0.0,2.2633,0.0,0.0,0.0,0.0,0.0,0.0,0.0,0.0,0.0,0.0,0.0,0.0,0.0,0.0,0.0,0.0,0.0,0.0,0.0,0.0,0.0,0.0,0.0,0.0,0.9681,0.9706,0.9692,0.9721,0.0,0.0,0.0,0.0,0.0,0.0,0.0,0.0,0.0,1.0268,1.0647,1.1058,1.1315,1.1409,1.0675,1.0214,0.999,0.0,0.0,0.0,0.0,0.0,0.0,0.0,0.0,0.0,0.0,0.0,0.0,0.0,0.0,0.0,0.0,0.0,0.0,0.0,0.0,0.0,0.0,0.0,0.0,0.0,0.0,0.0,0.0,0.0,0.0,0.0,0.0,0.0,0.0,0.0,0.0,0.0,0.0,0.0,0.0,0.0,0.0,0.0,0.0,0.0,0.0,0.0,0.0,0.0,0.0,0.0,0.0,0.0,0.0,0.0,0.0,0.0,0.0,0.0,0.0,0.0,0.0,0.0,0.0,0.0,0.0,0.0,0.0,0.0,0.0,0.0,2.2522,0.0,0.0,0.0,0.0,0.0,0.0,0.0,0.0,0.0,0.0,0.0,0.0,0.0,0.0,0.0,0.0,0.0,0.0,0.0,0.0,0.0,0.9775,0.9945,1.0003,1.0103,1.0233,1.0242,1.0244,1.0256,1.0256,0.0,0.0,0.0,0.0,1.115,1.1109,1.1432,1.2178,1.2493,1.2821,1.3185,1.3164,1.2994,1.2674,1.1935,0.0,0.0,0.0,0.0,0.0,0.0,0.0,0.0,0.0,0.0,0.0,0.0,0.0,0.0,0.0,0.0,0.0,0.0,0.0,0.0,0.0,0.0,0.0,0.0,0.0,0.0,0.0,0.0,0.0,0.0,0.0,0.0,0.0,0.0,0.0,0.0,0.0,0.0,0.0,0.0,0.0,0.0,0.0,0.0,0.0,0.0,0.0,0.0,0.0,0.0,0.0,0.0,0.0,0.0,0.0,0.0,0.0,0.0,0.0,0.0,0.0,0.0,0.0,2.2751,2.3104,2.3487,2.3386,2.3637,2.41,2.3707,2.3627,2.3717,2.2856,0.0,0.0,0.0,0.0,0.0,0.0,0.0,0.0,0.0,0.0,0.0,0.0,0.0,0.0,0.0,0.0,0.0,0.0,0.0,1.0094,1.0917,1.1005,1.1295,1.2003,1.2062,1.2055,1.2064,1.2064,0.0,0.0,0.0,1.2079,1.22,1.2199,1.226,1.2452,1.401,1.5569,1.7055,1.6999,1.6888,1.6591,1.3424,1.1928,1.1764,0.0,0.0,0.0,0.0,0.0,0.0,0.0,0.0,0.0,0.0,0.0,0.0,0.0,0.0,0.0,0.0,0.0,0.0,0.0,0.0,0.0,0.0,0.0,0.0,0.0,0.0,0.0,0.0,0.0,0.0,0.0,0.0,0.0,0.0,0.0,0.0,0.0,0.0,0.0,0.0,0.0,2.3189,2.3376,0.0,0.0,0.0,0.0,0.0,0.0,0.0,0.0,0.0,0.0,0.0,0.0,0.0,2.1404,2.1551,2.2611,2.3222,2.3425,2.4081,2.45,2.467,2.4718,2.4678,2.4607,2.4538,0.0,2.4007,2.3542,0.0,0.0,0.0,0.0,0.0,0.0,0.0,0.0,0.0,0.0,0.0,0.0,0.0,0.0,0.0,0.0,0.0,0.0,0.0,0.0,0.0,1.1956,1.2123,1.2469,1.2554,1.257,1.2579,1.2579,0.0,0.0,1.2526,1.2952,1.3894,1.3887,1.4368,1.5425,1.6258,1.7073,1.7852,1.7831,1.7781,1.7653,1.6068,1.5136,1.4697,1.3715,0.0,0.0,0.0,0.0,0.0,0.0,0.0,0.0,0.0,0.0,0.0,0.0,0.0,0.0,0.0,0.0,0.0,0.0,0.0,0.0,0.0,0.0,0.0,0.0,0.0,0.0,0.0,0.0,0.0,0.0,0.0,0.0,0.0,0.0,0.0,0.0,0.0,0.0,0.0,2.3276,2.3372,2.3458,2.2635,2.1883,0.0,0.0,0.0,0.0,0.0,0.0,0.0,0.0,0.0,2.2108,2.2457,2.2776,2.3115,2.3719,2.4044,2.4044,2.4408,2.4676,2.4785,2.4818,2.4851,2.4861,2.479,2.4648,2.4452,2.3933,2.3476,2.3017,0.0,0.0,0.0,0.0,2.1616,2.1661,0.0,0.0,0.0,0.0,0.0,0.0,0.0,0.0,0.0,0.0,0.0,0.0,1.2757,1.291,1.3041,1.3267,1.3346,1.3458,1.3652,1.3671,1.3772,1.4005,1.3969,1.4531,1.5753,1.5767,1.6518,1.8075,1.8364,1.8656,1.8927,1.9136,1.9234,1.9236,1.9233,1.8482,1.7151,1.593,1.5215,1.4793,0.0,0.0,0.0,0.0,0.0,0.0,0.0,0.0,0.0,0.0,0.0,0.0,0.0,0.0,0.0,0.0,0.0,0.0,0.0,0.0,0.0,0.0,0.0,0.0,0.0,0.0,0.0,0.0,0.0,0.0,0.0,0.0,0.0,0.0,0.0,0.0,0.0,2.3608,2.3735,2.3689,2.3119,2.2551,0.0,0.0,0.0,0.0,0.0,0.0,2.2416,2.2393,2.2673,2.336,2.3575,2.3871,2.4266,2.4408,2.4495,2.4464,2.453,2.4673,2.4795,2.4842,2.4923,2.5019,2.4902,2.4832,2.4727,2.4244,2.3913,2.3644,2.3285,2.2893,2.2573,2.2723,2.2658,2.2608,0.0,0.0,0.0,0.0,0.0,0.0,0.0,0.0,0.0,0.0,0.0,1.2785,1.373,1.3891,1.4252,1.5097,1.5175,1.5493,1.6262,1.632,1.6689,1.7508,1.7598,1.7637,1.7659,1.7716,1.8193,1.9126,2.0016,2.0878,2.1719,2.2475,2.2844,2.2849,2.2836,2.0974,1.7835,1.7636,1.7394,1.7113,1.6765,0.0,0.0,0.0,0.0,0.0,0.0,0.0,0.0,0.0,0.0,0.0,0.0,0.0,0.0,0.0,0.0,0.0,0.0,0.0,0.0,0.0,0.0,0.0,0.0,0.0,0.0,0.0,0.0,0.0,0.0,0.0,0.0,0.0,0.0,0.0,0.0,0.0,0.0,2.447,2.429,0.0,0.0,0.0,0.0,2.2169,2.2017,2.2262,2.3024,2.3041,2.3388,2.4133,2.4152,2.419,2.421,2.421,2.4338,2.4591,2.4723,2.4891,2.5072,2.5203,2.5212,2.5084,2.5031,2.4869,2.4697,2.4543,2.4228,2.3892,2.3848,2.3602,2.3302,2.3684,2.3806,2.3866,0.0,0.0,0.0,0.9673,0.9681,0.9717,0.9844,1.059,1.1345,1.1958,1.2834,1.3739,1.4645,1.4795,1.519,1.6062,1.6183,1.6568,1.7409,1.7467,1.7604,1.7916,1.7942,1.8477,1.9575,2.0166,2.0894,2.1776,2.2109,2.2422,2.2734,2.2988,2.3105,2.3105,2.3103,2.2416,2.116,1.9945,1.9012,1.827,1.7576,1.6743,0.0,0.0,0.0,0.0,0.0,0.0,0.0,0.0,0.0,0.0,0.0,0.0,0.0,0.0,0.0,0.0,0.0,0.0,0.0,0.0,0.0,0.0,0.0,0.0,0.0,0.0,0.0,0.0,0.0,0.0,0.0,0.0,0.0,0.0,0.0,0.0,0.0,2.4331,2.4307,0.0,2.3611,2.3587,2.3547,2.343,2.3482,2.3619,2.3911,2.3846,2.3981,2.4321,2.4229,2.4266,2.4392,2.4357,2.4393,2.4462,2.4657,2.4818,2.4981,2.5115,2.5182,2.5233,2.5118,2.503,2.4949,2.4869,2.4666,2.4407,2.4408,2.4336,2.4226,2.4366,2.4348,2.4327,0.0,0.0,0.0,0.9738,0.9766,0.9899,1.0276,1.1074,1.1958,1.2856,1.3796,1.47,1.5579,1.5734,1.612,1.6997,1.7113,1.751,1.8387,1.8702,1.9015,1.9309,1.9588,2.0254,2.14,2.1987,2.2552,2.3132,2.3405,2.3544,2.3544,2.3794,2.3913,2.3936,2.394,2.3786,2.3456,2.2264,2.1177,2.0196,1.9248,1.8528,1.7985,0.0,0.0,0.0,0.0,0.0,0.0,0.0,0.0,0.0,0.0,0.0,0.0,0.0,0.0,0.0,0.0,0.0,0.0,0.0,0.0,0.0,0.0,0.0,0.0,0.0,0.0,0.0,0.0,0.0,0.0,0.0,0.0,0.0,0.0,0.0,2.4601,2.4429,2.4538,2.449,2.4111,2.4273,2.4526,2.4789,2.4814,2.4945,2.5344,2.5208,2.519,2.5379,2.5294,2.5181,2.5035,2.5005,2.4841,2.458,2.4746,2.4888,2.4962,2.5115,2.5222,2.5284,2.5173,2.5122,2.5091,2.5018,2.491,2.4794,2.4794,2.4818,2.4818,2.4831,2.478,2.4714,0.0,0.0,0.9754,0.9881,0.9931,1.0231,1.1086,1.1964,1.2869,1.3787,1.4719,1.5625,1.6509,1.6657,1.7061,1.796,1.8042,1.8413,1.9326,2.0169,2.1011,2.191,2.2675,2.3088,2.3038,2.3034,2.3046,2.3082,2.3864,2.4239,2.4258,2.5099,2.5526,2.559,2.5593,2.5158,2.4434,2.4434,2.3906,2.2998,2.1959,2.0923,1.988,0.0,0.0,0.0,0.0,0.0,0.0,0.0,0.0,0.0,0.0,0.0,0.0,0.0,0.0,0.0,0.0,0.0,0.0,0.0,0.0,0.0,0.0,0.0,0.0,0.0,0.0,0.0,0.0,0.0,0.0,0.0,0.0,0.0,2.4482,2.4752,2.4977,2.4866,2.5126,2.5273,2.5107,2.5076,2.5397,2.6186,2.5862,2.6113,2.7132,2.7004,2.704,2.7289,2.7305,2.6942,2.6157,2.6138,2.574,2.4977,2.5101,2.5172,2.5153,2.5282,2.5332,2.5293,2.5243,2.5173,2.5102,2.5046,2.5022,2.5022,2.4991,2.5053,2.5115,2.5111,2.5099,2.5107,0.9684,0.9782,0.9863,0.9904,1.0467,1.1016,1.1293,1.2584,1.3628,1.3932,1.4756,1.5637,1.6497,1.6654,1.7285,1.8746,1.8862,1.9507,2.1012,2.1299,2.18,2.2652,2.2918,2.3313,2.3938,2.3949,2.4257,2.4895,2.5065,2.5138,2.5158,2.5401,2.5457,2.5389,2.5482,2.536,2.5059,2.5219,2.5122,2.475,2.3261,2.2457,2.2092,0.0,0.0,0.0,0.0,0.0,0.0,0.0,0.0,0.0,0.0,0.0,0.0,0.0,0.0,0.0,0.0,0.0,0.0,0.0,0.0,0.0,0.0,0.0,0.0,0.0,0.0,0.0,0.0,0.0,0.0,0.0,0.0,2.5281,2.4954,2.5168,2.5569,2.6101,2.6217,2.6458,2.6979,2.6943,2.6942,2.7053,2.6874,2.6902,2.717,2.7156,2.722,2.7433,2.7399,2.7319,2.7203,2.7082,2.6925,2.6712,2.6848,2.6606,2.6051,2.6186,2.5918,2.5368,2.5403,2.541,2.5383,2.5372,2.5352,2.5331,2.508,2.5099,2.5243,2.5253,2.5313,2.5385,0.9773,0.9875,0.9952,0.9986,1.0737,1.1475,1.1872,1.3086,1.4097,1.4487,1.5309,1.6189,1.7087,1.7519,1.8295,1.9635,2.0057,2.0677,2.1696,2.2405,2.317,2.4004,2.3991,2.4185,2.4671,2.4602,2.4803,2.5305,2.5277,2.5249,2.5249,2.5252,2.5241,2.5247,2.5345,2.5386,2.5388,2.5507,2.5552,2.5479,2.4508,2.3902,2.3524,2.3042,2.2477,2.1842,2.1288,2.0699,2.0092,1.9687,0.0,0.0,0.0,0.0,0.0,0.0,0.0,0.0,0.0,0.0,0.0,0.0,0.0,0.0,0.0,0.0,0.0,0.0,0.0,0.0,0.0,0.0,0.0,0.0,2.5936,2.6165,2.6366,2.6229,2.6398,2.7226,2.7297,2.7435,2.7887,2.7827,2.7901,2.8169,2.803,2.8099,2.8553,2.846,2.8479,2.8715,2.8681,2.8523,2.8236,2.8154,2.7937,2.7612,2.7727,2.7514,2.7052,2.6803,2.6432,2.5965,2.5679,2.5535,2.554,2.551,2.5499,0.0,0.0,0.0,0.0,0.0,2.5466,2.5543,0.9929,0.9971,1.003,1.008,1.0897,1.1806,1.2601,1.3529,1.4437,1.5204,1.607,1.6952,1.7887,1.8719,1.9552,2.041,2.123,2.1779,2.1951,2.3509,2.473,2.5414,2.5337,2.5245,2.5171,2.4993,2.4904,2.4915,2.4902,2.4902,2.4902,2.4902,2.4993,2.5128,2.5168,2.5262,2.5408,2.5454,2.546,2.546,2.5498,2.5114,2.4452,2.3671,2.3257,2.3068,2.3069,2.2925,2.2746,2.2751,0.0,0.0,0.0,0.0,0.0,0.0,0.0,0.0,0.0,0.0,0.0,0.0,0.0,0.0,0.0,0.0,0.0,0.0,0.0,0.0,0.0,0.0,0.0,0.0,2.6933,2.734,2.8217,2.7678,2.7483,2.8255,2.8349,2.8369,2.8374,2.8332,2.8618,2.9385,2.9215,2.9498,3.0472,0.0,0.0,0.0,0.0,3.0029,2.928,2.9272,2.8905,2.8212,2.8257,2.826,2.8125,2.7421,2.7048,2.6909,2.6106,2.5745,2.573,2.5576,2.5521,2.551,2.5492,2.5498,2.5511,2.5576,2.5589,2.559,1.0115,1.0025,1.0085,1.011,1.1409,1.2509,1.2751,1.4126,1.5192,1.5369,1.6133,1.701,1.7827,1.8695,1.9536,2.0342,2.1201,2.2249,2.3547,2.4602,2.5189,2.5186,2.5143,2.5107,2.5043,2.4943,2.4904,2.4904,2.4896,2.4902,2.4902,2.4902,2.4874,2.4799,2.491,2.4917,2.4877,2.5128,2.5262,2.5271,2.5421,2.545,2.5347,2.5174,2.4709,2.4101,2.4119,2.3644,2.301,2.2958,2.2909,2.2858,2.2771,2.2675,0.0,0.0,0.0,0.0,0.0,0.0,0.0,0.0,0.0,0.0,0.0,0.0,0.0,0.0,0.0,0.0,0.0,0.0,0.0,2.6759,2.7449,2.8256,2.9132,2.9106,2.9051,2.9238,2.9249,2.9484,3.0055,3.0101,3.0134,3.025,3.0217,3.0305,3.0571,3.0462,3.0462,3.056,3.051,3.0433,3.0316,3.0319,3.0229,3.0074,0.0,0.0,2.9129,2.8963,2.8548,2.7878,2.7022,2.6654,2.6598,2.593,2.5623,2.5574,2.5515,2.5526,2.5574,2.5597,2.5606,2.5595,1.0829,1.0437,1.0292,1.0723,1.1882,1.29,1.3372,1.4565,1.5408,1.5408,1.6535,1.7503,1.7908,1.9025,1.99,2.0305,2.1487,2.2904,2.4543,2.5024,2.5214,2.5096,2.4917,2.4776,2.4752,2.4632,2.4519,2.4454,2.4522,2.4556,2.4556,2.4472,2.4543,2.4707,2.4648,2.4712,2.4804,2.4981,2.5091,2.5156,2.5254,2.5391,2.5504,2.5561,2.5352,2.4996,2.5,2.4736,2.4392,2.4315,2.4277,2.4238,2.4171,2.412,2.406,0.0,0.0,0.0,0.0,0.0,0.0,0.0,0.0,0.0,0.0,0.0,0.0,0.0,0.0,2.6052,0.0,0.0,2.7601,2.8065,2.8535,2.9145,3.0026,3.0157,3.0141,3.0143,3.015,3.0306,3.0661,3.0696,3.0691,3.0647,3.0625,3.0607,3.0652,3.0583,3.0568,3.0607,3.0571,3.0571,3.0601,3.0607,3.0594,3.0594,3.0633,3.0433,3.0048,2.9666,2.9277,2.8859,2.7982,2.7359,2.6892,2.6048,2.5657,2.5598,2.5566,2.5576,2.5593,2.5631,2.5622,2.5605,1.1773,1.1186,1.0875,1.1406,1.2216,1.3092,1.3965,1.4843,1.5406,1.5387,1.6741,1.7783,1.7936,1.9197,2.0237,2.0727,2.1938,2.336,2.4992,2.5049,2.4968,2.4917,2.4598,2.4422,2.4405,2.4248,2.4096,2.3996,2.4096,2.4154,2.4154,2.4056,2.4192,2.451,2.4388,2.447,2.4723,2.4766,2.4896,2.5012,2.5049,2.5165,2.5354,2.5459,2.5546,2.5605,2.5609,2.5629,2.5671,2.5629,2.5601,2.5586,2.5537,2.5529,2.5521,2.5529,2.5486,0.0,0.0,0.0,0.0,0.0,0.0,0.0,0.0,0.0,2.5627,2.5687,2.6391,2.7019,2.7064,2.7774,2.8612,2.9382,2.9648,3.0001,3.0707,3.0794,3.0796,3.0804,3.0794,3.0801,3.0801,3.0801,3.0801,3.0801,3.0758,3.0724,3.0724,3.0667,3.0631,3.0638,3.0599,3.0609,3.0626,3.0622,3.0637,3.0637,3.0703,3.0735,3.0716,3.011,2.9843,2.9766,2.871,2.777,2.6887,2.6015,2.5623,2.5576,2.5574,2.5563,2.5546,2.5623,2.5633,2.557,1.2787,1.2589,1.2304,1.1624,1.2228,1.3081,1.3965,1.4842,1.5382,1.5326,1.6143,1.7019,1.7663,1.857,2.0024,2.2246,2.2547,2.3233,2.4671,2.4685,2.4535,2.4229,2.4174,2.4116,2.4057,2.4018,2.4016,2.3996,2.4016,2.4016,2.4016,2.4016,2.3958,2.3901,2.3999,2.4078,2.4118,2.4351,2.457,2.4749,2.4874,2.5,2.513,2.5154,2.534,2.5595,2.5591,2.5609,2.5605,2.5601,2.5601,2.5601,2.5586,2.558,2.5586,2.5585,0.0,2.5648,2.5521,0.0,0.0,2.5465,2.5441,2.5434,0.0,0.0,2.6719,2.6734,2.7422,2.8033,2.8033,2.877,2.9393,2.9564,3.0191,3.0682,3.0799,3.0799,3.0799,3.0799,3.0799,3.0801,3.0801,3.0801,3.0801,3.0801,3.0799,3.0796,3.0796,3.0721,3.0714,3.0781,3.0664,3.0621,3.0682,3.0754,3.0779,3.0779,3.0859,3.0878,3.0878,3.0781,3.0698,3.0487,2.8844,2.7625,2.6744,2.5881,2.5511,2.5507,2.5513,2.5443,2.5356,2.5479,2.5517,2.5502,1.3553,1.3093,1.2793,1.293,1.328,1.3841,1.4676,1.5112,1.5332,1.5306,1.6025,1.6663,1.6966,1.8093,1.961,2.1536,2.162,2.2168,2.3662,2.3715,2.3802,2.4098,2.3941,2.384,2.3816,2.3816,2.3792,2.3721,2.3792,2.3816,2.3816,2.3747,2.3747,2.3795,2.3816,2.3878,2.3999,2.4211,2.4424,2.4657,2.4749,2.4861,2.4987,2.5072,2.5196,2.5316,2.5452,2.5511,0.0,2.5537,2.5544,2.5544,2.5544,2.5529,2.5552,2.5593,2.5616,0.0,2.5625,0.0,0.0,0.0,2.5928,2.626,2.6362,2.7027,2.7624,2.7696,2.841,2.8996,2.8954,2.9659,3.0271,0.0,3.0586,3.0794,3.0806,3.0792,3.0796,3.08,3.0801,3.0801,3.0795,3.0798,3.08,3.08,3.076,3.0739,3.0739,3.0718,3.0712,3.0738,3.0696,3.0668,3.0704,3.0735,3.0742,3.0742,3.0765,3.0788,3.0788,3.0739,3.0685,3.0565,2.9133,2.8105,2.7355,2.6366,2.5672,2.5213,2.5215,2.5149,2.5088,2.531,2.531,2.5196,1.4384,1.3866,1.3616,1.4247,1.4374,1.4612,1.5206,1.5299,1.5287,1.5274,1.5782,1.6298,1.6676,1.7867,1.9246,2.0814,2.0807,2.1393,2.2919,2.2941,2.316,2.3803,2.3628,2.3495,2.3432,2.341,2.3376,2.3271,2.3376,2.3473,2.3518,2.3389,2.3458,2.3646,2.3602,2.3689,2.3858,2.4057,2.4266,2.4493,2.4594,2.4738,2.4847,2.4936,2.5037,2.513,2.534,2.543,2.5493,2.5495,2.5507,2.5522,2.5515,2.5505,2.5537,2.56,2.5609,2.5637,2.5684,0.0,0.0,2.5996,2.6463,2.6921,2.722,2.7908,2.8515,2.8605,2.9316,2.9918,2.9865,3.0372,3.0804,3.0794,3.0807,3.0801,3.0796,3.08,3.0801,3.0797,3.0808,3.0788,3.0779,3.0776,3.0771,3.0777,3.0726,3.07,3.07,3.0685,3.0672,3.0662,3.0667,3.067,3.0664,3.0681,3.0667,3.0667,3.0686,3.0706,3.0706,3.0568,3.0513,3.0428,2.925,2.8491,2.8,2.6768,2.5879,2.5272,2.5056,2.4911,2.4874,2.5034,2.5045,2.4936,1.5344,1.5272,1.5239,1.5255,1.5201,1.5202,1.5292,1.5295,1.5289,1.5211,1.5218,1.5758,1.7122,1.7956,1.9057,2.0667,2.0667,2.1228,2.2703,2.2679,2.2758,2.3116,2.3126,2.3003,2.2756,2.2712,2.273,2.2712,2.273,2.2859,2.3119,2.2995,2.307,2.3313,2.3313,2.3394,2.3544,2.3876,2.4095,2.4229,2.4429,2.4582,2.4707,2.4723,2.4865,2.5137,2.5332,2.5429,2.5495,2.5499,2.5543,2.5595,2.5525,2.5543,2.5595,2.5605,2.5642,2.5701,0.0,0.0,2.5895,2.6754,2.6988,2.7224,2.8066,2.8886,2.9468,2.9458,3.0167,3.0757,3.0762,3.0771,3.0806,3.0797,3.0799,3.08,3.0798,3.0797,3.0797,3.0797,3.0808,3.0774,0.0,3.0696,3.0703,3.07,3.07,3.07,3.07,3.0642,3.0601,3.0601,3.061,3.0607,3.0607,3.0595,3.06,3.06,3.067,3.0706,3.0681,3.0433,3.0282,3.014,2.907,2.8597,2.8446,2.6797,2.6081,2.5987,2.5205,2.4818,2.4707,2.4639,2.4693,2.4823,1.5403,1.535,1.5296,1.531,1.5207,1.5143,1.5166,1.5133,1.5121,1.512,1.5056,0.0,0.0,0.0,0.0,0.0,1.9366,1.9972,2.0819,2.1256,2.1684,2.2167,2.2598,2.2782,2.2703,2.2703,2.2703,2.2703,2.2703,2.2756,2.2833,2.2876,2.2944,2.3045,2.3217,2.3365,2.3513,2.371,2.3939,2.4135,2.4266,2.441,2.4582,2.4719,2.4818,2.4929,0.0,2.5303,2.5374,2.5476,2.5511,2.5531,2.5564,2.5579,2.5619,2.5642,2.5681,2.5709,2.5693,0.0,2.6622,2.6861,2.7805,2.8732,2.9031,2.9745,3.0369,3.0364,3.0591,3.0799,3.0794,3.0808,3.0796,3.0799,3.0801,3.0798,3.0806,3.0804,3.0774,3.0743,3.0735,0.0,0.0,0.0,0.0,3.0633,3.0625,3.063,3.063,3.0618,3.0593,3.0593,3.0597,3.0588,3.053,3.053,3.0539,3.052,3.0423,3.0404,3.0492,3.0037,2.995,3.0106,2.9413,2.8895,2.8418,2.7715,2.6801,2.5808,2.5476,2.489,2.4229,2.4155,2.4042,2.3968,1.5405,1.5345,1.529,1.5306,1.5217,0.0,0.0,0.0,0.0,0.0,0.0,0.0,0.0,0.0,0.0,0.0,0.0,1.9219,1.9755,2.0185,2.077,2.1487,2.1928,2.2226,2.2392,2.2364,2.2364,2.2364,2.2364,2.2419,2.25,2.2554,2.2703,2.2952,2.3077,2.3271,2.3504,2.3646,2.4003,2.4481,2.4302,2.4523,2.4959,2.4817,2.4794,0.0,2.505,2.5179,2.5254,2.5406,2.5485,2.5512,2.5587,2.562,2.5648,2.5697,2.5707,2.5765,2.6058,2.6546,2.7105,2.7671,2.8677,2.9588,2.989,3.04,3.08,3.0801,3.0797,3.081,3.081,3.0796,3.08,3.08,3.08,3.0792,3.0768,3.0762,3.0743,3.0716,3.0671,0.0,0.0,0.0,0.0,3.0604,3.0597,3.0598,3.0598,3.0598,3.0598,3.0559,3.0559,3.053,3.05,3.0419,3.0364,3.0273,3.015,3.0142,3.0221,2.9784,2.9715,2.9896,2.9474,2.9052,2.8612,2.8036,2.7193,2.6217,2.5548,2.4858,2.4203,2.3886,2.3649,2.3544,1.5465,1.5405,1.5359,0.0,0.0,0.0,0.0,0.0,0.0,0.0,0.0,0.0,0.0,0.0,0.0,0.0,0.0,0.0,1.9475,1.9563,2.001,2.1028,2.1104,2.1316,2.1744,2.1731,2.1748,2.1797,2.1797,2.1899,2.2096,2.2039,2.2375,2.2968,2.2952,2.3144,2.3517,2.3646,2.4272,2.5098,2.4543,2.487,2.5606,2.4901,2.4678,2.4766,2.4898,2.5,2.513,0.0,0.0,0.0,0.0,2.5639,2.5695,2.5695,2.5714,2.5933,2.6693,2.6965,2.7433,2.9085,2.9533,2.978,3.0609,3.0791,3.0799,3.0793,3.0801,3.08,0.0,0.0,3.08,3.08,3.08,3.0767,3.0708,3.07,3.0697,0.0,0.0,0.0,0.0,0.0,0.0,3.0598,0.0,3.0598,3.0598,3.0588,3.0559,3.0491,3.0481,3.0471,3.0469,3.0285,3.0089,2.9912,2.9896,2.9899,2.9886,2.9681,2.9589,2.9589,2.9267,2.913,2.9034,2.7869,2.7363,2.7158,2.5481,2.4764,2.458,2.3822,2.3495,2.3455,0.0,0.0,0.0,0.0,0.0,0.0,0.0,0.0,0.0,0.0,0.0,0.0,0.0,0.0,0.0,0.0,0.0,0.0,1.8489,1.8935,1.9275,1.9403,1.984,2.0388,2.1026,2.0998,2.1234,2.1797,2.1797,2.1827,2.1899,2.2231,2.2535,2.2807,2.3077,2.3313,2.3517,2.375,2.4049,2.4372,2.443,2.4302,2.4076,2.3936,2.3898,2.392,2.4056,2.453,0.0,0.0,0.0,0.0,0.0,2.5493,2.5546,2.5546,2.6043,2.6634,2.6848,2.7842,2.8929,2.9396,2.9981,3.0531,3.0754,3.0798,3.0794,3.0799,3.0799,3.08,0.0,0.0,0.0,3.08,3.0752,0.0,3.07,3.0703,0.0,0.0,0.0,3.0593,3.0597,3.0607,0.0,0.0,3.0598,3.0598,3.0598,3.0469,3.0364,3.0352,3.0209,3.0109,3.0047,3.0007,2.9946,2.9902,2.975,2.975,2.9886,2.9589,2.9512,2.9589,2.9411,2.9304,2.9265,2.8659,2.8062,2.7455,2.6687,2.5579,2.4357,2.4123,2.3551,2.291,0.0,0.0,0.0,0.0,0.0,0.0,0.0,0.0,0.0,0.0,0.0,0.0,0.0,0.0,0.0,0.0,0.0,0.0,0.0,1.8413,1.8648,1.8798,1.9127,1.962,2.029,2.0279,2.06,2.1301,2.0986,2.0974,2.1288,2.1686,2.1994,2.2194,2.2919,2.3389,2.3743,2.3834,2.4039,0.0,0.0,2.3802,2.3507,2.3226,2.3348,2.3708,2.3828,2.4457,0.0,0.0,0.0,2.5414,2.5418,2.5467,2.551,2.5571,0.0,2.6985,2.7374,2.8466,2.9591,2.9961,3.0429,3.0799,3.0799,3.0798,3.0798,3.0791,3.0795,0.0,0.0,0.0,0.0,0.0,0.0,0.0,3.0695,3.0697,3.0678,0.0,3.0595,0.0,3.051,3.051,3.049,0.0,3.0509,3.051,3.051,3.0371,3.0267,3.0215,3.0099,2.9965,2.9765,2.9767,2.9734,2.9681,2.957,2.957,2.9663,2.939,2.9307,2.9373,0.0,2.8957,2.8887,2.8471,2.8021,2.7486,2.6853,2.5981,2.4993,2.4303,2.3665,2.3133,0.0,0.0,0.0,0.0,0.0,0.0,0.0,0.0,0.0,1.6526,1.687,1.6915,0.0,0.0,0.0,0.0,0.0,0.0,0.0,0.0,1.8172,1.8701,1.8687,1.8943,1.9525,1.9541,1.9864,2.0511,1.9926,1.9942,2.0539,2.0877,2.1174,2.1455,2.2422,2.316,2.3668,2.363,2.3805,2.4048,2.345,2.3263,2.3252,0.0,2.3012,2.3705,2.4053,0.0,0.0,0.0,2.5233,2.5406,2.5434,2.5486,2.5515,2.5639,2.626,2.7082,2.7959,2.8831,2.9708,3.0585,3.0799,3.0799,3.0799,3.0799,3.0793,3.0801,0.0,0.0,3.08,0.0,3.0799,3.08,0.0,3.0771,3.0706,3.0689,3.0665,3.0578,3.0559,3.051,3.0406,3.0394,3.0359,3.0292,3.0336,3.0364,3.0364,3.0273,3.0152,3.0,3.0019,2.9872,2.9589,2.957,2.9512,2.9365,2.9365,2.9365,2.9304,2.9134,2.9067,2.9044,2.8651,0.0,2.8309,2.7876,2.7642,2.7457,2.6584,2.6195,2.5954,2.458,2.4029,2.3812,0.0,0.0,0.0,0.0,0.0,0.0,0.0,0.0,0.0,0.0,1.7795,1.7262,0.0,0.0,0.0,0.0,0.0,0.0,0.0,0.0,0.0,1.8293,1.8092,1.8172,1.8616,1.8776,1.9116,1.9646,1.9721,1.9915,2.0187,2.0543,2.0802,2.1005,2.1441,2.174,2.1953,2.2168,2.2333,2.2503,2.2666,2.2342,2.1845,2.2498,0.0,0.0,2.464,0.0,0.0,2.5284,2.5293,2.5313,2.5274,2.5376,2.5504,2.5535,2.6174,2.7082,2.7959,2.8831,2.9708,3.0585,3.0799,3.0799,3.0799,3.0799,0.0,0.0,0.0,3.0797,3.0798,3.0797,0.0,3.0798,0.0,0.0,0.0,0.0,3.0568,0.0,0.0,0.0,0.0,0.0,0.0,0.0,0.0,3.0161,3.015,2.9931,2.9717,2.9531,2.9511,2.9491,2.9429,2.9429,2.9347,2.9152,2.9152,2.9067,2.891,2.8863,2.8863,2.8839,2.8615,0.0,2.8446,2.7954,2.776,2.7683,2.7265,2.6695,2.6074,2.5816,2.5167,2.4356,0.0,0.0,0.0,0.0,0.0,0.0,0.0,2.0349,2.0186,1.9734,1.9234,1.8654,1.8008,1.862,1.8981,0.0,0.0,0.0,0.0,0.0,0.0,0.0,0.0,0.0,1.8245,1.8225,0.0,0.0,0.0,1.9158,1.9734,2.0044,2.0283,2.0507,2.1167,2.1642,2.1922,2.2014,2.1901,2.1702,2.1888,2.1493,2.0868,0.0,0.0,0.0,0.0,0.0,0.0,2.5374,2.5374,2.5387,2.5329,2.5391,2.551,2.5576,2.6227,2.7082,2.7959,2.8831,2.9708,3.0585,3.0799,3.0799,3.0799,0.0,0.0,0.0,0.0,3.081,3.0796,0.0,0.0,0.0,0.0,0.0,0.0,0.0,0.0,0.0,0.0,0.0,0.0,0.0,0.0,0.0,0.0,2.9969,3.0026,2.9751,2.9551,2.947,2.9409,2.9407,2.9407,2.9407,2.9365,2.9262,2.9262,2.9218,2.9112,2.891,2.8797,2.8773,2.8404,0.0,2.8075,2.7789,2.76,2.7526,2.7376,2.7057,2.6678,2.6264,2.5702,2.506,0.0,0.0,0.0,0.0,0.0,0.0,0.0,2.0683,2.0759,2.0924,2.0903,2.0534,1.962,1.9669,1.9738,0.0,0.0,0.0,0.0,0.0,0.0,0.0,0.0,0.0,0.0,0.0,0.0,0.0,0.0,0.0,0.0,0.0,0.0,0.0,2.0831,2.1414,2.1784,2.1746,2.1483,0.0,0.0,2.0908,0.0,0.0,0.0,0.0,0.0,0.0,0.0,0.0,2.5499,2.5521,2.5453,2.5493,2.5551,2.5667,2.6147,2.6829,2.7686,2.8563,2.9435,3.0292,3.0662,3.0799,3.0799,3.0662,0.0,0.0,0.0,3.0292,3.0499,0.0,3.0579,0.0,0.0,0.0,0.0,0.0,0.0,0.0,0.0,0.0,0.0,0.0,0.0,0.0,0.0,0.0,2.9891,2.9626,2.9491,2.9491,2.9429,2.9407,2.9407,2.9365,2.9304,2.9283,2.924,2.9178,2.9134,2.8815,2.8669,2.8626,2.8146,0.0,0.0,2.7509,2.739,2.7299,2.7299,2.7299,2.7213,2.6513,2.6085,2.571,0.0,0.0,0.0,0.0,0.0,0.0,0.0,2.1611,2.1858,2.2656,2.2754,2.2693,2.252,2.099,1.9943,0.0,0.0,0.0,0.0,0.0,0.0,0.0,0.0,0.0,0.0,0.0,0.0,0.0,0.0,0.0,0.0,0.0,0.0,0.0,0.0,0.0,2.0124,2.0174,0.0,0.0,0.0,0.0,0.0,0.0,0.0,0.0,0.0,0.0,0.0,0.0,0.0,2.5678,2.5595,2.5634,2.5675,2.5699,0.0,0.0,2.6809,2.7667,2.8524,2.9396,3.0214,3.0799,3.0799,0.0,0.0,0.0,2.9,2.8686,2.9467,0.0,0.0,0.0,0.0,3.0652,0.0,0.0,0.0,0.0,0.0,0.0,0.0,0.0,0.0,0.0,0.0,0.0,2.9551,2.947,2.9407,2.9407,2.9407,2.9407,2.9407,2.9218,2.9044,2.8845,2.8669,2.8484,2.8318,2.8264,2.8264,2.8237,2.7876,0.0,0.0,2.7421,2.7313,2.7299,2.7299,2.7299,2.725,2.6872,2.6556,2.62,0.0,0.0,0.0,0.0,0.0,0.0,2.1756,2.2226,2.2667,2.3008,2.3059,2.3023,2.2963,2.2258,2.1543,2.0862,0.0,0.0,0.0,0.0,0.0,0.0,0.0,0.0,0.0,0.0,0.0,0.0,0.0,0.0,0.0,0.0,0.0,0.0,0.0,0.0,0.0,0.0,0.0,0.0,0.0,0.0,0.0,0.0,0.0,0.0,0.0,0.0,0.0,0.0,0.0,0.0,2.5675,2.5675,0.0,0.0,2.5707,2.5882,2.6673,2.716,2.7628,2.8505,2.8987,2.924,2.924,0.0,0.0,2.8714,2.8435,2.831,2.8661,2.9145,2.9613,0.0,3.0399,0.0,3.0516,0.0,0.0,0.0,0.0,0.0,0.0,0.0,0.0,0.0,0.0,0.0,2.9332,2.9265,2.9218,2.9218,2.9112,2.9026,2.9026,2.8957,2.8887,2.8797,2.8718,2.8644,2.8543,2.8432,2.838,2.8353,2.7904,0.0,0.0,2.7421,2.7169,2.7006,2.7006,2.6908,2.6742,2.6624,2.6383,2.6068,0.0,0.0,0.0,0.0,0.0,2.1903,2.2426,2.3035,2.3521,2.3785,2.3808,2.3789,2.374,2.3714,2.3293,2.2287,2.1826,0.0,0.0,0.0,0.0,0.0,0.0,0.0,0.0,0.0,1.9486,1.9667,1.9987,0.0,0.0,0.0,0.0,0.0,0.0,0.0,0.0,0.0,0.0,0.0,0.0,0.0,0.0,0.0,0.0,0.0,0.0,0.0,0.0,0.0,0.0,0.0,0.0,2.5675,2.5672,0.0,2.5694,2.5827,2.6385,2.6712,2.7043,2.7667,2.8017,2.8193,0.0,0.0,0.0,2.7842,2.7647,2.753,2.7764,2.8524,2.9201,2.9455,3.018,3.0685,3.0552,0.0,0.0,0.0,0.0,0.0,0.0,0.0,0.0,0.0,0.0,0.0,2.9185,2.9071,2.9021,2.9021,2.8863,2.8797,2.8797,2.8743,2.8718,2.8718,2.8644,2.8619,2.8619,2.8484,2.8406,2.8309,2.78,0.0,0.0,2.7184,2.6875,2.6691,2.6691,2.659,2.6383,2.6314,2.6154,2.5974,0.0,0.0,0.0,0.0,0.0,0.0,2.3914,2.4183,2.4505,2.5365,2.5484,2.5472,2.5473,2.5403,2.5024,2.4157,2.3275,0.0,0.0,0.0,0.0,0.0,0.0,0.0,0.0,0.0,2.0792,2.0773,2.1855,2.2451,2.2569,2.2629,0.0,0.0,0.0,0.0,0.0,0.0,0.0,0.0,0.0,0.0,0.0,0.0,0.0,0.0,0.0,0.0,0.0,0.0,0.0,0.0,0.0,2.559,2.5618,2.5687,2.5701,2.5694,2.571,2.6291,2.6907,2.6907,2.7569,2.8193,0.0,0.0,0.0,2.6997,2.6326,2.5972,2.6771,2.7628,2.8505,2.9357,3.0234,3.0759,3.0618,0.0,0.0,0.0,0.0,0.0,0.0,0.0,0.0,0.0,0.0,0.0,2.9112,2.891,2.8797,2.8797,2.8797,2.8797,2.8797,2.8594,2.8492,2.8492,2.8318,2.8209,2.8209,2.8209,2.8126,0.0,0.0,0.0,0.0,2.6624,2.6418,2.6418,2.6418,2.6418,2.6383,2.6118,2.601,2.5954,0.0,0.0,0.0,0.0,0.0,0.0,0.0,2.4563,2.5078,2.5389,2.542,2.5438,2.5425,2.5411,2.5303,2.5087,2.4219,0.0,0.0,0.0,0.0,0.0,0.0,0.0,0.0,0.0,2.2084,2.2172,2.2454,2.2672,2.2808,2.2827,2.2832,2.2834,0.0,0.0,0.0,0.0,0.0,0.0,0.0,0.0,0.0,0.0,0.0,0.0,0.0,0.0,0.0,0.0,0.0,0.0,0.0,0.0,0.0,2.562,2.5624,2.5644,2.5696,2.5885,2.6076,2.6077,2.6286,2.6481,2.6484,0.0,0.0,2.6104,2.5886,2.596,2.6751,2.7608,2.8485,2.9357,3.0234,3.0734,0.0,0.0,0.0,0.0,0.0,0.0,0.0,0.0,0.0,0.0,0.0,0.0,2.891,2.8821,2.8743,2.8594,2.844,2.838,2.838,2.8327,2.8273,2.8273,2.8237,2.8154,2.8071,2.8071,2.7968,0.0,0.0,0.0,0.0,2.7023,2.664,2.6154,2.6314,2.6189,2.5844,2.5749,2.5712,2.5712,0.0,0.0,0.0,0.0,0.0,0.0,0.0,2.476,2.5139,2.5111,2.5196,2.5224,2.5186,2.5167,2.5186,2.5224,2.4697,0.0,0.0,0.0,0.0,0.0,0.0,0.0,2.2706,2.301,2.3208,2.3298,2.3535,2.3686,2.3766,2.3743,2.3683,2.3638,2.3636,0.0,0.0,0.0,0.0,0.0,0.0,0.0,2.5195,0.0,0.0,0.0,0.0,0.0,0.0,0.0,0.0,0.0,0.0,0.0,0.0,0.0,2.5566,2.5587,2.5643,2.5683,2.5698,2.5709,2.5698,0.0,0.0,0.0,2.5704,2.5701,2.5948,2.6311,2.6809,2.7881,2.8866,2.9371,3.0164,3.0652,0.0,0.0,0.0,0.0,0.0,0.0,0.0,0.0,0.0,0.0,0.0,0.0,2.87,2.8694,2.8594,2.8406,2.8264,2.8182,2.8182,2.8182,2.8182,2.8182,2.8182,2.8154,2.8071,2.8025,2.7836,0.0,0.0,0.0,0.0,2.6657,2.6347,2.5881,2.6046,2.5881,2.5616,2.5616,2.5616,2.5616,0.0,0.0,0.0,0.0,0.0,0.0,0.0,2.4785,2.4799,2.4613,2.4809,2.4929,2.4804,2.479,2.479,2.479,0.0,0.0,0.0,0.0,0.0,0.0,0.0,0.0,2.3064,2.3787,2.4157,2.4157,2.4856,2.5182,2.5182,2.5117,2.5039,2.4953,2.4953,2.4941,0.0,0.0,0.0,0.0,0.0,2.548,0.0,0.0,0.0,0.0,0.0,0.0,0.0,0.0,0.0,0.0,0.0,0.0,0.0,0.0,0.0,0.0,0.0,2.5642,2.5683,2.5701,2.5691,2.5696,2.5698,2.5707,0.0,2.5785,2.6396,2.6946,2.7063,2.8403,2.9493,2.9493,3.0106,0.0,0.0,3.0259,0.0,0.0,0.0,0.0,0.0,0.0,0.0,0.0,0.0,0.0,2.8518,2.8492,2.8406,2.8209,2.8182,2.8182,2.8182,2.8182,2.8182,2.8182,2.8182,2.8182,2.8154,2.8014,2.7701,0.0,0.0,0.0,0.0,2.5749,2.5654,2.5616,2.5616,2.5616,2.5616,2.5616,2.5616,2.5616,0.0,0.0,0.0,0.0,0.0,0.0,0.0,0.0,0.0,0.0,2.4586,2.4601,2.457,2.457,2.4586,0.0,0.0,0.0,0.0,0.0,0.0,0.0,0.0,0.0,2.4574,2.471,2.4794,2.4794,2.4966,2.5048,2.5053,2.5027,2.4847,2.4535,2.4535,2.4377,0.0,0.0,0.0,0.0,2.4377,2.4467,0.0,0.0,0.0,0.0,2.5,2.5061,0.0,0.0,0.0,0.0,0.0,0.0,0.0,0.0,2.5498,2.5506,2.5579,0.0,2.5637,2.5683,2.5702,2.57,0.0,2.5703,2.5893,2.6568,2.6835,2.7374,2.8641,2.9171,2.9622,3.0224,3.0388,3.0404,3.0271,0.0,0.0,0.0,0.0,0.0,0.0,0.0,0.0,0.0,0.0,2.87,2.8518,2.8492,2.8406,2.8209,2.8182,2.8182,2.8182,2.8182,2.8182,2.8182,2.8182,2.8053,2.7818,2.7565,2.7272,0.0,0.0,0.0,2.601,2.6137,2.5974,2.5616,2.5807,2.5787,2.5616,2.5616,2.5616,2.5616,0.0,0.0,0.0,0.0,0.0,0.0,0.0,0.0,0.0,0.0,0.0,2.4081,2.4081,2.4005,0.0,0.0,0.0,0.0,0.0,0.0,0.0,0.0,0.0,2.4843,2.4878,2.492,2.4946,2.4953,2.4752,2.4622,2.4625,2.4449,2.4244,2.4044,2.4044,2.3908,0.0,0.0,0.0,0.0,2.434,0.0,0.0,0.0,0.0,0.0,2.4718,2.4836,0.0,2.4968,2.5065,2.5173,0.0,0.0,0.0,0.0,2.5495,2.551,2.5543,2.5574,2.5605,2.5655,2.5683,2.5703,2.5691,2.6017,2.6423,2.69,2.7615,2.8427,2.9323,2.9744,3.0074,0.0,3.0404,0.0,0.0,0.0,0.0,0.0,0.0,0.0,0.0,0.0,0.0,0.0,0.0,2.8863,2.8398,2.8353,2.83,2.8209,2.8182,2.8182,2.8182,2.8182,2.8182,2.8182,2.8182,2.8053,2.7836,2.7595,2.7227,0.0,0.0,0.0,2.5807,2.5974,2.5844,2.5616,2.5749,2.5712,2.5616,2.5616,2.5616,2.5616,0.0,0.0,0.0,0.0,0.0,0.0,0.0,0.0,0.0,0.0,0.0,0.0,0.0,0.0,0.0,0.0,0.0,0.0,0.0,0.0,0.0,0.0,0.0,2.4388,2.4501,2.4647,2.4714,2.4771,2.4314,2.4118,2.41,2.3783,2.361,2.3566,2.354,2.3518,0.0,0.0,0.0,2.3549,2.4494,0.0,0.0,0.0,0.0,0.0,0.0,0.0,0.0,2.4855,2.493,2.4986,2.5091,0.0,0.0,0.0,0.0,0.0,2.5495,2.5543,2.5598,2.5601,2.5641,2.5703,2.5691,2.6366,2.7022,2.7153,2.8404,2.9522,2.9645,3.0147,0.0,0.0,0.0,0.0,3.1113,0.0,0.0,0.0,0.0,0.0,0.0,0.0,0.0,0.0,0.0,2.9101,2.8441,2.8253,2.8182,2.8182,2.8182,2.8182,2.8182,2.8182,2.8182,2.8182,2.8182,2.8126,2.794,2.773,2.7289,2.6691,0.0,0.0,2.5654,2.5616,2.5616,2.5616,2.5616,2.5616,2.5616,2.5616,2.5616,2.5616,0.0,0.0,0.0,0.0,0.0,0.0,0.0,0.0,0.0,0.0,0.0,0.0,0.0,0.0,0.0,0.0,0.0,0.0,0.0,0.0,0.0,2.2755,2.3333,2.3785,2.4079,2.3905,2.3905,2.4135,2.3842,2.3699,2.3678,2.3798,2.3735,2.35,2.3283,2.3077,2.2952,2.3249,2.3157,2.2876,2.32,0.0,0.0,0.0,0.0,0.0,0.0,0.0,0.0,2.4493,2.47,2.4828,2.4845,0.0,0.0,0.0,0.0,0.0,2.5498,2.5543,2.5604,2.5595,2.5659,2.5703,2.5691,2.6366,2.7198,2.7872,2.8768,2.9615,3.0303,3.0384,3.0348,0.0,0.0,0.0,0.0,0.0,0.0,0.0,0.0,0.0,0.0,0.0,0.0,0.0,0.0,2.9351,2.9226,2.8584,2.8182,2.8182,2.8182,2.8182,2.8182,2.8182,2.8182,2.8182,2.8182,2.8025,2.773,2.7457,2.7147,2.6758,0.0,2.601,2.5917,2.5675,2.5616,2.5616,2.5616,2.5616,2.5616,2.5616,2.5616,2.5616,0.0,0.0,0.0,0.0,0.0,0.0,0.0,0.0,0.0,0.0,0.0,0.0,0.0,0.0,0.0,0.0,0.0,0.0,0.0,0.0,0.0,2.2332,2.2677,2.3032,2.3437,2.3871,2.4127,2.4213,2.4366,2.4456,2.4456,2.4007,2.3503,2.3017,2.285,2.2712,2.2632,2.2738,2.2712,2.2605,0.0,0.0,0.0,0.0,0.0,0.0,0.0,0.0,0.0,0.0,2.4528,2.467,2.4809,0.0,0.0,0.0,0.0,0.0,2.5495,2.5554,2.5593,2.5593,2.5971,2.6365,2.639,2.7413,2.8457,2.8821,2.9537,3.0205,3.0542,0.0,3.026,3.0161,0.0,0.0,0.0,0.0,0.0,0.0,0.0,0.0,0.0,0.0,0.0,0.0,0.0,0.0,2.944,2.9048,2.8655,2.82,2.8182,2.8182,2.8182,2.8182,2.8182,2.8182,2.8126,2.7864,2.7457,2.7289,2.6906,2.6349,0.0,2.5917,2.577,2.5637,2.5616,2.5616,2.5616,2.5616,2.5616,2.5616,2.5616,2.5616,0.0,0.0,0.0,0.0,0.0,0.0,0.0,0.0,0.0,0.0,0.0,0.0,0.0,0.0,0.0,0.0,0.0,0.0,0.0,0.0,2.1836,2.1974,2.2135,2.2419,2.2923,2.3827,2.4282,2.4317,2.4818,2.509,2.5129,2.4104,2.3384,2.289,2.261,2.2487,2.2515,2.2515,2.2515,2.2515,0.0,0.0,0.0,0.0,0.0,0.0,0.0,0.0,0.0,0.0,0.0,0.0,0.0,0.0,0.0,2.5293,2.5412,2.5484,2.5492,2.5546,2.5651,2.5849,2.6423,2.6947,2.6991,2.8304,2.9503,2.9483,3.0094,3.063,3.054,3.0535,0.0,3.0605,0.0,0.0,0.0,0.0,0.0,0.0,0.0,0.0,0.0,0.0,0.0,0.0,0.0,0.0,2.9993,2.9601,2.9119,2.8485,2.8289,2.8182,2.8182,2.8182,2.8182,2.8182,2.8025,2.7748,2.7352,2.7149,2.6691,2.6154,2.6046,2.5881,2.5675,2.5616,2.5616,2.5616,2.5616,2.5616,2.5616,2.5616,2.5616,2.5616,0.0,0.0,0.0,0.0,0.0,0.0,0.0,0.0,0.0,0.0,0.0,0.0,0.0,0.0,0.0,0.0,0.0,0.0,0.0,0.0,2.1213,2.137,2.1735,2.2181,2.2721,2.3347,2.3788,2.4033,2.4505,2.4837,2.4988,2.3978,2.363,2.3767,2.2822,2.2432,2.2515,2.2515,2.2515,2.2487,2.246,0.0,0.0,0.0,0.0,0.0,0.0,0.0,0.0,0.0,0.0,0.0,0.0,0.0,2.4968,2.5231,2.5351,2.541,2.5488,2.5551,2.5788,2.6596,2.6894,2.6995,2.7008,2.8304,2.9476,2.9413,3.0005,3.0463,0.0,3.0833,3.1477,0.0,0.0,0.0,0.0,0.0,0.0,0.0,0.0,0.0,0.0,0.0,0.0,0.0,0.0,0.0,3.1528,3.019,2.9369,2.9315,2.8602,2.8182,2.8182,2.8182,2.8182,2.82,2.7864,2.7659,2.7465,2.7021,2.6725,2.6538,2.6154,2.599,2.5937,2.5712,2.5616,2.5616,2.5616,2.5616,2.5616,2.5616,2.5616,2.5616,0.0,0.0,0.0,0.0,0.0,0.0,0.0,0.0,0.0,0.0,0.0,0.0,0.0,0.0,0.0,0.0,0.0,0.0,0.0,2.0845,2.091,2.1293,2.1339,2.1812,2.2757,2.3573,2.4259,2.4808,2.5554,2.5785,2.5432,2.459,2.3994,2.3602,2.2745,2.2366,2.2394,2.2394,2.2394,2.2377,2.2366,2.2349,0.0,0.0,0.0,0.0,0.0,0.0,0.0,0.0,2.4428,2.4561,2.4756,2.4949,2.5118,2.5313,2.5415,2.5472,2.5486,2.5561,2.5813,2.6672,2.7362,2.7949,2.8444,2.9425,3.0222,3.0166,3.0268,0.0,0.0,0.0,3.1526,0.0,0.0,0.0,0.0,0.0,0.0,0.0,0.0,0.0,0.0,0.0,0.0,0.0,0.0,0.0,3.1724,3.1153,3.0386,2.944,2.9101,2.8727,2.8182,2.8182,2.8182,2.8182,2.7996,2.776,2.7487,2.6971,2.6607,2.6315,2.5937,2.5749,2.5749,2.5654,2.5616,2.5616,2.5616,2.5616,2.5616,2.5616,2.5616,2.5616,0.0,0.0,0.0,0.0,0.0,0.0,0.0,0.0,0.0,0.0,0.0,0.0,0.0,0.0,0.0,0.0,0.0,0.0,2.0581,2.0413,2.0447,2.0795,2.0845,2.1375,2.2443,2.3457,2.4431,2.5347,2.6269,2.6352,2.5639,2.4924,2.4177,2.3447,2.266,2.231,2.231,2.231,2.231,2.231,2.231,2.231,0.0,0.0,0.0,0.0,0.0,0.0,0.0,0.0,2.4426,2.4604,2.4828,2.5024,2.5203,2.536,2.5456,2.5505,2.551,2.5742,2.6218,2.7089,2.798,2.8863,2.9682,3.0306,3.0665,3.0532,3.0574,3.0866,3.1584,0.0,0.0,0.0,0.0,0.0,0.0,0.0,0.0,0.0,0.0,0.0,0.0,0.0,0.0,0.0,0.0,0.0,0.0,3.1831,3.1225,3.0154,2.9886,2.9387,2.8602,2.8602,2.8403,2.8025,2.7968,2.7789,2.7542,2.6889,2.647,2.6245,2.5807,2.5616,2.5616,2.5616,2.5616,2.5616,2.5616,2.5616,2.5616,2.5616,2.5616,2.5616,0.0,0.0,0.0,0.0,0.0,0.0,0.0,0.0,0.0,0.0,0.0,0.0,0.0,0.0,0.0,0.0,0.0,0.0,1.9139,1.9551,1.9788,1.9788,2.0311,2.0944,2.1689,2.287,2.4164,2.5495,2.632,2.6319,2.5592,2.4831,2.4103,2.3359,2.2632,2.231,2.231,2.231,2.231,2.231,2.231,2.231,2.231,0.0,0.0,0.0,0.0,0.0,0.0,0.0,2.4391,2.4554,2.4814,2.4981,2.5143,2.5331,2.5437,2.5504,2.5502,2.6175,2.7109,2.7988,2.8801,2.9619,3.0503,3.0704,3.0632,3.0389,3.0891,3.1638,3.2457,0.0,0.0,0.0,0.0,0.0,0.0,0.0,0.0,0.0,0.0,0.0,0.0,0.0,0.0,0.0,0.0,0.0,0.0,3.2135,3.1706,3.1689,3.0939,3.0172,2.9423,2.9405,2.8834,2.7701,2.7701,2.7701,2.7672,2.6808,2.6418,2.6383,2.5844,2.5616,2.5616,2.5616,2.5616,2.5616,2.5616,2.5616,2.5616,2.5616,2.5616,2.5578,0.0,0.0,0.0,0.0,0.0,0.0,0.0,0.0,0.0,0.0,0.0,0.0,0.0,0.0,0.0,0.0,0.0,0.0,1.9741,1.9472,1.9493,1.9904,1.9889,2.032,2.1388,2.2801,2.4343,2.6082,2.6386,2.6219,2.5494,2.4831,2.4103,2.3359,2.2632,2.231,2.231,2.231,2.231,2.231,2.231,2.2405,2.2579,0.0,0.0,0.0,0.0,0.0,0.0,0.0,0.0,0.0,2.4874,2.5084,2.5322,2.5378,2.5452,2.5512,2.5559,2.5763,2.6328,2.7761,2.831,2.8837,3.0181,3.0927,3.1455,3.1889,3.166,3.1762,3.2938,0.0,0.0,0.0,0.0,0.0,0.0,0.0,0.0,0.0,0.0,0.0,0.0,0.0,0.0,0.0,0.0,0.0,0.0,3.2652,3.2165,3.1306,3.1315,3.0836,2.9828,2.9311,2.8876,2.8539,2.7753,2.7338,2.7338,2.6757,2.6419,2.6383,2.5885,2.5659,2.5616,2.5616,2.5616,2.5616,2.5616,2.5616,2.5616,2.5616,2.5394,2.513,0.0,0.0,0.0,0.0,0.0,0.0,0.0,0.0,0.0,0.0,1.8721,1.876,0.0,0.0,0.0,0.0,0.0,0.0,1.9508,1.9161,1.9176,1.9632,1.9545,2.0119,2.1459,2.2236,2.3543,2.5395,2.5581,2.5311,2.4666,2.4255,2.3663,2.2936,2.2513,2.231,2.231,2.231,2.231,2.2276,2.1989,2.2017,2.2203,0.0,0.0,0.0,0.0,0.0,0.0,0.0,0.0,0.0,2.4396,2.487,2.5415,2.5426,2.5486,2.5543,2.5593,2.5859,2.6429,2.7726,2.8282,2.8908,3.0456,0.0,0.0,0.0,3.2267,3.2571,3.326,0.0,0.0,0.0,0.0,0.0,0.0,0.0,0.0,0.0,0.0,0.0,0.0,0.0,0.0,0.0,0.0,0.0,0.0,3.2916,3.2588,3.1848,3.2058,3.1684,3.0684,3.0238,2.9726,2.9126,2.812,2.7532,2.7233,2.6725,2.6471,2.6385,2.5905,2.5642,2.5616,2.5616,2.5616,2.5616,2.5616,2.5616,2.5616,2.5616,2.5301,2.4902,0.0,0.0,0.0,0.0,0.0,0.0,0.0,0.0,0.0,1.7963,1.8043,1.8123,0.0,0.0,0.0,1.8189,1.8361,1.8542,1.8655,1.8693,1.8784,1.9026,1.9265,2.0089,2.1594,2.1346,2.203,2.3769,2.4143,2.4028,2.3363,2.3393,2.3004,2.231,2.231,2.231,2.231,2.231,2.231,2.2243,2.1566,2.1386,2.1462,2.0869,0.0,0.0,0.0,0.0,0.0,0.0,0.0,0.0,2.3632,2.4422,2.5316,2.5453,2.5556,2.5605,2.5603,2.6181,2.6987,2.7794,2.8598,0.0,3.0983,3.1405,3.1524,3.16,0.0,0.0,0.0,0.0,0.0,0.0,0.0,0.0,0.0,0.0,0.0,0.0,0.0,0.0,0.0,0.0,0.0,0.0,0.0,0.0,0.0,3.2916,3.2884,3.2852,3.2884,3.2527,3.1765,3.1693,3.097,2.9592,2.8834,2.8083,2.7383,2.677,2.6471,2.6437,2.5924,2.568,2.5616,2.5616,2.5616,2.5616,2.5616,2.5616,2.5616,2.5616,2.5301,2.4902,0.0,0.0,0.0,0.0,0.0,0.0,0.0,0.0,1.8228,1.7922,1.7922,1.8003,1.8123,1.8163,0.0,1.8042,1.8082,1.8028,1.7801,1.7894,1.8108,1.8461,1.8898,1.9501,2.0288,2.0253,2.078,2.1952,2.3227,2.3634,2.318,2.3334,2.3004,2.231,2.231,2.231,2.231,2.231,2.231,2.2293,2.2141,2.1952,2.1784,2.1633,2.1931,0.0,0.0,0.0,0.0,0.0,0.0,0.0,2.3461,2.402,2.4524,2.5279,2.5556,2.5605,2.5603,2.5749,2.6203,2.758,2.8956,3.0048,3.0376,3.144,3.2534,3.3149,0.0,0.0,0.0,0.0,0.0,0.0,0.0,0.0,0.0,0.0,0.0,0.0,0.0,0.0,0.0,0.0,0.0,0.0,0.0,0.0,3.2916,3.2916,3.2737,3.242,3.2737,3.2666,3.2174,3.159,3.0988,0.0,2.9279,2.8561,2.813,2.6856,2.6206,2.6101,2.5811,2.5701,2.568,2.5637,2.5616,2.5616,2.5616,2.5616,2.5616,2.5616,2.5301,2.4902,0.0,0.0,0.0,0.0,0.0,0.0,0.0,0.0,1.8617,1.7773,1.7868,1.8003,1.7814,1.8029,0.0,0.0,1.8055,1.7962,1.7652,1.8028,1.8383,1.8745,1.9064,1.9457,2.0,1.9839,2.0277,2.134,2.2021,2.2441,2.2584,2.2752,2.2625,2.2254,2.2282,2.231,2.231,2.231,2.231,2.2276,2.1921,2.1833,2.1861,2.1516,2.1693,2.2079,2.1735,0.0,0.0,0.0,0.0,0.0,0.0,0.0,2.4281,2.5226,2.5554,2.559,2.5564,2.5546,2.5919,2.7421,0.0,2.9641,2.9935,3.0956,3.2027,0.0,0.0,0.0,0.0,0.0,0.0,0.0,0.0,0.0,0.0,0.0,0.0,0.0,0.0,0.0,0.0,0.0,0.0,0.0,0.0,3.2916,3.2916,3.2916,3.2802,3.2588,3.277,3.2705,3.2318,3.1914,3.1411,3.0817,2.9881,2.9059,2.834,2.723,2.6445,2.5974,2.5901,2.5775,2.5701,2.5642,2.5637,2.5616,2.5616,2.5616,2.5616,2.5616,2.5301,2.4863,0.0,0.0,0.0,0.0,0.0,0.0,0.0,0.0,0.0,1.7663,1.7868,1.7949,1.7434,1.7814,1.7949,0.0,0.0,0.0,1.7557,1.8173,1.8745,1.9026,1.9176,1.9472,1.9975,1.9762,2.017,2.1214,2.1071,2.1323,2.1998,2.2152,2.2214,2.2214,2.2282,2.231,2.231,2.231,2.231,2.226,2.1634,2.1593,2.185,2.1246,2.1322,2.1716,2.1644,2.1314,2.0889,2.0838,0.0,0.0,0.0,0.0,2.4076,2.5031,2.5434,2.5593,2.5531,2.5595,2.601,2.7359,2.828,0.0,2.9661,3.041,3.1111,0.0,0.0,0.0,0.0,0.0,0.0,0.0,0.0,0.0,0.0,0.0,0.0,0.0,0.0,0.0,0.0,0.0,0.0,0.0,0.0,3.2916,3.2916,3.2916,3.2884,3.2802,3.282,3.2588,3.2197,3.2214,3.1841,3.1067,3.042,2.9554,2.8539,2.7926,2.7127,2.6208,2.6076,2.5901,2.5738,2.5701,2.568,2.56,2.5616,2.5616,2.5578,2.5524,2.5224,2.4823,0.0,0.0,0.0,0.0,0.0,0.0,0.0,0.0,0.0,0.0,1.7882,1.7788,1.7447,1.7475,1.7269,1.6723,1.6735,1.665,1.6448,0.0,0.0,1.7988,1.8707,1.925,1.9487,1.9717,2.0227,2.0958,2.123,2.1554,0.0,0.0,2.2242,2.2282,2.2282,2.231,2.231,2.231,2.231,2.2293,2.2192,2.2082,2.199,2.1884,2.2168,2.2537,2.1917,2.2081,2.2392,2.1194,2.0889,0.0,0.0,0.0,0.0,2.418,2.5008,2.5592,2.5598,2.601,2.6651,0.0,2.8165,2.8859,0.0,0.0,0.0,0.0,0.0,0.0,0.0,0.0,0.0,0.0,0.0,0.0,0.0,0.0,0.0,0.0,0.0,0.0,0.0,0.0,0.0,0.0,3.2916,3.2916,3.2916,3.2916,3.2737,3.2386,3.2386,3.2197,3.1787,3.1787,3.1565,3.1083,3.064,3.0021,2.9268,2.9168,2.839,2.7081,2.6327,2.5974,2.5937,2.5775,2.5701,2.568,2.5637,2.5616,2.554,2.513,2.4942,2.4823,0.0,0.0,0.0,0.0,0.0,0.0,0.0,0.0,0.0,0.0,0.0,1.8029,1.7447,1.7598,1.7557,1.706,1.6947,1.6934,1.7018,1.716,1.7517,1.8187,1.8553,1.895,1.9376,1.953,1.9894,2.0514,2.0926,2.1339,0.0,2.2065,2.2214,0.0,0.0,2.231,2.231,2.231,2.2394,2.2525,2.2517,2.2641,2.2843,2.2865,2.3145,2.3432,2.3142,2.2978,2.2777,2.188,2.1317,2.1053,2.1359,0.0,0.0,0.0,2.4609,2.5017,2.5383,2.5662,2.6002,0.0,2.7447,2.8115,2.8794,0.0,0.0,0.0,0.0,0.0,0.0,0.0,0.0,0.0,0.0,0.0,0.0,0.0,0.0,0.0,0.0,0.0,0.0,0.0,0.0,0.0,3.2705,3.2555,3.2555,3.2335,3.2162,3.1985,3.1949,3.175,3.1376,3.1338,3.1162,3.074,3.0593,3.0344,3.0013,2.9599,2.8853,2.7881,2.7061,2.6673,2.6566,2.6045,2.5791,2.5701,2.5637,2.5616,2.5578,2.5355,2.513,2.4823,0.0,0.0,0.0,0.0,0.0,0.0,0.0,0.0,0.0,0.0,0.0,1.8228,1.7475,0.0,0.0,0.0,1.7031,1.7073,1.7338,1.7173,1.7407,1.8266,1.8461,1.8784,1.9376,1.9523,1.9818,2.0277,2.078,0.0,2.1322,2.1752,2.1855,0.0,2.191,2.205,0.0,0.0,0.0,2.2807,2.2789,2.3093,2.3566,2.3628,0.0,2.4074,2.4094,2.3767,2.3198,2.2697,2.2022,2.1403,2.1473,0.0,0.0,0.0,0.0,2.4491,2.4963,2.5178,2.5437,2.6173,2.6702,2.7207,0.0,0.0,0.0,0.0,0.0,0.0,0.0,0.0,0.0,0.0,0.0,0.0,0.0,0.0,0.0,0.0,0.0,0.0,0.0,0.0,0.0,0.0,3.2639,3.2454,3.2454,3.2056,3.1804,3.1714,3.1603,3.1338,3.0965,3.0925,3.0781,3.0526,3.0526,3.0526,3.0493,2.9947,2.9417,2.887,2.798,2.7507,2.7382,2.6545,2.6122,2.5999,2.5702,2.5616,2.5578,2.5333,2.5068,2.4679,0.0,0.0,0.0,0.0,0.0,0.0,0.0,0.0,0.0,0.0,0.0,1.8175,1.7394,1.7312,1.7118,1.6522,1.6318,1.6318,1.6436,1.6905,1.7393,1.7828,1.8305,0.0,1.9376,1.9833,2.0189,2.0481,0.0,0.0,2.0759,2.1093,2.0856,2.0154,2.0923,2.1412,2.1625,0.0,0.0,2.3069,2.3069,2.3305,2.3692,0.0,0.0,0.0,0.0,0.0,2.4238,2.3633,2.2987,2.2304,0.0,0.0,0.0,0.0,0.0,0.0,0.0,2.4807,0.0,2.6079,2.6084,0.0,0.0,0.0,0.0,0.0,0.0,0.0,0.0,0.0,0.0,0.0,0.0,0.0,0.0,0.0,0.0,0.0,0.0,0.0,0.0,0.0,0.0,0.0,0.0,3.2884,3.2884,3.2488,3.2091,3.1714,3.1338,3.0925,3.0526,3.051,3.051,3.0526,3.0526,3.0526,3.0526,3.0477,3.0444,3.0328,2.8936,2.8323,2.8257,2.7339,2.6929,2.6847,2.5951,2.5616,2.5486,2.467,2.4343,2.4219,0.0,0.0,0.0,0.0,0.0,0.0,0.0,0.0,0.0,0.0,0.0,0.0,0.0,1.7988,1.7693,1.7034,1.6522,1.6275,1.6392,1.6808,1.7297,1.7787,1.8305,1.886,1.9376,1.9632,1.9884,0.0,0.0,2.0406,2.0267,2.0371,2.0027,1.9333,2.0094,2.0858,2.1606,2.1596,0.0,0.0,0.0,0.0,0.0,0.0,0.0,0.0,0.0,0.0,0.0,0.0,0.0,0.0,0.0,0.0,0.0,0.0,0.0,2.36,0.0,0.0,0.0,2.5386,2.5726,2.601,0.0,0.0,0.0,0.0,0.0,0.0,0.0,0.0,0.0,0.0,0.0,0.0,0.0,0.0,0.0,0.0,0.0,0.0,0.0,0.0,0.0,0.0,0.0,0.0,3.2521,3.2127,3.1714,3.1338,3.1201,3.0885,3.051,3.0526,3.0526,3.0526,3.0526,3.0526,3.0526,3.0526,3.0526,3.0493,2.998,2.9483,2.8986,2.8141,2.7465,2.6962,2.6531,2.6027,2.5578,2.5256,2.4791,2.4261,0.0,0.0,0.0,0.0,0.0,0.0,0.0,0.0,0.0,1.8736,0.0,0.0,0.0,0.0,1.8108,1.7489,1.7005,1.6778,1.685,1.7089,1.7503,1.8028,1.8226,1.8582,1.914,1.9284,1.9341,0.0,0.0,0.0,0.0,1.9577,1.9249,1.8602,1.9087,2.0069,0.0,0.0,0.0,2.3714,0.0,0.0,2.4152,0.0,0.0,0.0,0.0,0.0,0.0,0.0,0.0,0.0,0.0,0.0,0.0,0.0,0.0,0.0,2.3582,0.0,0.0,0.0,0.0,2.5603,0.0,0.0,0.0,0.0,0.0,0.0,0.0,0.0,0.0,0.0,0.0,0.0,0.0,0.0,0.0,0.0,0.0,0.0,0.0,0.0,0.0,0.0,0.0,0.0,3.2488,3.2127,3.164,3.1123,3.0965,3.0781,3.0526,3.0526,3.0526,3.0526,3.0526,3.0526,3.0526,3.0526,3.0526,3.0526,3.0526,3.0228,2.9691,2.8923,2.8227,2.7666,2.7326,2.6688,2.5934,2.563,2.4995,2.4261,0.0,0.0,0.0,0.0,0.0,0.0,0.0,0.0,1.9101,1.9101,0.0,0.0,0.0,0.0,0.0,1.7787,1.7787,1.7787,1.772,1.7787,1.8068,1.8592,1.811,1.8072,1.8609,1.8771,1.8738,0.0,1.9447,1.9414,0.0,0.0,1.8534,1.7905,1.7905,1.9013,2.0902,0.0,2.2147,2.4094,0.0,2.4134,2.4192,0.0,0.0,0.0,2.4458,2.4651,0.0,0.0,0.0,0.0,0.0,0.0,0.0,0.0,0.0,0.0,0.0,0.0,0.0,0.0,0.0,0.0,0.0,0.0,0.0,0.0,0.0,0.0,0.0,0.0,0.0,0.0,0.0,0.0,0.0,0.0,0.0,0.0,0.0,0.0,0.0,0.0,0.0,0.0,0.0,3.2488,3.2884,3.2488,3.1913,3.1123,3.0699,3.0526,3.0526,3.0526,3.0526,3.0526,3.0526,3.0526,3.0526,3.0526,3.0526,3.0526,3.0526,3.0526,3.0418,2.9683,2.9247,2.9026,2.8257,2.7436,2.6598,2.5686,2.4902,2.4197,0.0,0.0,0.0,0.0,0.0,1.9228,1.9228,1.9228,1.9265,0.0,0.0,0.0,1.9101,1.8784,1.8553,1.85,1.8198,1.8001,1.8001,1.833,1.8592,1.8745,1.8491,1.8475,1.8683,1.849,1.8424,1.8467,1.866,1.8631,1.8409,1.8242,1.8087,0.0,1.7944,1.9117,2.1028,2.1028,0.0,0.0,2.4151,2.419,0.0,0.0,0.0,0.0,0.0,2.485,0.0,0.0,2.51,2.4707,0.0,0.0,0.0,0.0,0.0,0.0,2.1862,0.0,0.0,0.0,0.0,0.0,0.0,0.0,0.0,0.0,0.0,0.0,0.0,0.0,0.0,0.0,0.0,0.0,0.0,0.0,0.0,0.0,0.0,0.0,0.0,0.0,0.0,0.0,3.2573,3.277,3.2884,3.2231,3.164,3.1123,3.0699,3.0526,3.0526,3.0526,3.0526,3.0526,3.0526,3.0526,3.0526,3.0526,3.0526,3.0526,3.0526,3.0526,3.0493,3.0253,2.9774,2.9198,2.8878,2.8053,2.6955,2.6603,2.5916,2.5093,0.0,0.0,1.9493,1.942,1.9624,1.9803,1.9803,1.9803,1.9803,0.0,0.0,0.0,1.9588,1.9199,1.8988,1.9026,1.8808,1.864,1.864,1.8898,1.9064,1.9139,1.8564,1.8298,1.8485,1.81,1.7932,1.8015,1.8225,1.8294,1.8184,1.7997,1.7944,1.7988,1.8095,1.9265,2.1149,0.0,0.0,0.0,2.4171,0.0,0.0,2.4266,2.4426,0.0,0.0,0.0,2.5126,2.5253,2.5082,0.0,0.0,0.0,0.0,0.0,0.0,0.0,0.0,0.0,0.0,0.0,0.0,0.0,0.0,0.0,0.0,0.0,0.0,0.0,0.0,0.0,0.0,0.0,0.0,0.0,0.0,0.0,0.0,0.0,0.0,0.0,0.0,0.0,0.0,3.1655,3.2278,3.2737,3.2884,3.23,3.1768,3.1338,3.0965,3.0675,3.0526,3.0526,3.0526,3.0526,3.0526,3.0526,3.0526,3.0526,3.0526,3.0526,3.0526,3.0526,3.0526,3.0526,3.0195,2.9716,2.9349,2.8555,2.7486,2.6958,2.623,2.5401,0.0,0.0,1.9894,1.9894,2.0243,2.0514,2.0514,2.0514,2.0514,0.0,2.0514,2.0364,2.0039,1.9732,1.956,1.9545,1.9523,1.9487,1.9487,1.945,1.9523,1.9669,1.8542,1.8017,1.8269,1.7822,1.7503,1.732,1.8005,1.8184,1.7905,1.7922,1.8009,1.8155,1.8325,1.9449,2.1247,2.1403,0.0,2.4209,2.421,2.4229,0.0,0.0,2.4547,0.0,2.4874,2.5019,2.5149,2.5264,2.4831,0.0,0.0,0.0,0.0,0.0,2.1299,2.0869,2.1418,0.0,0.0,0.0,0.0,0.0,2.4332,2.4465,0.0,0.0,0.0,0.0,0.0,0.0,0.0,0.0,0.0,0.0,0.0,0.0,0.0,0.0,0.0,0.0,0.0,2.929,3.0128,3.0733,3.1777,3.2488,3.2834,3.2488,3.2091,3.164,3.1278,3.0885,3.051,3.0526,3.0526,3.0526,3.0526,3.0526,3.0526,3.0526,3.0526,3.0526,3.0526,3.0526,3.0526,3.0526,3.0443,3.0316,2.975,2.8978,2.8126,2.7161,2.6273,2.5575,2.0243,2.0345,2.0413,2.0379,2.0481,2.0597,2.0597,2.0597,2.063,2.0712,2.063,2.0597,2.0613,2.0462,2.0395,2.0512,2.0224,2.0035,2.0035,1.9782,1.9818,2.0158,1.9454,1.9014,1.8853,1.8427,1.7962,1.7384,1.7792,1.7952,1.7905,1.8009,0.0,0.0,1.8426,1.9585,2.144,0.0,0.0,2.421,2.4192,0.0,2.4393,2.4512,2.4685,2.4874,2.5,2.5149,2.5264,0.0,2.5292,2.502,0.0,0.0,0.0,0.0,0.0,0.0,0.0,0.0,0.0,0.0,0.0,0.0,0.0,2.4117,0.0,0.0,0.0,0.0,0.0,0.0,0.0,0.0,0.0,0.0,0.0,0.0,0.0,0.0,0.0,0.0,0.0,2.882,2.9549,3.0559,3.1962,3.2705,3.2504,3.2369,3.1985,3.1223,3.1162,3.0885,3.051,3.0526,3.0526,3.0526,3.0526,3.0526,3.0526,3.0526,3.0526,3.0526,3.0526,3.0526,3.0526,3.0526,3.0443,3.0375,3.0146,2.9403,2.8404,2.8104,2.736,2.6469,2.0514,2.0698,2.0829,2.0797,2.1023,2.1197,2.126,2.126,2.1291,2.1401,2.1197,2.1071,2.115,2.0942,2.0812,2.0893,2.0714,2.0599,2.0599,2.0431,2.0431,2.0649,2.0067,1.9585,1.9195,1.8693,1.8186,1.7641,1.7816,1.7927,1.8009,1.8159,0.0,0.0,1.9286,2.0426,0.0,0.0,2.3069,2.4284,2.4284,0.0,2.443,2.4596,2.4746,2.4929,2.5049,2.5212,2.5351,2.5389,2.5397,0.0,0.0,2.4568,2.4133,0.0,2.2507,2.1771,0.0,0.0,0.0,2.1424,0.0,0.0,0.0,0.0,0.0,0.0,0.0,0.0,0.0,0.0,0.0,0.0,0.0,0.0,0.0,0.0,0.0,0.0,0.0,0.0,0.0,2.7984,2.892,3.0194,3.1576,3.2259,3.2069,3.2209,3.202,3.1414,3.1184,3.0885,3.051,3.0526,3.0526,3.0526,3.0526,3.0526,3.0526,3.0526,3.0526,3.0526,3.0526,3.0526,3.0526,3.0526,3.0443,3.0274,2.9941,2.9303,2.8543,2.8046,2.7444,2.6736,2.0731,2.1023,2.1228,2.1228,2.1568,2.184,2.1899,2.2045,2.2224,2.2417,2.2092,2.1829,2.1829,2.1435,2.1181,2.1181,2.1118,2.1103,2.1103,2.1039,2.1023,2.1118,2.0663,2.0192,1.9756,1.9292,1.8732,1.8104,1.8149,1.8146,1.8176,1.8325,0.0,0.0,0.0,0.0,0.0,0.0,0.0,2.4446,0.0,2.4429,2.4447,2.466,2.4917,2.5194,2.5523,2.5638,2.5668,2.5831,0.0,2.5421,2.5595,2.515,0.0,0.0,0.0,0.0,0.0,0.0,0.0,0.0,0.0,2.3111,0.0,0.0,0.0,0.0,0.0,0.0,0.0,0.0,0.0,0.0,0.0,0.0,0.0,0.0,0.0,0.0,0.0,0.0,0.0,2.7231,2.8459,2.9542,3.0761,3.151,3.1609,3.1923,3.2004,3.1823,3.1414,3.1004,3.0634,3.0551,3.0526,3.0526,3.0526,3.0526,3.0526,3.0526,3.0526,3.0526,3.0526,3.0526,3.0526,3.0526,3.0401,3.0189,2.9601,2.9088,2.8543,2.775,2.7188,2.6779,2.1645,2.1691,2.1721,2.1721,2.1811,2.1899,2.1899,2.2571,2.3287,2.3938,2.3438,2.3023,2.3023,0.0,0.0,0.0,0.0,0.0,2.1446,0.0,2.115,2.1538,2.1486,2.1284,2.1005,2.0983,2.0289,1.888,1.9001,1.8814,1.8365,1.8445,0.0,0.0,2.0279,0.0,0.0,0.0,2.3735,0.0,2.4626,2.458,0.0,2.4794,2.5375,2.6184,2.7201,2.7094,2.6583,0.0,2.6668,2.5537,0.0,2.6055,0.0,0.0,0.0,0.0,0.0,0.0,0.0,0.0,2.3317,0.0,0.0,0.0,0.0,0.0,0.0,0.0,0.0,0.0,0.0,0.0,0.0,0.0,0.0,0.0,0.0,0.0,0.0,0.0,0.0,0.0,2.8384,2.8253,2.9505,3.061,3.1317,3.1329,3.1598,3.2214,3.1823,3.1452,3.1044,3.0658,3.0526,3.0526,3.0526,3.0526,3.0526,3.0526,3.0526,3.0526,3.0526,3.0526,3.0526,3.0526,3.0443,3.0316,2.9645,2.8996,2.8304,2.7715,2.7188,2.6779,2.1869,2.1899,2.1928,2.1928,2.194,2.212,2.2647,2.3412,2.4062,2.4397,2.413,2.3944,0.0,0.0,0.0,0.0,0.0,2.2438,0.0,0.0,2.1899,2.2044,2.2101,2.1877,2.1326,2.1344,2.0858,1.9805,1.9876,1.9871,1.9864,1.9987,0.0,0.0,2.1931,0.0,2.3909,0.0,0.0,0.0,0.0,0.0,0.0,2.5682,2.6352,2.7244,2.7729,2.7702,2.7479,0.0,2.7516,0.0,0.0,0.0,0.0,0.0,0.0,0.0,0.0,0.0,0.0,0.0,0.0,0.0,2.3809,0.0,2.4682,0.0,0.0,0.0,0.0,0.0,0.0,0.0,0.0,0.0,0.0,0.0,0.0,0.0,0.0,0.0,0.0,0.0,0.0,0.0,0.0,2.9563,2.9741,3.0552,3.1165,3.1463,3.1509,3.1414,3.1218,3.0838,3.0568,3.0526,3.0526,3.0526,3.0526,3.0526,3.0526,3.0526,3.0526,3.0526,3.0526,3.0526,3.0401,3.0189,2.9332,2.8779,2.8352,2.7715,2.7188,2.6779,2.2003,2.1969,2.1998,2.1998,2.2027,2.2408,2.3456,2.4292,0.0,0.0,0.0,0.0,2.4828,2.4734,0.0,0.0,0.0,2.3272,0.0,0.0,2.246,2.2525,2.2497,0.0,0.0,2.1756,2.1404,2.0794,2.0818,2.091,2.1052,2.1231,0.0,0.0,0.0,2.3685,2.45,0.0,0.0,2.4613,2.4764,2.5513,2.6559,2.6956,2.7585,2.828,2.8531,2.8493,2.8396,2.8637,2.8421,0.0,2.7349,0.0,0.0,0.0,0.0,0.0,2.4752,0.0,0.0,0.0,0.0,0.0,0.0,0.0,0.0,0.0,0.0,0.0,0.0,0.0,0.0,0.0,0.0,0.0,0.0,0.0,0.0,0.0,0.0,0.0,0.0,0.0,0.0,0.0,0.0,0.0,2.8429,2.9711,3.0612,3.1008,3.1281,3.1414,3.1432,3.0958,3.0651,3.0526,3.0526,3.0526,3.0526,3.0526,3.0526,3.0526,3.0526,3.0526,3.0526,3.0526,3.03,2.9897,2.9012,2.8496,2.8158,2.753,2.71,2.6779,2.2185,2.2106,2.1998,2.1998,2.2106,2.2714,2.4239,0.0,0.0,0.0,0.0,0.0,0.0,0.0,0.0,0.0,0.0,2.3608,2.3574,0.0,2.2605,0.0,0.0,2.2615,0.0,0.0,2.2306,2.1768,2.1884,2.1782,2.148,2.1552,0.0,0.0,0.0,2.3685,2.4517,2.4629,2.4764,2.4902,2.5041,2.6184,2.7913,0.0,2.9025,2.9274,3.0105,0.0,0.0,3.0221,2.9439,0.0,0.0,0.0,0.0,0.0,0.0,0.0,0.0,0.0,0.0,2.542,0.0,0.0,0.0,0.0,2.4937,0.0,0.0,0.0,0.0,0.0,0.0,0.0,0.0,0.0,0.0,0.0,0.0,0.0,0.0,0.0,0.0,0.0,0.0,0.0,0.0,0.0,2.7998,2.8784,2.9868,3.122,3.1407,3.1582,3.1789,3.1044,3.0651,3.0526,3.0526,3.0526,3.0526,3.0526,3.0526,3.0526,3.0526,3.0526,3.0526,3.0526,3.0054,2.9361,2.8873,2.8192,2.7464,2.7011,2.6832,2.6779,2.2487,2.248,2.2463,2.2463,2.2497,2.3131,0.0,2.6048,0.0,0.0,0.0,0.0,0.0,0.0,2.6516,0.0,0.0,2.5314,2.4936,2.4734,0.0,0.0,0.0,2.3682,0.0,0.0,0.0,0.0,0.0,0.0,2.3159,2.3178,0.0,0.0,0.0,2.4351,0.0,0.0,0.0,0.0,0.0,2.7661,2.885,0.0,0.0,3.0095,3.0438,3.0391,0.0,3.0494,3.0222,2.9655,2.9127,2.8794,2.8344,2.697,2.6562,0.0,0.0,0.0,2.5504,2.5504,0.0,0.0,0.0,0.0,0.0,0.0,0.0,0.0,0.0,0.0,0.0,0.0,0.0,0.0,0.0,0.0,0.0,0.0,0.0,0.0,0.0,0.0,0.0,0.0,0.0,0.0,0.0,2.8557,2.9452,3.0416,3.0698,3.1048,3.1531,3.0982,3.0651,3.0526,3.0526,3.0526,3.0526,3.0526,3.0526,3.0526,3.0526,3.0526,3.0526,3.0526,3.0258,2.9853,2.9012,2.8448,2.7913,2.7115,2.6779,2.6779,2.2807,2.2841,2.2841,2.285,2.3328,0.0,0.0,0.0,0.0,0.0,2.7736,0.0,2.7897,0.0,2.7646,0.0,2.6861,2.6472,2.6116,2.5908,0.0,2.4718,2.4635,0.0,0.0,0.0,0.0,0.0,0.0,2.3842,2.4135,2.4211,0.0,0.0,0.0,0.0,2.4779,0.0,2.5139,0.0,0.0,2.8724,0.0,0.0,3.0075,3.0537,0.0,3.0618,3.0649,3.0639,3.0645,3.0531,2.9706,2.9484,2.9252,2.7871,2.7459,2.734,2.6788,2.6291,0.0,2.5951,2.5627,0.0,2.5303,0.0,0.0,0.0,0.0,0.0,0.0,0.0,0.0,0.0,0.0,0.0,0.0,0.0,0.0,0.0,0.0,0.0,0.0,0.0,0.0,0.0,0.0,0.0,0.0,0.0,2.9068,2.9916,3.0161,3.0643,3.1397,3.0942,3.0651,3.0526,3.0526,3.0526,3.0526,3.0526,3.0526,3.0526,3.0526,3.0526,3.0526,3.0526,3.0156,2.9589,2.8966,2.8304,2.768,2.7026,2.6779,2.6779,2.3063,0.0,0.0,0.0,2.4494,0.0,0.0,0.0,2.7926,0.0,2.7982,2.8037,2.8037,2.8075,2.8129,2.8156,2.7477,0.0,2.7092,2.6437,0.0,0.0,2.49,2.4482,2.3889,0.0,0.0,0.0,0.0,0.0,2.443,0.0,0.0,0.0,2.4847,0.0,2.4929,2.5091,2.5707,2.6707,2.857,2.9331,2.9457,3.0278,3.0629,3.0658,3.062,3.0645,3.0691,3.0691,3.0758,3.0665,2.9823,2.9604,2.9492,2.8612,2.8356,2.8354,2.8311,2.7601,2.6856,2.6856,0.0,0.0,0.0,0.0,2.5253,0.0,0.0,0.0,0.0,0.0,0.0,0.0,0.0,0.0,0.0,0.0,0.0,0.0,0.0,0.0,0.0,0.0,0.0,0.0,0.0,0.0,0.0,0.0,0.0,2.97,2.9824,3.0328,3.1308,3.0925,3.0651,3.0526,3.0526,3.0526,3.0526,3.0526,3.0526,3.0526,3.0526,3.0526,3.0526,3.0468,2.9793,2.8732,2.8685,2.7879,2.6779,2.6779,2.6779,2.6779,2.3346,2.4073,2.4661,0.0,2.5511,2.6385,0.0,0.0,0.0,0.0,2.8551,2.8525,2.8718,2.8576,2.8533,2.8749,2.8402,0.0,0.0,0.0,0.0,2.7112,2.7013,2.6377,2.5087,2.5012,0.0,2.4266,0.0,0.0,2.4629,0.0,0.0,0.0,0.0,0.0,2.5087,2.5877,2.7113,2.8608,2.91,2.9689,0.0,0.0,3.1022,3.1548,3.0906,3.0697,3.0715,3.0762,3.0796,3.0762,3.0533,3.0505,3.0409,2.9525,2.9269,2.9111,2.8481,2.8041,2.7777,2.7777,2.7,2.6274,0.0,0.0,0.0,0.0,0.0,0.0,0.0,0.0,0.0,0.0,0.0,0.0,0.0,0.0,0.0,0.0,0.0,0.0,0.0,0.0,0.0,0.0,0.0,0.0,0.0,0.0,0.0,2.9057,2.9317,2.9697,3.0273,3.057,3.0692,3.0651,3.0568,3.0526,3.0526,3.0526,3.0526,3.0526,3.0526,3.0526,3.0485,3.0011,2.9585,2.9134,2.8273,2.7479,2.6779,2.6779,2.6779,2.6779,2.4761,0.0,0.0,2.6289,0.0,0.0,2.7629,0.0,0.0,2.897,2.8881,0.0,2.9517,2.9441,2.9545,3.005,2.9643,0.0,0.0,0.0,0.0,2.7886,2.7871,2.7324,2.6091,2.5724,0.0,2.5,0.0,0.0,2.4794,0.0,0.0,0.0,0.0,2.5222,0.0,2.6641,2.8019,2.9331,2.9708,0.0,0.0,3.1033,3.1538,3.2026,3.1916,3.1884,3.1895,3.1927,3.1676,3.1363,3.1366,3.1152,3.0797,3.0304,3.0165,3.0046,2.9533,2.9067,2.8693,2.8683,2.7923,2.721,2.7169,2.6486,2.587,0.0,0.0,0.0,0.0,0.0,0.0,0.0,0.0,0.0,0.0,0.0,0.0,0.0,0.0,0.0,0.0,0.0,0.0,0.0,0.0,0.0,0.0,0.0,0.0,2.8789,2.9125,2.9481,2.9888,3.0589,3.0878,3.0692,3.0551,3.0526,3.0526,3.0526,3.0526,3.0526,3.0526,3.0384,3.0156,2.9761,2.9255,2.8654,2.765,2.71,2.6779,2.6779,2.6779,2.6779,0.0,0.0,0.0,0.0,0.0,0.0,0.0,2.8567,0.0,2.9122,0.0,2.9499,3.036,3.0475,3.0751,3.1452,0.0,3.0452,3.038,2.9674,2.8964,2.8242,2.8178,2.7795,2.6982,2.6282,0.0,0.0,0.0,0.0,2.4942,0.0,0.0,0.0,0.0,0.0,0.0,2.7469,2.8665,0.0,3.0306,3.0668,3.0853,3.1638,3.2133,3.2522,3.3291,3.3494,3.3398,3.3397,3.2908,3.2264,3.2261,3.1713,3.1068,3.1063,3.0985,3.0866,3.0821,3.0232,2.9625,2.957,2.8834,2.8134,2.8076,2.739,2.6774,2.6774,2.5929,2.526,0.0,0.0,0.0,0.0,0.0,0.0,0.0,0.0,0.0,0.0,0.0,0.0,0.0,0.0,0.0,0.0,0.0,0.0,0.0,0.0,0.0,0.0,2.9122,0.0,2.9791,0.0,3.1078,3.0733,3.0609,3.0526,3.0526,3.0526,3.0526,3.0526,3.0426,3.0156,2.9793,2.9496,2.8748,2.7665,2.7063,2.6779,2.6779,2.6779,2.6779,2.6779,0.0,0.0,0.0,0.0,0.0,2.9017,2.9654,2.9324,2.9232,2.9898,3.0037,3.0378,3.1212,3.1352,3.1431,3.156,3.1449,0.0,0.0,0.0,0.0,2.9972,2.9326,2.8609,2.7818,2.7651,2.7009,0.0,0.0,0.0,2.508,2.5084,0.0,0.0,0.0,0.0,2.7614,2.8627,0.0,3.0394,3.0548,3.1033,3.1709,3.1956,3.2943,3.4183,3.4392,3.4004,3.3397,3.3394,3.3296,3.3178,3.3174,3.2586,3.1884,3.1899,3.1389,3.0801,3.0801,3.0618,3.04,3.0386,2.9648,2.8904,2.8882,2.8255,2.7659,2.7659,2.6946,2.632,2.6379,0.0,0.0,0.0,0.0,0.0,0.0,0.0,0.0,0.0,0.0,0.0,0.0,0.0,0.0,0.0,0.0,0.0,0.0,0.0,0.0,0.0,0.0,0.0,0.0,0.0,3.0975,3.0871,3.0733,3.0609,3.0526,3.0526,3.0526,3.0468,3.0113,2.9897,2.9705,2.8654,2.7715,2.6974,2.6832,2.6779,2.6779,2.6779,2.6779,2.6779,0.0,0.0,0.0,0.0,0.0,0.0,0.0,3.0509,0.0,3.0809,3.0912,3.1273,3.2114,3.2255,3.2445,3.2871,3.2519,3.2255,3.2231,3.1496,3.089,3.0483,3.0117,0.0,2.8732,2.8388,2.7903,2.7299,0.0,0.0,2.5877,2.5906,2.5746,2.5416,0.0,2.7034,0.0,0.0,0.0,3.0637,3.1091,3.1579,3.2104,3.3077,3.3953,3.4724,3.5195,3.5095,3.4743,3.4742,3.4446,3.4072,3.4068,3.348,3.2775,3.2773,3.248,3.2051,3.1602,3.141,3.1203,3.0723,3.0208,2.9813,2.9786,2.9121,2.8525,2.8525,2.7852,2.7099,2.6584,2.6046,0.0,0.0,0.0,0.0,0.0,0.0,0.0,0.0,0.0,0.0,0.0,0.0,0.0,0.0,0.0,0.0,0.0,0.0,0.0,0.0,0.0,0.0,0.0,0.0,0.0,3.0912,3.0773,3.0609,3.0526,3.0526,3.0526,3.0468,2.9984,2.9617,2.9212,2.7978,2.7167,2.6779,2.6779,2.6779,2.6779,2.6779,2.6779,2.6779,0.0,3.0026,0.0,0.0,3.098,0.0,3.1648,3.1716,3.174,3.174,3.1789,3.2151,3.3062,3.3178,3.3438,3.4068,3.3531,3.3154,3.3105,3.2395,3.1695,3.1065,3.0906,3.0506,2.971,2.9177,2.883,0.0,0.0,0.0,2.6612,2.6843,2.6611,0.0,0.0,0.0,0.0,0.0,3.0075,3.093,3.1644,3.2235,3.2795,3.4187,3.482,3.5078,3.576,3.5992,3.5991,3.5991,3.5538,3.4986,3.4981,3.4374,3.369,3.369,3.3554,3.3241,3.2558,3.2322,3.204,3.1099,3.0823,3.0704,3.0452,2.9871,2.9371,2.9371,2.8717,2.7868,2.6902,2.6651,0.0,0.0,0.0,0.0,0.0,0.0,0.0,0.0,0.0,0.0,0.0,0.0,0.0,0.0,0.0,0.0,0.0,0.0,0.0,0.0,0.0,2.891,2.9011,0.0,3.0581,0.0,3.079,3.0692,3.0526,3.051,3.0443,3.0342,2.9853,2.9212,2.8479,2.7437,2.6899,2.6779,2.6779,2.6779,2.6779,2.6779,2.6779,2.6779,0.0,0.0,0.0,0.0,0.0,0.0,3.2452,3.2587,3.2587,3.2587,3.2687,3.3099,3.3895,3.4037,3.4123,3.4179,3.4123,3.4086,3.4061,3.3324,3.2841,3.2767,3.2061,3.139,3.0695,3.0621,3.0033,0.0,0.0,0.0,0.0,2.7422,2.7769,0.0,0.0,0.0,0.0,3.0149,3.0982,3.1806,3.1999,3.3044,3.4476,3.4646,3.5195,3.5898,3.5976,3.5993,3.5991,3.6007,3.5942,3.5876,3.5876,3.5271,3.4588,3.4588,3.4022,3.3378,3.33,3.3239,3.2942,3.202,3.1723,3.1458,3.0587,3.034,3.0294,3.0294,2.9583,2.8736,2.7918,2.7704,2.7631,0.0,0.0,0.0,0.0,0.0,0.0,0.0,0.0,0.0,0.0,0.0,0.0,0.0,0.0,0.0,0.0,0.0,0.0,0.0,0.0,2.886,2.9011,2.9773,0.0,3.0975,3.0912,3.0814,3.0692,3.0568,3.0258,2.9837,2.9348,2.8463,2.7321,2.7093,2.6899,2.6779,2.6779,2.6779,2.6779,2.6779,2.6779,2.6779,0.0,0.0,0.0,0.0,0.0,0.0,0.0,3.3696,3.3813,3.393,3.3863,3.3997,3.4529,3.4609,3.4609,3.4609,3.4498,3.4498,3.4609,3.422,3.3786,3.3388,3.3049,3.2524,3.1787,3.1893,3.1439,0.0,0.0,0.0,0.0,2.856,2.8762,0.0,0.0,2.9887,3.0874,3.1234,3.1935,3.2857,3.3373,3.4033,3.4763,3.5273,3.5703,3.5996,3.5994,3.5992,3.601,3.6001,3.5996,3.5991,3.5991,3.5759,3.5486,3.5486,3.5232,3.4842,3.4315,3.4137,3.3868,3.2964,3.2656,3.2338,3.1448,3.1218,3.1025,3.0513,3.0121,2.9621,2.8775,2.8599,2.8422,0.0,0.0,0.0,0.0,0.0,0.0,0.0,0.0,0.0,0.0,0.0,0.0,0.0,0.0,0.0,0.0,0.0,0.0,2.7678,0.0,2.886,2.9011,2.9736,3.0386,3.1015,3.0952,3.0831,3.0692,3.0568,3.007,2.9348,2.909,2.8319,2.7181,2.7055,2.6899,2.6779,2.6779,2.6779,2.6779,2.6779,2.6779,2.6779,3.21,0.0,3.297,0.0,3.3566,3.4087,3.4334,3.4502,3.467,3.4889,3.4754,3.4695,3.487,3.4908,3.4908,3.4908,3.4771,3.4751,3.4908,3.4771,3.4468,3.3998,3.3979,0.0,3.2851,3.2985,3.2641,3.1837,3.1999,0.0,0.0,2.9989,3.0037,0.0,3.0324,3.113,3.2278,3.2324,3.2888,3.379,3.4383,3.4802,3.5156,3.5762,3.5996,3.5996,3.5994,3.5992,3.601,3.6001,3.5994,3.5991,3.5991,3.5991,3.5991,3.5991,3.5991,3.5876,3.5252,3.5041,3.4779,3.3871,3.3573,3.3268,3.2338,3.2097,3.1814,3.0968,3.0571,3.0217,2.9602,2.9483,2.9279,2.8706,0.0,0.0,0.0,0.0,0.0,0.0,0.0,0.0,0.0,0.0,0.0,0.0,0.0,0.0,0.0,0.0,0.0,0.0,0.0,0.0,0.0,2.9736,3.0425,3.1055,3.0952,3.0871,3.0733,3.0284,2.9705,2.9074,2.8669,2.8008,2.7233,2.7041,2.6951,2.6846,2.6832,2.6779,2.6779,2.6779,2.6779,2.6779,3.377,3.377,3.3858,3.4128,3.42,3.4334,3.4733,3.4793,3.4889,3.5157,3.5174,3.5107,3.4927,3.4908,3.4908,3.4908,3.4908,3.4908,3.4908,3.4908,3.4889,0.0,0.0,3.4564,3.391,3.3872,3.3566,3.2891,0.0,0.0,3.1664,3.1748,3.1777,3.1816,3.2737,3.3165,3.3199,3.3333,3.3849,3.4593,3.4667,3.5215,3.5996,3.5996,3.5996,3.5996,3.5995,3.5994,3.5991,3.6005,3.5999,3.5991,3.5991,3.5991,3.5991,3.5991,3.5991,3.5991,3.5991,3.5971,3.5744,3.4743,3.4474,3.4193,3.3126,3.2891,3.266,3.1852,3.1006,3.0398,3.0379,3.0379,3.0359,3.0278,0.0,0.0,0.0,0.0,0.0,0.0,2.7006,2.6802,2.6615,0.0,0.0,0.0,0.0,0.0,0.0,0.0,0.0,2.773,2.8438,0.0,2.9011,2.9736,3.048,3.119,3.0992,3.0912,3.0871,2.9661,2.912,2.9044,2.791,2.7401,2.7401,2.7107,2.7003,2.7003,2.6846,2.6779,2.6779,2.6779,2.6779,2.6779,3.4043,3.4117,3.4237,3.4508,3.4572,3.4694,3.4963,3.551,3.5959,3.6194,3.6742,3.7091,3.7025,3.5994,3.5308,0.0,3.5174,3.5157,0.0,3.5193,3.5176,3.5289,3.5308,3.5205,3.5014,3.4995,3.4601,3.3795,0.0,0.0,0.0,3.2685,3.2676,3.2706,3.3048,3.3563,3.4158,3.4241,3.4775,3.5565,3.5586,3.5742,3.5996,3.5996,3.5996,3.5996,3.5995,3.5994,3.5991,3.6005,3.5999,3.5991,3.5991,3.5991,3.5991,3.5991,3.5991,3.5991,3.5991,3.5991,3.5903,3.5552,3.5398,3.5055,3.4088,3.3357,3.2833,3.2564,3.1872,3.1295,3.1295,3.0814,3.0379,3.0316,3.0086,0.0,0.0,0.0,0.0,0.0,0.0,2.7793,0.0,2.6924,0.0,0.0,0.0,0.0,0.0,0.0,0.0,0.0,2.8917,0.0,2.9011,3.0226,3.097,3.119,3.0992,3.0814,3.0609,3.0241,2.9722,2.9074,2.8716,2.8107,2.7401,2.7299,2.7144,2.7003,2.6951,2.6899,2.6779,2.6779,2.6779,2.6779,3.5101,3.5179,3.5338,3.572,3.5818,3.5931,3.616,3.6648,3.7057,3.7166,3.7661,3.8007,3.8007,3.7065,0.0,3.6449,3.6017,3.5829,3.5935,3.5541,3.5369,3.5493,3.5493,3.5493,3.5493,3.5493,0.0,3.468,3.47,3.4326,3.3569,3.3903,3.3905,3.3596,3.3992,3.4497,3.5061,3.5157,3.5506,3.5996,3.5996,3.5996,3.5996,3.5996,3.5996,3.5996,3.5996,3.5994,3.5991,3.6009,3.6001,3.5991,3.5991,3.5991,3.5991,3.5991,3.5991,3.5991,3.5991,3.5985,3.5942,3.5852,3.5737,3.5505,3.4886,3.4051,3.3391,3.3391,3.2737,3.216,3.216,3.1705,3.1232,3.0854,3.0791,3.0682,3.035,0.0,0.0,0.0,0.0,0.0,0.0,2.7805,0.0,0.0,0.0,0.0,0.0,0.0,0.0,2.8117,2.9271,0.0,2.9397,3.0598,3.119,3.119,3.0992,3.0773,3.0468,3.0342,2.9793,2.9074,2.8889,2.8319,2.7488,2.7386,2.7248,2.7041,2.6951,2.6899,2.6779,2.6779,2.6779,2.6779,3.667,3.6727,3.6925,0.0,3.7618,0.0,3.7959,3.8046,3.8084,3.8084,3.8142,3.8161,3.8161,3.8161,3.8161,3.8161,0.0,0.0,0.0,3.6045,3.557,3.557,3.5532,3.5493,3.5493,3.5493,3.5493,3.5493,3.5566,3.5186,3.4403,3.5284,3.5259,3.4534,3.5405,3.5791,3.5816,3.593,3.5996,3.5996,3.5996,3.5996,3.5996,3.5996,3.5996,3.5996,3.5996,3.5995,3.5992,3.5991,3.6005,3.5994,3.5994,3.5991,3.5991,3.5991,3.5991,3.5991,3.5991,3.5942,3.5872,3.5729,3.5641,3.5581,3.5515,3.4872,3.4295,3.4295,3.3603,3.2987,3.2987,3.2942,3.2628,3.1821,3.1667,3.1391,3.0586,0.0,0.0,0.0,0.0,0.0,0.0,2.8994,2.9012,0.0,0.0,0.0,0.0,0.0,2.8917,2.8789,2.9569,3.004,3.0108,3.0835,3.119,3.119,3.0992,3.0773,3.0468,3.0027,2.9528,2.9074,2.8543,2.8027,2.7575,2.7321,2.7233,2.7181,2.6937,2.6779,2.6779,2.6779,2.6779,2.6779,0.0,0.0,3.7234,3.7742,3.7878,3.7943,3.7988,3.8565,3.8988,3.8988,3.9527,3.9912,3.9912,3.9912,3.9912,3.9912,3.8546,3.77,3.77,3.6892,3.643,3.643,3.5834,3.5493,3.5493,3.5493,3.5493,3.5493,3.5566,3.5495,3.5302,3.5566,3.5588,3.5405,3.5677,3.5791,3.5816,3.593,3.5996,3.5996,3.5996,3.5996,3.5996,3.5996,3.5996,3.5996,3.5996,3.5996,3.5994,3.5992,3.6007,3.6001,3.5994,3.5991,3.5991,3.5991,3.5991,3.5988,3.5938,3.5919,3.5866,3.567,3.557,3.5528,3.5507,3.5353,3.5199,3.5199,3.4507,3.3891,3.3891,3.3346,3.2807,3.2549,3.2508,3.2441,3.2182,3.142,0.0,0.0,2.9847,2.9228,2.9017,2.8994,2.9255,0.0,0.0,0.0,0.0,3.0633,3.0053,2.8842,3.0127,3.0578,3.0108,3.0835,3.1112,3.0952,3.0912,3.0773,3.0468,3.0027,2.9528,2.9074,2.8543,2.8027,2.7575,2.7437,2.7284,2.7181,2.7003,2.6899,2.6779,2.6779,2.6779,2.6779,3.8136,3.8367,3.8632,3.9032,3.9112,3.9142,3.9142,3.9527,3.9835,3.9835,4.0219,4.0489,4.0489,4.0489,4.0489,4.0489,3.9335,3.8584,3.8584,3.7777,3.7296,3.7296,3.6892,3.6469,3.6065,3.6065,3.5872,3.5493,3.5541,3.556,3.5604,3.5651,3.5667,3.5708,3.5768,3.5827,3.5849,3.5953,3.5996,3.5996,3.5996,3.5996,3.5996,3.5996,3.5996,3.5996,3.5996,3.5996,3.5995,3.5994,3.601,3.6003,3.5999,3.5996,3.5991,3.5991,3.5981,3.5942,3.5919,3.5827,3.5735,3.5593,3.5522,3.5493,3.5493,3.5493,3.5493,3.5493,3.5122,3.4795,3.4795,3.437,3.3853,3.3456,3.3374,3.32,3.2764,3.2079,3.1563,3.1448,3.0751,3.0222,3.0099,3.0099,3.0283,3.0723,0.0,0.0,3.118,3.1563,3.1171,2.9895,3.067,3.0959,3.0598,3.1004,3.1112,3.0952,3.0912,3.0773,3.0568,3.0027,2.9528,2.9074,2.8543,2.8027,2.7575,2.7452,2.735,2.7284,2.7107,2.6951,2.6899,2.6832,2.6779,2.6779,3.9529,3.9859,4.0177,4.0449,4.0495,4.0489,4.0489,4.0489,4.0489,4.0489,4.0489,4.0489,4.0489,4.0489,4.0489,4.0489,3.9873,3.9469,3.9469,3.8661,3.82,3.82,3.8065,3.7642,3.6911,3.6776,3.6372,3.568,3.5566,3.5528,3.5604,3.5608,3.5639,3.5702,3.5762,3.5841,3.5896,3.5974,3.5996,3.5996,3.5996,3.5996,3.5996,3.5996,3.5996,3.5996,3.5996,3.5996,3.5995,3.5995,3.5992,3.6005,3.6005,3.5999,3.5991,3.5991,3.5947,3.5908,3.5878,3.5724,3.557,3.5515,3.5493,3.5493,3.5493,3.5493,3.5493,3.5493,3.5493,3.5493,3.5493,3.5398,3.5085,3.4395,3.4221,3.3929,3.3137,0.0,3.2274,3.2252,3.1728,3.1384,3.1384,3.1384,3.1439,3.1568,3.1568,3.1591,0.0,3.2192,3.218,3.1317,3.1284,3.1271,3.119,3.119,3.1151,3.1015,3.0952,3.0831,3.0692,3.007,2.9528,2.9074,2.8543,2.8027,2.7575,2.7452,2.7401,2.7401,2.7159,2.7003,2.7003,2.6899,2.6832,2.6779,3.9861,4.0022,4.0177,4.0449,4.0495,4.0489,4.0489,4.0489,4.0489,4.0489,4.0489,4.0489,4.0489,4.0489,4.0489,4.0489,4.0392,4.0296,4.0296,3.9546,3.9104,3.9104,3.8392,3.793,3.7796,3.7084,3.6642,3.6507,3.5836,3.5528,3.5604,3.5608,3.5639,3.5702,3.5762,3.5841,3.5896,3.5974,3.5996,3.5996,3.5996,3.5996,3.5996,3.5996,3.5996,3.5996,3.5996,3.5996,3.5996,3.5995,3.5993,3.6009,3.6005,3.5999,3.5991,3.5991,3.5947,3.5878,3.576,3.5629,3.5515,3.5507,3.5493,3.5493,3.5493,3.5493,3.5493,3.5493,3.5493,3.5493,3.5493,3.5446,3.5326,3.5143,3.5097,3.4964,3.4622,0.0,3.3056,3.2896,3.2004,3.1384,3.1384,3.1384,3.1678,3.2375,3.2412,3.2645,3.3204,3.335,3.3021,3.2141,3.2107,3.1827,3.119,3.119,3.1151,3.1015,3.0952,3.0831,3.0692,3.007,2.9528,2.9074,2.8543,2.8027,2.7575,2.7452,2.7401,2.7401,2.7233,2.7093,2.7003,2.7003,2.6899,2.6779,3.9963,4.0177,4.0342,4.0485,4.0495,4.0489,4.0489,4.0489,4.0489,4.0489,4.0489,4.0489,4.0489,4.0489,4.0489,4.0489,4.0489,4.0489,4.0489,4.0142,3.995,3.995,3.9546,3.9142,3.87,3.7853,3.7411,3.7411,3.7021,3.6645,3.6241,3.6281,3.6106,3.5755,3.5827,3.589,3.5953,3.5996,3.5996,3.5996,3.5996,3.5996,3.5996,3.5996,3.5996,3.5996,3.5996,3.5996,3.5996,3.5996,3.5995,3.5993,3.6009,3.6005,3.5999,3.5994,3.5947,3.5866,3.5687,3.5607,3.556,3.5501,3.5493,3.5493,3.5493,3.5493,3.5493,3.5493,3.5493,3.5493,3.5493,3.5446,3.5379,3.5364,3.5324,3.5209,3.4944,3.4354,3.3858,3.3664,3.3087,3.2687,3.2687,3.2687,3.2852,3.322,3.3203,3.3314,3.3587,3.3577,3.3142,3.2317,3.1913,3.1524,3.119,3.119,3.1151,3.1112,3.0952,3.0871,3.0773,3.0113,2.9528,2.9074,2.8543,2.8027,2.7575,2.7524,2.7488,2.7488,2.7335,2.7248,2.7196,2.7055,2.6951,2.6899,4.0081,4.0325,4.0502,4.0502,4.0495,4.0489,4.0489,4.0489,4.0489,4.0489,4.0489,4.0489,4.0489,4.0489,4.0489,4.0489,4.0489,4.0489,4.0489,4.0489,4.0489,4.0489,4.0489,4.02,3.9585,3.8738,3.8296,3.8296,3.8104,3.7676,3.7082,3.7166,3.682,3.6105,3.6169,3.6124,3.5996,3.5996,3.5996,3.5996,3.5996,3.5996,3.5996,3.5996,3.5996,3.5996,3.5996,3.5996,3.5996,3.5996,3.5996,3.5995,3.5992,3.6009,3.6003,3.5994,3.5955,3.5889,3.5715,3.5649,3.5585,3.5534,3.5501,3.5493,3.5493,3.5493,3.5493,3.5493,3.5493,3.5493,3.5493,3.546,3.5412,3.5412,3.5354,3.5207,3.4925,3.4676,3.4442,3.4221,3.3972,3.3807,3.3807,3.3807,3.3807,3.3807,3.3726,3.3671,3.3605,3.352,3.3129,3.2317,3.1562,3.119,3.119,3.119,3.119,3.119,3.0992,3.0912,3.0871,3.0241,2.9705,2.9257,2.8826,2.8304,2.776,2.776,2.771,2.7575,2.7488,2.7452,2.735,2.7144,2.7055,2.7003,4.0362,4.0432,4.0502,4.0502,4.0495,4.0489,4.0489,4.0489,4.0489,4.0489,4.0489,4.0489,4.0489,4.0489,4.0489,4.0489,4.0489,4.0489,4.0489,4.0489,4.0489,4.0489,4.0489,4.0469,4.0412,3.9623,3.92,3.92,3.8392,3.7964,3.791,3.8028,3.7713,3.7014,3.7067,3.669,3.5996,3.5996,3.5996,3.5996,3.5996,3.5996,3.5996,3.5996,3.5996,3.5996,3.5996,3.5996,3.5996,3.5996,3.5996,3.5995,3.5992,3.6009,3.6003,3.5994,3.5991,3.5981,3.5894,3.5732,3.5607,3.5596,3.554,3.5493,3.5493,3.5493,3.5493,3.5493,3.5493,3.5493,3.5493,3.5493,3.546,3.5412,3.5398,3.5285,3.4943,3.4715,3.4486,3.4245,3.3972,3.3807,3.3807,3.3807,3.3807,3.3807,3.3726,3.3671,3.3605,3.352,3.3129,3.2317,3.1562,3.119,3.119,3.119,3.119,3.119,3.0992,3.0912,3.0871,3.0609,3.0199,2.9766,2.9705,2.9134,2.8255,2.8255,2.7978,2.7625,2.7575,2.7488,2.7401,2.7233,2.7093,2.7003,4.0398,4.0379,4.0396,4.0485,4.0499,4.0495,4.0489,4.0489,4.0489,4.0489,4.0489,4.0489,4.0489,4.0489,4.0489,4.0489,4.0489,4.0489,4.0489,4.0489,4.0489,4.0489,4.0489,4.0489,4.0489,4.02,4.0027,4.0027,3.97,3.9311,3.8806,3.8934,3.8297,3.7033,3.7156,3.6747,3.5996,3.5996,3.5996,3.5996,3.5996,3.5996,3.5996,3.5996,3.5996,3.5996,3.5996,3.5996,3.5996,3.5996,3.5996,3.5996,3.5995,3.5992,3.6007,3.5996,3.5991,3.5991,3.5978,3.5814,3.565,3.5609,3.5553,3.5493,3.5493,3.5493,3.5493,3.5493,3.5493,3.5493,3.5493,3.5493,3.5493,3.546,3.5427,3.53,3.4997,3.4851,3.4634,3.4269,3.4124,3.3972,3.3834,3.3807,3.3807,3.3807,3.3698,3.3633,3.3605,3.328,3.2844,3.2317,3.1804,3.1428,3.119,3.119,3.119,3.119,3.1032,3.0952,3.0912,3.0692,3.0342,2.9793,2.9793,2.9422,2.8779,2.8448,2.8207,2.8027,2.771,2.7575,2.7488,2.7284,2.7181,2.7093,4.0119,4.0215,4.0307,4.0307,4.0396,4.0466,4.046,4.0476,4.0492,4.0492,4.0508,4.0489,4.0489,4.0489,4.0489,4.0489,4.0489,4.0489,4.0489,4.0489,4.0489,4.0489,4.0489,4.0489,4.0489,4.0489,4.0489,4.0489,4.0489,4.0219,3.9677,3.9804,3.9131,3.7778,3.7654,3.7153,3.6365,3.6113,3.5996,3.5996,3.5996,3.5996,3.5996,3.5996,3.5996,3.5996,3.5996,3.5996,3.5996,3.5996,3.5996,3.5996,3.5995,3.5993,3.6007,3.5996,3.5991,3.5991,3.5991,3.588,3.5745,3.5706,3.5615,3.5534,3.5534,3.5515,3.5493,3.5493,3.5493,3.5493,3.5493,3.5493,3.5493,3.5493,3.546,3.535,3.5119,3.4944,3.4695,3.4325,3.4154,3.3998,3.3834,3.3807,3.3807,3.3807,3.3671,3.3577,3.3549,3.319,3.2813,3.2468,3.2092,3.1731,3.1351,3.1252,3.119,3.119,3.1055,3.0975,3.0912,3.0773,3.0468,3.0027,3.0027,2.975,2.9303,2.8904,2.8575,2.8255,2.7944,2.771,2.7575,2.7335,2.7284,2.7233,3.9532,3.9918,4.0196,3.9962,4.0177,4.0398,4.0398,4.0449,4.0502,4.0502,4.0495,4.0489,4.0489,4.0489,4.0489,4.0489,4.0489,4.0489,4.0489,4.0489,4.0489,4.0489,4.0489,4.0489,4.0489,4.0489,4.0489,4.0489,4.0489,4.0489,4.0504,4.0636,4.0272,3.9458,3.8809,3.8001,3.7142,3.6345,3.5996,3.5996,3.5996,3.5996,3.5996,3.5996,3.5996,3.5996,3.5996,3.5996,3.5996,3.5996,3.5996,3.5996,3.5995,3.5992,3.6003,3.5994,3.5991,3.5991,3.5991,3.5947,3.5908,3.5908,3.5741,3.5607,3.5607,3.554,3.5493,3.5493,3.5493,3.5493,3.5493,3.5493,3.5493,3.5493,3.5493,3.546,3.5315,3.4944,3.4653,3.4529,3.4087,3.3788,3.3807,3.3807,3.3807,3.3807,3.3671,3.3549,3.3411,3.3393,3.3226,3.2795,3.2468,3.2109,3.1714,3.1351,3.119,3.119,3.1072,3.0992,3.0912,3.0773,3.0609,3.0526,3.0526,3.0258,2.981,2.9793,2.9196,2.8304,2.8288,2.8027,2.7575,2.7437,2.7401,2.735,3.9526,3.9785,4.0,3.9901,4.0139,4.0362,4.0379,4.0415,4.0379,4.0233,4.0214,4.0177,4.0004,4.0195,4.0286,4.0286,4.0425,4.0489,4.0489,4.0489,4.0489,4.0489,4.0489,4.0489,4.0489,4.0489,4.0489,4.0489,4.0489,4.0489,4.0504,4.0582,4.023,3.9478,3.8699,3.794,3.7142,3.6294,3.5953,3.5996,3.5996,3.5996,3.5996,3.5996,3.5996,3.5996,3.5996,3.5996,3.5996,3.5996,3.5996,3.5996,3.5995,3.5993,3.6009,3.6003,3.5996,3.5991,3.5991,3.5985,3.5951,3.5919,3.5741,3.5607,3.5607,3.554,3.5493,3.5493,3.5493,3.5493,3.5493,3.5493,3.5493,3.5493,3.5493,3.546,3.5315,3.5086,3.4813,3.4529,3.4255,3.3998,3.3834,3.3807,3.3807,3.3807,3.3671,3.3549,3.3481,3.3422,3.3226,3.2795,3.2468,3.2109,3.1714,3.1351,3.119,3.119,3.1151,3.1072,3.0912,3.0871,3.0692,3.0526,3.0526,3.0426,3.0258,2.9941,2.9438,2.8826,2.8448,2.8027,2.7575,2.7437,2.7401,2.7401,3.9192,3.9483,3.9698,3.959,3.9878,4.0158,4.0196,4.0289,4.0289,4.0061,4.0081,4.0002,3.9775,3.9922,4.0042,4.0042,4.025,4.0425,4.0489,4.0489,4.0489,4.0489,4.0489,4.0489,4.0489,4.0489,4.0489,4.0489,4.0489,4.0489,4.0504,4.0579,4.0359,3.9894,3.8802,3.8043,3.7556,3.6372,3.5896,3.5953,3.5953,3.5975,3.5996,3.5996,3.5996,3.5996,3.5996,3.5996,3.5996,3.5996,3.5996,3.5996,3.5995,3.5994,3.5992,3.6007,3.6001,3.5996,3.5994,3.5991,3.5988,3.5947,3.5827,3.5706,3.5641,3.5585,3.5534,3.5507,3.5493,3.5493,3.5493,3.5493,3.5493,3.5493,3.5493,3.5412,3.5315,3.51,3.4851,3.4551,3.4325,3.4099,3.3834,3.3807,3.3807,3.378,3.3643,3.3577,3.3491,3.3422,3.3286,3.3068,3.2553,3.2162,3.1932,3.1466,3.119,3.119,3.119,3.1112,3.0952,3.0952,3.0814,3.0568,3.0568,3.0568,3.0468,3.0199,2.9793,2.9348,2.9012,2.8496,2.7894,2.781,2.7625,2.7437,3.875,3.9129,3.9401,3.9137,3.9508,3.9851,3.9851,4.0099,4.0158,3.992,4.0002,3.9982,3.9687,3.9754,3.9797,3.9775,4.0022,4.025,4.0457,4.0473,4.0473,4.0489,4.0489,4.0489,4.0489,4.0489,4.0489,4.0489,4.0489,4.0489,4.0504,4.0579,4.0607,4.0524,3.8974,3.8287,3.8188,3.6495,3.5836,3.5893,3.5893,3.5948,3.5996,3.5996,3.5996,3.5996,3.5996,3.5996,3.5996,3.5996,3.5996,3.5996,3.5995,3.5995,3.5994,3.6007,3.6005,3.6003,3.5994,3.5991,3.5991,3.5991,3.5947,3.5878,3.5737,3.5641,3.5574,3.5515,3.5493,3.5493,3.5493,3.5493,3.5493,3.5493,3.5446,3.5379,3.5315,3.5049,3.4794,3.4529,3.4302,3.4074,3.3815,3.3807,3.378,3.3726,3.3643,3.3577,3.3491,3.3452,3.3393,3.3393,3.2702,3.2334,3.2334,3.16,3.123,3.119,3.119,3.1112,3.1015,3.1015,3.0895,3.0733,3.0692,3.0651,3.0526,3.051,3.0199,2.981,2.975,2.915,2.8288,2.8255,2.7978,2.7575,3.8707,3.895,3.9183,3.9129,3.9376,3.9599,3.9599,3.9807,3.9916,3.9675,3.9878,3.9899,3.9508,3.966,3.975,3.9585,3.9772,3.9983,4.0251,4.0269,4.0339,4.0489,4.0489,4.0489,4.0489,4.0489,4.0489,4.0489,4.0489,4.0489,4.0504,4.0554,4.0598,4.0544,3.8929,3.8246,3.8179,3.6456,3.58,3.5893,3.5893,3.5948,3.5996,3.5996,3.5996,3.5996,3.5996,3.5996,3.5996,3.5996,3.5996,3.5996,3.5996,3.5996,3.5995,3.5991,3.6007,3.6003,3.5994,3.5991,3.5991,3.5991,3.5988,3.5923,3.5733,3.5641,3.5574,3.5515,3.5493,3.5493,3.5493,3.5493,3.5493,3.5493,3.5446,3.5379,3.5315,3.4925,3.4634,3.4508,3.4136,3.3868,3.3807,3.3807,3.3788,3.378,3.3671,3.3605,3.3577,3.3452,3.3393,3.3393,3.2925,3.2699,3.2699,3.1967,3.1449,3.119,3.119,3.1112,3.1015,3.1015,3.0952,3.0871,3.0733,3.0692,3.0651,3.0526,3.0199,2.975,2.9393,2.8873,2.8255,2.7894,2.766,2.7575,3.8707,3.8792,3.891,3.891,3.9129,3.9324,3.9324,3.9551,3.9647,3.9427,3.9675,3.9679,3.9264,3.9464,3.9609,3.9508,3.9683,3.9922,4.0177,4.0286,4.0389,4.0489,4.0489,4.0489,4.0489,4.0489,4.0489,4.0489,4.0489,4.0489,4.0504,4.0569,4.0593,4.053,3.8923,3.821,3.8151,3.6426,3.5729,3.5791,3.5791,3.5857,3.5951,3.5951,3.5974,3.5996,3.5996,3.5996,3.5996,3.5996,3.5996,3.5996,3.5996,3.5996,3.5995,3.5992,3.6009,3.6003,3.5994,3.5991,3.5991,3.5991,3.5991,3.5958,3.582,3.5713,3.563,3.5558,3.5509,3.5493,3.5493,3.5493,3.5493,3.5493,3.5412,3.533,3.5296,3.5069,3.4793,3.4529,3.4284,3.4037,3.3815,3.3807,3.3807,3.3807,3.3671,3.3605,3.3605,3.3481,3.3393,3.3393,3.3019,3.2795,3.2795,3.2265,3.1787,3.1428,3.1291,3.1151,3.1112,3.1112,3.1032,3.0935,3.0814,3.0773,3.0692,3.0568,3.0342,3.007,2.9617,2.912,2.8638,2.8125,2.7795,2.7575,3.8707,3.8707,3.8707,3.8707,3.8881,3.9017,3.9017,3.9272,3.9376,3.921,3.9508,3.958,3.9156,3.935,3.9483,3.9452,3.959,3.9816,4.012,4.0285,4.0422,4.0489,4.0489,4.0489,4.0489,4.0489,4.0489,4.0489,4.0489,4.0489,4.0504,4.0564,4.0607,4.0544,3.8916,3.8206,3.8102,3.64,3.5708,3.5693,3.5693,3.5788,3.5893,3.5893,3.5948,3.5996,3.5996,3.5996,3.5996,3.5996,3.5996,3.5996,3.5996,3.5996,3.5995,3.5992,3.6009,3.6003,3.5994,3.5991,3.5991,3.5991,3.5991,3.5985,3.5934,3.5807,3.5668,3.5609,3.554,3.5493,3.5493,3.5493,3.5493,3.5493,3.5398,3.5315,3.5315,3.5207,3.5,3.4551,3.4442,3.4237,3.3842,3.3807,3.3807,3.3807,3.3671,3.3605,3.3605,3.3481,3.3393,3.3393,3.3068,3.2908,3.2908,3.2535,3.2196,3.1878,3.1487,3.1269,3.119,3.119,3.1151,3.1015,3.0952,3.0871,3.0733,3.0609,3.0526,3.0443,2.9881,2.9438,2.9028,2.84,2.7929,2.7625,3.8707,3.8707,3.8707,3.8707,3.8738,3.875,3.875,3.8979,3.9137,3.9129,3.9614,3.9878,3.9628,3.9532,3.9401,3.9165,3.9192,3.9389,3.9819,3.9882,4.0082,4.0489,4.0489,4.0489,4.0489,4.0489,4.0489,4.0489,4.0489,4.0489,4.0504,4.0573,4.0598,4.053,3.891,3.8194,3.8102,3.64,3.5708,3.5693,3.5693,3.5788,3.5893,3.5893,3.5948,3.5996,3.5996,3.5996,3.5996,3.5996,3.5996,3.5996,3.5996,3.5996,3.5996,3.5993,3.5991,3.6009,3.5996,3.5991,3.5991,3.5991,3.5991,3.5991,3.5988,3.5839,3.5668,3.5609,3.554,3.5493,3.5493,3.5493,3.5493,3.5493,3.5398,3.5315,3.5315,3.5088,3.4832,3.4529,3.416,3.3868,3.3807,3.3807,3.3807,3.3807,3.3671,3.3605,3.3605,3.3481,3.3393,3.3393,3.3364,3.3334,3.3334,3.2925,3.2699,3.2634,3.195,3.1487,3.119,3.119,3.119,3.1151,3.1015,3.0935,3.0871,3.0733,3.0609,3.0426,2.9528,2.9166,2.8982,2.8042,2.766,2.7625,3.8707,3.8707,3.8707,3.8707,3.8707,3.8707,3.8707,3.881,3.891,3.8921,3.9313,3.9585,3.9551,3.9526,3.9401,3.9129,3.9245,3.9464,3.9775,3.9943,4.0157,4.0489,4.0489,4.0489,4.0489,4.0489,4.0489,4.0489,4.0489,4.0489,4.0504,4.0583,4.0593,4.053,3.8923,3.8206,3.8102,3.64,3.5697,3.5699,3.5699,3.5741,3.578,3.5831,3.5887,3.5951,3.5996,3.5996,3.5996,3.5996,3.5996,3.5996,3.5996,3.5996,3.5995,3.5992,3.6009,3.6005,3.5996,3.5991,3.5991,3.5991,3.5991,3.5991,3.5991,3.5909,3.5787,3.5678,3.557,3.5493,3.5493,3.5493,3.5493,3.5493,3.5398,3.5315,3.5315,3.5174,3.4945,3.4551,3.4208,3.3972,3.3815,3.3807,3.3807,3.3807,3.3671,3.3605,3.3605,3.3481,3.3393,3.3393,3.3393,3.3393,3.3393,3.3208,3.3019,3.2795,3.2265,3.1823,3.1449,3.1291,3.119,3.119,3.1032,3.0912,3.0871,3.0692,3.0568,3.0426,2.975,2.915,2.8543,2.7845,2.7625,2.7625]}]]